GFSGL_sfc_temp_000.txt.gz
Temp
77 77 75 74 73 73 70 70 71 73 71 69 71 74 74 72 73 71 72 72 71 71 72 71 71 72 73 71 75 76 75 74 68 68 70 72 72 71 72 73 71 68 66
80 79 75 75 76 74 73 73 72 73 74 72 71 70 72 72 71 71 71 72 71 70 70 70 69 71 72 73 75 74 73 74 69 67 68 70 68 71 69 71 73 74 67
81 79 79 75 76 75 74 74 73 73 73 73 73 74 71 70 68 67 66 65 66 67 65 65 65 66 66 67 70 70 71 72 71 67 66 69 68 68 68 68 68 68 68
83 80 79 75 74 76 76 74 74 74 73 71 69 69 70 71 69 67 65 64 64 63 62 62 62 62 62 64 66 67 68 69 68 67 65 65 67 69 70 67 64 66 65
82 80 78 76 80 77 76 75 74 74 73 71 70 70 70 69 67 65 65 64 62 61 60 60 60 62 62 62 62 61 62 65 66 65 64 64 65 67 67 66 67 66 64
83 80 79 80 76 75 76 75 75 74 72 71 71 71 70 70 62 63 65 64 62 60 58 58 58 60 61 62 63 63 61 59 66 65 65 63 65 65 64 64 64 62 59
77 82 77 79 76 76 76 76 74 71 70 69 65 65 64 63 58 61 64 66 64 63 61 61 61 64 63 64 63 62 60 60 64 63 61 60 59 60 62 62 60 60 59
77 76 76 77 77 73 73 70 69 70 69 67 66 65 63 58 56 57 62 68 65 62 62 62 60 58 59 63 63 60 57 56 58 60 56 56 56 57 58 61 60 60 61
77 76 73 71 71 68 69 68 67 67 65 64 64 62 60 56 53 55 64 64 60 58 57 56 58 57 56 61 62 59 57 56 56 56 56 56 57 57 58 61 56 56 57
65 68 65 66 62 60 62 61 62 64 63 61 59 58 56 55 50 51 61 64 60 59 56 55 54 53 52 55 61 60 56 56 59 58 57 57 58 58 60 59 58 55 54
58 60 59 57 56 56 55 55 56 56 55 54 54 53 54 53 50 49 51 62 61 58 56 54 53 50 49 49 52 55 53 56 57 55 56 58 60 59 58 58 57 56 54
55 55 54 53 54 53 52 51 51 50 48 47 47 47 48 49 48 47 48 49 52 52 50 50 49 47 46 47 51 49 51 53 55 54 53 55 58 57 56 57 57 56 57
51 51 51 52 53 53 51 50 48 49 47 46 46 46 46 48 48 47 47 48 49 48 48 48 47 46 47 48 50 51 53 53 54 55 54 55 56 56 57 56 57 56 56
51 51 52 52 53 54 54 54 50 50 48 47 46 46 46 47 47 49 49 49 50 49 51 51 51 51 52 55 56 57 56 55 54 53 53 55 56 55 54 54 53 53 53
53 53 52 53 52 51 52 52 51 49 50 48 48 49 48 46 46 44 46 52 54 50 51 54 54 55 55 54 54 55 54 54 53 53 53 53 52 52 51 52 52 52 50
57 57 54 54 54 54 53 49 46 46 44 42 43 51 51 44 43 42 43 45 48 47 55 56 55 55 53 53 53 54 54 54 53 53 52 52 51 51 50 51 52 51 49
61 62 63 62 61 59 57 55 51 48 45 43 42 43 42 42 43 44 44 44 48 47 57 56 55 55 55 55 55 55 54 54 54 53 52 52 52 51 50 50 51 50 49
63 57 64 63 63 64 62 60 59 57 55 53 45 48 43 43 44 45 46 46 58 54 59 57 56 56 56 56 55 55 54 54 54 53 53 53 52 51 50 50 50 49 48
66 68 68 69 69 67 68 67 66 63 60 56 55 48 47 44 43 42 42 53 59 59 59 58 57 56 55 55 54 54 53 53 53 52 52 51 51 51 50 51 51 47 48
69 62 66 69 69 69 69 68 67 65 64 60 58 59 58 54 56 56 58 59 59 60 59 59 58 56 56 55 55 53 54 53 52 53 52 51 51 51 50 50 51 50 50
72 70 64 71 70 69 68 67 66 65 65 62 60 56 45 57 62 61 61 60 60 60 59 58 60 59 58 55 54 54 55 55 53 52 51 51 50 50 50 50 50 51 51
72 72 70 70 69 67 66 65 64 64 65 63 60 58 49 58 63 61 60 60 61 60 60 58 59 60 60 57 56 55 55 55 53 51 51 51 51 51 50 50 50 50 51
70 71 66 67 66 59 65 64 63 63 65 64 64 61 61 62 62 62 61 61 61 60 60 60 60 60 60 58 58 57 56 54 53 52 50 49 49 50 49 49 49 50 49
71 72 71 66 65 67 65 62 64 58 63 65 65 64 64 63 63 59 61 61 61 61 61 61 60 59 58 57 58 58 55 52 53 51 49 48 48 49 49 49 50 50 49
72 71 71 68 66 67 64 65 66 66 65 65 65 64 64 63 62 62 62 61 61 61 60 61 59 58 58 57 55 51 38 35 45 41 48 47 47 48 49 49 48 49 50
72 71 70 70 70 69 67 67 67 66 65 66 65 65 64 63 63 62 61 60 60 61 60 59 60 59 58 56 52 39 34 33 41 36 44 46 47 49 49 48 49 49 50

GFSGL_sfc_temp_003.txt.gz
Temp
70 70 68 68 68 68 67 68 68 68 68 68 68 68 68 68 69 68 68 68 68 67 68 68 68 69 68 68 68 68 66 68 62 65 66 69 68 68 68 68 67 64 64
71 70 69 69 69 68 68 68 69 69 68 67 68 68 67 67 67 68 68 68 67 67 67 67 67 70 66 66 67 67 69 70 65 64 66 65 66 67 67 66 66 66 64
72 71 72 72 68 67 68 68 68 68 68 68 68 67 67 66 66 65 65 64 64 63 63 63 64 65 64 65 65 66 66 66 67 65 64 64 64 65 63 64 64 62 65
72 71 71 73 73 70 68 68 68 68 67 66 67 67 67 66 65 65 64 63 62 61 61 61 61 61 62 63 62 61 63 65 65 64 62 63 64 65 63 61 61 60 60
72 72 70 70 72 71 69 69 69 68 66 66 66 65 65 66 65 64 63 61 60 59 59 59 59 62 63 62 59 58 61 62 64 64 62 62 63 63 62 62 60 59 59
75 71 73 70 71 69 68 67 67 66 66 66 64 61 60 63 62 63 63 61 60 58 56 55 56 59 61 60 60 61 61 59 62 63 61 59 57 60 60 60 59 57 59
74 74 74 72 70 70 67 66 64 63 64 61 60 57 55 55 58 61 63 61 61 59 58 59 59 60 59 58 58 59 59 60 59 58 55 56 54 55 58 57 56 56 53
70 71 70 71 70 67 66 64 63 62 61 61 59 55 53 54 55 59 61 59 56 55 57 58 56 56 58 59 58 58 57 57 57 57 54 53 54 57 57 59 58 58 58
65 67 66 67 66 65 63 61 60 58 55 53 53 55 55 52 52 57 59 57 55 52 53 54 55 56 58 58 59 56 56 55 57 57 57 57 57 57 58 59 55 56 55
61 62 62 63 61 60 60 58 57 55 53 52 50 49 52 51 50 52 59 59 55 55 54 54 54 53 52 54 59 57 55 54 55 57 57 57 56 57 57 56 54 50 51
56 57 56 56 55 54 52 52 51 52 50 49 49 50 50 50 49 50 53 58 55 53 52 51 50 51 49 49 50 48 47 51 53 53 54 55 55 56 54 52 52 52 50
53 53 53 53 53 52 50 50 50 49 48 48 48 47 48 48 49 48 48 50 53 50 48 49 49 47 46 47 50 49 50 53 52 52 52 52 53 53 52 54 55 54 53
51 51 51 51 51 51 50 49 48 48 47 46 46 46 46 48 48 48 48 49 50 48 48 49 49 46 47 49 51 53 53 53 52 51 49 50 50 52 53 53 54 53 52
51 51 52 51 51 51 52 51 49 48 47 46 46 45 46 46 46 48 48 49 51 50 52 50 50 51 50 53 51 50 50 50 48 46 47 48 48 48 47 48 47 48 47
51 50 50 50 49 47 48 49 48 45 48 47 46 48 46 45 45 44 45 48 45 45 46 45 44 44 44 45 45 46 46 47 45 46 47 46 46 46 46 46 46 45 44
50 50 51 51 50 47 46 45 46 45 43 42 44 46 41 42 42 42 42 43 45 46 45 44 43 43 44 43 43 43 44 47 44 44 44 44 43 43 43 44 43 42 42
51 51 52 51 50 47 45 44 42 43 44 42 41 41 42 43 43 44 44 43 46 46 45 44 43 43 42 43 42 42 41 42 43 43 43 42 43 43 42 42 41 41 41
53 54 52 52 52 50 48 49 46 43 41 41 43 44 43 44 44 43 42 45 46 45 45 43 43 43 43 42 42 41 42 42 42 42 42 41 41 41 41 41 40 39 39
54 53 53 52 52 53 51 48 49 48 45 43 41 43 42 43 43 43 42 42 43 44 43 44 43 43 42 43 42 41 41 41 42 41 40 41 41 40 40 40 40 46 44
56 58 56 54 54 54 54 52 50 50 47 44 44 44 44 45 44 45 45 45 45 44 44 43 43 44 43 43 42 42 42 41 41 39 40 40 40 39 39 39 40 40 40
58 57 59 55 55 55 53 52 51 53 51 46 46 47 46 45 45 45 45 46 46 45 45 45 43 42 43 43 43 42 42 41 40 40 40 39 39 39 39 39 41 42 43
58 59 59 56 55 54 52 52 52 51 49 47 46 46 47 45 46 47 46 47 46 46 46 45 44 44 44 44 44 43 43 41 39 40 39 39 38 39 39 40 43 43 44
61 62 59 55 54 54 53 52 50 51 51 49 48 48 48 47 47 47 48 47 47 46 47 47 46 45 45 45 45 44 42 41 40 39 38 38 37 38 39 40 41 42 43
62 62 61 57 54 53 53 52 52 51 52 51 51 50 49 49 48 49 48 48 48 48 47 46 46 46 45 44 42 42 41 41 40 39 38 37 37 39 39 40 41 43 43
61 60 61 56 55 55 55 53 53 53 53 54 52 51 50 50 48 49 48 48 48 46 46 46 46 47 46 44 42 40 36 34 38 39 36 36 37 39 39 40 41 42 43
60 60 58 56 55 56 55 53 53 53 52 53 51 50 50 49 49 49 48 48 47 46 47 46 48 47 47 46 44 38 34 34 36 35 35 35 36 38 40 41 42 41 41

GFSGL_sfc_temp_006.txt.gz
Temp
67 67 66 66 66 66 65 66 66 66 66 66 67 66 66 67 67 66 66 67 66 66 66 66 65 65 65 66 66 66 66 65 62 64 66 67 67 67 67 66 66 65 65
68 67 66 66 66 65 66 66 66 65 66 67 67 66 65 65 66 66 67 67 66 66 66 66 66 67 65 65 65 65 66 66 64 63 65 65 65 66 66 64 65 65 64
69 67 66 66 66 66 66 66 65 65 65 66 66 65 65 65 64 64 63 63 63 63 63 63 64 65 64 63 63 63 64 65 65 63 62 63 64 64 62 63 62 61 64
69 68 67 66 66 66 66 66 65 65 65 65 64 64 65 65 65 65 63 62 61 61 61 61 61 62 62 61 61 61 62 63 63 63 62 62 63 63 62 59 60 59 59
69 68 67 67 67 67 66 66 65 65 64 64 63 63 63 64 64 62 61 61 60 58 58 60 60 62 62 61 60 60 61 62 62 62 61 62 61 61 60 61 59 59 58
73 70 72 70 69 66 65 64 64 63 61 59 57 57 60 63 61 61 61 58 57 56 55 55 57 59 59 59 60 60 60 61 61 61 61 58 57 58 58 59 57 55 55
71 69 71 71 68 65 64 62 60 59 57 55 53 53 53 57 59 60 61 59 59 58 58 57 58 59 57 54 57 58 58 59 60 61 56 54 53 55 57 56 55 56 55
66 67 67 66 66 64 62 59 57 57 58 57 55 52 51 53 57 57 58 55 53 53 55 57 57 56 57 57 56 56 57 57 58 57 54 53 56 57 57 58 57 55 56
63 66 67 65 64 61 58 56 53 52 50 48 51 54 53 54 54 55 56 56 53 50 51 53 53 54 56 57 57 56 55 56 57 56 56 56 56 56 57 55 51 54 50
57 60 66 65 63 58 56 54 53 51 50 50 50 52 52 52 51 53 57 57 51 52 53 52 54 53 52 53 54 52 51 53 54 56 55 54 56 56 56 53 52 50 50
56 56 56 56 55 54 52 52 51 49 48 48 49 50 51 51 51 51 53 56 53 51 50 49 49 50 48 49 50 53 51 53 54 53 54 54 54 54 53 51 52 51 48
52 52 52 52 53 52 50 50 50 50 49 48 48 48 48 49 49 48 49 51 53 51 49 49 49 47 47 48 51 49 50 53 53 51 49 51 52 52 53 53 54 54 53
52 51 51 51 51 50 49 49 48 49 48 47 47 46 47 48 48 48 48 50 51 49 49 50 49 47 48 49 50 51 52 52 51 50 48 46 48 47 47 47 48 48 48
50 49 49 49 48 49 49 49 48 48 46 47 46 46 45 46 47 48 48 49 51 50 51 50 51 50 50 49 47 45 45 44 43 41 41 41 42 43 42 41 42 42 43
49 48 47 46 47 45 46 45 45 42 46 47 45 47 47 45 45 44 46 49 46 45 44 42 42 42 42 42 42 42 42 42 42 40 40 40 41 41 41 40 40 40 39
49 50 49 48 47 46 46 43 46 44 44 43 43 42 40 42 41 41 42 43 44 45 43 40 39 39 39 39 40 40 39 43 40 40 39 39 39 39 39 39 39 38 38
47 46 46 46 43 41 40 42 41 43 43 41 41 41 42 41 42 42 42 43 44 45 41 39 39 39 38 38 39 38 38 39 38 39 38 39 39 40 39 38 38 38 39
46 49 45 45 44 43 44 48 47 44 38 38 42 42 42 42 42 41 41 44 44 42 40 40 39 40 39 39 39 39 39 39 38 38 38 38 38 38 38 37 37 37 37
49 48 46 45 44 44 42 42 42 41 40 39 39 42 42 43 43 42 42 41 41 39 39 40 39 39 39 39 39 38 38 38 37 37 37 37 37 36 36 36 37 42 41
50 53 52 48 46 45 44 44 43 42 41 41 41 41 41 42 42 42 43 41 41 40 40 40 40 39 41 41 39 38 39 38 38 37 36 37 36 35 36 36 36 37 36
51 52 54 50 51 50 49 48 48 46 43 42 42 43 43 43 42 42 42 41 42 41 40 41 40 40 39 40 39 39 39 38 37 36 36 36 35 36 35 35 36 38 37
53 55 54 53 51 50 50 48 50 46 46 45 42 43 42 42 43 43 42 43 43 43 43 42 40 40 40 41 41 40 39 38 37 37 37 36 35 35 36 36 37 37 38
56 59 56 53 53 52 52 50 47 47 45 45 44 45 44 43 43 43 44 43 43 43 43 43 42 41 41 42 41 41 39 38 38 37 37 36 34 35 35 36 36 37 36
59 59 57 56 53 52 50 48 48 47 48 47 46 45 44 44 44 45 44 44 44 43 43 43 42 42 41 39 39 39 39 38 37 37 35 34 34 35 35 36 36 38 37
55 55 55 55 53 51 49 49 49 49 51 49 48 47 46 45 45 45 45 45 44 43 43 42 42 44 43 41 39 38 37 35 36 36 34 34 35 36 36 36 37 37 39
55 55 53 53 52 51 51 50 51 49 48 48 50 46 47 47 46 45 44 44 43 43 43 43 43 45 44 43 42 39 34 34 37 36 34 33 34 34 35 37 38 38 38

GFSGL_sfc_temp_009.txt.gz
Temp
66 65 65 65 64 64 64 64 64 65 65 66 65 65 65 65 66 65 64 66 66 65 65 65 65 66 65 66 66 65 65 65 62 64 65 66 67 66 66 65 65 64 64
66 65 65 65 65 64 64 64 64 64 65 66 66 64 64 65 65 65 66 67 66 65 65 64 65 67 65 66 65 65 64 65 64 62 64 64 65 65 65 64 63 64 63
66 65 64 64 64 64 64 64 64 64 64 64 64 64 63 62 62 62 63 63 62 63 64 65 65 65 64 63 63 63 63 64 64 63 62 63 64 63 60 61 61 61 64
67 66 65 64 64 64 64 64 64 64 63 62 62 63 63 64 64 63 62 61 60 60 61 61 62 62 61 61 61 62 62 63 63 62 61 62 62 61 60 57 57 59 58
67 66 66 65 65 65 64 63 63 62 61 60 60 61 62 62 62 61 62 61 59 58 59 60 61 63 63 63 61 61 62 61 61 61 61 61 61 60 59 59 57 58 57
67 67 70 66 66 65 63 62 61 58 56 57 57 60 60 61 59 60 59 57 56 57 56 57 57 58 59 59 60 60 59 60 60 60 60 59 57 57 57 59 55 55 54
66 68 69 66 64 64 62 60 57 55 54 53 55 57 58 59 58 59 60 58 59 58 57 57 58 57 55 55 57 58 58 59 58 59 56 53 54 55 56 55 55 55 53
63 65 66 65 64 62 60 57 55 53 52 50 50 51 56 57 55 55 56 53 51 51 53 57 56 56 56 57 57 55 55 56 57 57 53 52 53 54 55 56 55 52 52
60 64 66 64 63 60 55 52 50 49 48 48 52 55 55 54 53 54 54 51 50 49 50 52 52 52 56 56 55 53 53 52 56 56 56 55 55 55 57 55 52 52 50
56 57 65 64 60 56 54 51 50 51 48 49 50 53 54 54 52 52 56 54 49 49 49 49 54 51 52 52 53 53 52 52 54 54 54 55 55 55 56 54 54 51 50
54 55 55 57 56 54 53 52 51 49 48 48 48 51 51 53 51 50 52 55 53 52 50 49 48 50 49 49 51 53 51 53 54 53 52 53 54 54 53 51 51 51 48
52 51 51 53 53 52 50 50 51 50 49 49 48 48 49 49 49 49 49 51 54 52 50 50 48 47 46 48 51 48 49 52 53 50 50 51 52 51 51 51 50 50 50
51 50 50 51 51 51 50 49 49 50 49 48 48 47 47 48 49 48 48 50 51 49 49 50 49 47 48 49 48 48 48 45 44 43 41 40 40 40 42 42 43 43 43
48 48 48 48 48 48 48 49 48 48 47 47 47 46 46 47 48 48 49 49 51 49 50 51 50 49 48 46 44 43 42 41 40 39 38 38 39 40 40 38 39 39 40
48 47 47 46 45 44 43 44 46 46 48 47 46 47 47 46 44 44 46 49 48 47 44 41 40 39 40 39 40 39 40 40 39 37 38 38 38 38 38 37 37 37 37
50 50 49 49 49 48 47 45 46 45 43 42 42 45 41 43 41 42 43 43 43 44 40 38 37 37 37 37 38 38 37 40 37 38 37 37 37 37 37 37 37 36 36
43 43 44 44 45 43 40 41 40 41 43 41 40 41 41 41 41 41 42 41 43 43 39 36 37 37 36 37 37 37 36 35 35 37 36 36 37 37 37 36 36 36 36
43 47 41 41 41 40 41 41 40 39 39 38 41 41 41 41 41 41 41 43 43 41 38 38 37 37 37 37 36 36 35 36 35 35 36 35 35 35 36 35 35 34 34
44 43 42 41 40 41 40 40 39 39 39 38 38 41 42 41 40 40 42 43 40 38 37 37 37 37 37 37 36 36 35 36 36 35 34 35 34 34 34 34 35 41 39
45 50 46 43 42 41 41 41 40 39 40 41 41 41 42 44 43 41 40 40 39 39 38 38 38 38 38 38 37 36 35 36 35 35 34 34 34 33 34 34 34 34 34
47 47 50 45 44 43 44 44 43 41 42 41 42 42 42 43 43 41 41 41 40 40 39 39 38 38 38 39 37 37 37 36 35 35 34 34 34 34 32 33 34 35 35
50 48 49 47 47 48 48 48 44 44 43 43 42 43 42 42 42 42 41 41 41 41 40 40 38 38 39 39 39 38 37 37 36 35 34 34 34 33 33 34 35 34 35
52 53 51 50 48 49 49 48 48 47 47 47 45 44 43 43 42 42 43 43 42 42 41 41 40 38 39 40 39 39 38 37 37 36 35 34 33 33 33 34 34 34 34
58 55 53 50 50 48 49 47 47 46 48 47 45 45 45 44 44 44 43 43 42 41 41 41 40 41 40 39 38 37 37 37 36 36 35 32 32 34 33 34 34 35 35
54 53 52 51 50 49 48 48 48 49 49 48 47 46 44 43 43 44 43 42 42 41 41 40 40 42 42 40 39 38 37 34 36 35 32 33 33 34 34 33 34 34 36
53 52 50 49 49 50 50 48 48 48 47 50 49 46 46 45 46 44 43 42 41 41 41 40 41 43 43 41 41 39 35 33 35 34 33 31 33 33 33 34 34 35 35

GFSGL_sfc_temp_012.txt.gz
Temp
67 67 67 67 67 67 66 66 66 67 67 66 66 67 67 68 68 68 67 68 67 67 67 67 68 68 68 68 67 66 66 66 63 64 66 67 68 68 66 65 66 66 66
68 67 66 67 67 66 66 66 66 66 66 65 66 65 65 66 67 67 68 68 67 66 67 67 67 68 66 66 66 65 65 66 64 63 64 65 65 64 63 62 63 63 63
68 67 66 67 67 66 66 66 66 65 65 65 65 65 64 64 64 64 64 63 64 64 66 65 66 66 65 65 64 63 64 65 65 63 62 64 64 62 60 60 60 60 64
67 67 65 66 66 66 66 65 65 64 64 64 64 64 64 65 65 64 63 62 61 61 61 62 62 62 62 62 63 63 64 63 63 62 62 62 61 61 59 57 56 57 57
67 68 67 66 67 66 65 65 63 62 62 62 63 63 63 64 65 63 62 61 60 59 59 60 62 63 63 63 61 61 61 62 62 61 61 61 61 60 59 58 56 56 55
68 68 68 66 66 65 64 63 61 60 59 62 62 62 62 63 59 60 61 59 59 59 57 57 57 57 57 58 58 59 59 59 61 60 61 59 57 57 57 59 56 56 53
66 69 67 67 65 64 62 61 58 57 57 58 59 61 60 59 57 58 60 59 60 59 58 58 57 56 56 55 57 58 58 58 58 58 52 52 52 53 56 56 56 54 52
63 66 67 66 65 63 60 57 56 55 55 55 56 58 57 56 54 54 56 56 55 55 57 57 56 57 57 57 56 55 55 55 57 57 54 52 54 54 53 55 53 51 52
59 61 66 65 63 60 57 54 54 54 53 54 56 56 55 55 53 53 55 55 54 53 55 56 56 57 55 56 57 55 55 56 56 56 56 56 55 55 57 57 54 57 54
56 57 63 64 62 57 55 53 53 53 53 54 55 55 55 54 51 51 55 56 54 54 54 54 54 54 51 51 56 56 54 55 57 57 57 56 56 56 56 55 56 53 52
54 54 55 57 56 55 52 53 52 52 51 51 51 52 53 53 52 50 52 56 55 54 53 54 54 50 48 48 50 56 54 56 56 56 56 56 55 55 55 52 51 53 51
52 52 52 52 53 52 51 52 52 52 50 50 48 48 50 50 50 49 49 51 54 53 51 52 50 47 46 47 49 48 49 53 53 54 54 53 53 50 50 52 51 54 56
51 50 50 51 51 51 51 50 50 50 49 48 48 48 48 50 49 48 48 50 51 49 49 50 49 47 47 49 47 48 50 53 53 52 51 50 50 50 51 52 53 51 52
48 48 49 49 48 49 50 50 49 48 48 48 47 48 48 48 48 49 49 51 51 51 52 51 50 50 48 49 50 50 52 52 51 50 50 50 51 52 51 50 52 52 53
49 48 47 46 45 44 43 46 46 46 48 48 48 49 48 47 46 45 47 50 52 49 50 50 51 50 50 50 49 49 50 50 50 49 50 50 50 51 50 49 50 51 50
50 50 50 48 47 45 45 43 45 44 43 42 43 46 46 44 42 42 42 42 42 44 49 49 47 48 48 48 49 48 48 48 48 49 49 49 49 49 49 50 50 49 50
47 47 49 49 48 46 47 47 45 45 43 41 40 41 41 41 41 41 41 40 41 45 48 48 47 48 47 47 48 48 48 47 46 48 49 48 49 49 49 48 49 49 50
47 46 46 46 46 46 46 46 47 47 46 46 43 43 41 41 40 40 41 45 50 48 48 48 47 48 48 48 48 49 48 48 48 48 48 48 48 48 48 48 48 48 49
47 47 46 46 46 46 46 47 47 46 46 45 47 46 45 40 39 40 41 52 49 48 48 48 48 48 48 48 48 47 47 49 48 48 48 48 48 48 48 48 49 45 46
49 49 47 47 48 48 48 47 47 46 46 47 48 49 49 49 50 50 49 49 49 49 48 48 48 48 48 48 48 48 48 47 47 48 48 48 47 48 48 48 49 48 49
51 51 50 50 50 49 49 49 48 47 48 48 49 48 43 51 51 51 50 49 49 49 48 49 50 50 49 48 49 49 49 49 48 48 48 47 47 48 47 48 48 49 50
52 52 52 51 50 49 50 50 49 49 49 49 49 49 42 51 51 51 50 50 50 50 50 50 51 51 51 51 50 50 50 49 48 47 47 47 47 48 48 48 49 49 50
55 54 54 53 52 50 51 52 51 51 51 51 51 51 50 50 51 50 50 51 50 50 50 50 51 51 51 50 50 50 50 50 49 48 47 47 47 47 48 48 48 49 50
57 57 56 55 53 53 52 52 52 48 53 52 51 51 51 51 51 51 51 52 51 50 50 50 51 52 51 50 50 50 50 49 48 48 48 47 47 45 47 47 48 48 49
59 58 57 56 55 54 54 53 53 53 52 52 52 52 52 52 52 52 51 51 51 50 50 50 51 52 52 52 51 51 44 34 45 41 47 46 46 45 47 47 48 48 48
58 57 56 55 53 53 53 54 54 53 52 53 53 53 53 52 53 53 52 51 50 50 51 52 51 51 51 52 52 45 36 33 40 35 46 46 45 46 46 47 47 48 48

GFSGL_sfc_temp_015.txt.gz
Temp
77 76 76 76 76 75 75 75 74 73 73 72 70 70 71 74 75 72 71 71 70 71 71 70 72 73 75 75 75 74 72 72 67 68 68 68 68 68 66 67 69 68 66
78 77 76 77 77 76 75 74 75 73 73 73 69 67 68 70 71 72 71 71 70 70 71 69 70 72 71 72 71 70 66 66 64 63 65 66 64 62 63 62 64 64 63
78 78 77 77 77 75 74 73 74 73 73 73 72 70 69 68 67 66 66 64 63 65 68 69 68 69 67 66 66 66 66 66 66 64 63 65 63 61 59 59 59 61 62
79 78 77 76 76 76 74 72 73 73 73 73 72 72 71 71 71 69 67 65 62 62 62 62 62 62 63 63 63 63 64 64 64 64 63 62 61 61 61 58 57 58 57
77 78 77 77 76 74 70 71 72 71 71 71 72 71 72 70 68 67 67 67 62 60 59 60 61 62 62 62 61 60 62 63 63 63 62 62 61 61 60 58 56 56 56
77 78 78 76 75 73 67 71 71 70 69 70 69 70 69 69 58 61 66 65 63 62 60 59 57 57 59 59 60 60 59 60 61 61 59 58 55 56 58 59 56 55 53
75 77 76 76 74 70 67 70 69 67 66 65 66 68 66 65 57 58 62 67 64 62 62 61 61 59 58 59 59 59 59 59 59 59 55 54 54 54 57 57 57 54 53
67 72 75 74 72 67 69 68 67 68 65 63 62 62 64 61 55 55 60 66 66 65 64 65 65 64 63 64 64 63 62 63 64 65 61 58 55 57 57 57 54 52 53
65 65 68 70 68 66 66 65 66 66 65 63 61 61 62 61 53 54 63 66 64 64 65 66 66 64 55 58 65 62 62 62 58 56 56 56 55 55 59 64 59 64 62
61 60 61 67 65 64 63 62 64 66 65 65 60 60 57 60 50 52 62 68 64 65 64 62 53 59 51 53 65 64 61 62 64 64 64 62 61 60 58 62 66 60 60
57 57 57 58 58 58 59 62 62 62 61 56 57 58 57 57 55 50 53 62 62 61 62 60 59 50 48 49 52 60 57 60 61 61 62 65 64 64 64 62 62 64 61
55 55 54 53 53 53 54 55 55 59 58 56 54 50 55 53 51 49 50 52 56 55 55 55 53 46 45 47 51 48 51 59 66 65 64 62 63 63 63 63 61 63 64
53 52 52 52 52 52 52 52 51 53 52 51 49 49 49 51 52 48 49 50 52 54 53 51 49 47 48 52 49 51 55 65 64 62 61 61 61 62 63 63 62 61 61
51 51 52 51 51 51 51 52 52 50 49 48 49 49 50 51 52 53 53 53 53 58 56 60 54 53 52 57 60 61 63 63 62 61 61 62 63 63 62 63 62 64 63
53 52 51 50 49 46 44 47 48 49 50 49 50 52 53 52 52 49 52 52 54 53 59 62 62 61 61 61 60 61 62 62 61 61 61 61 61 62 60 62 62 62 60
56 55 54 52 50 49 48 45 45 43 42 42 43 50 50 46 42 41 41 41 43 45 60 60 59 59 58 59 59 59 60 58 60 60 60 60 59 59 60 61 62 60 59
59 59 57 57 56 51 55 53 48 46 43 41 41 41 42 43 41 40 40 41 43 49 61 60 58 58 58 59 60 61 59 59 58 60 59 59 59 59 61 59 60 60 59
57 52 61 61 61 61 60 60 61 59 57 56 44 47 41 40 40 40 42 47 59 58 61 59 58 59 59 58 59 60 59 59 59 59 59 59 59 59 59 59 60 58 59
61 62 62 61 62 59 61 61 61 60 59 57 58 51 48 40 40 41 43 64 62 61 61 60 59 59 59 60 59 59 59 60 60 60 60 59 59 60 59 60 60 48 50
60 53 58 62 62 62 62 62 61 60 59 59 60 61 61 56 60 60 61 62 62 63 61 61 59 59 58 58 59 60 59 57 57 59 60 60 60 60 60 59 60 58 60
65 62 56 65 65 65 64 64 63 62 61 61 61 59 44 62 64 63 63 62 62 63 61 61 61 60 60 59 60 60 62 61 59 59 59 59 60 59 59 60 60 61 61
66 66 66 67 66 64 65 65 63 63 62 62 62 60 43 60 63 64 63 63 64 63 63 61 62 62 63 62 60 60 61 60 60 58 58 58 58 59 59 58 59 59 60
67 67 66 66 65 59 62 64 63 62 63 63 63 63 62 61 63 63 63 64 63 62 61 61 61 63 63 62 62 61 61 60 61 60 58 57 57 57 57 57 57 57 58
68 68 68 68 67 66 65 65 65 55 63 64 64 63 64 64 64 64 64 64 62 63 62 62 62 63 62 62 62 63 62 61 61 60 58 57 57 53 57 56 57 56 57
66 66 68 69 68 68 67 65 65 65 64 63 64 64 65 65 65 66 65 65 64 63 63 62 63 62 62 62 62 62 50 37 53 48 58 57 55 54 56 57 56 57 56
71 69 65 69 68 66 64 63 63 63 63 65 65 65 66 66 66 66 65 64 64 64 64 63 63 62 63 63 62 53 37 34 45 36 56 57 55 55 56 55 55 56 55

GFSGL_sfc_temp_018.txt.gz
Temp
84 83 82 83 82 82 81 81 77 77 77 77 74 73 77 79 79 79 77 75 75 74 74 75 75 77 82 83 80 77 74 73 69 74 76 75 71 68 66 66 65 65 64
84 83 82 83 84 82 81 81 79 76 77 76 75 74 73 73 75 75 74 73 72 72 72 73 73 74 75 75 74 74 73 73 72 66 67 66 63 62 61 61 61 62 62
85 84 83 84 83 80 80 79 79 77 77 77 76 74 74 72 70 68 68 67 64 66 67 67 68 71 68 68 66 66 68 68 67 65 65 65 61 61 59 59 59 59 60
86 86 83 84 83 81 78 77 79 78 78 77 77 75 75 75 74 74 71 68 66 64 64 64 63 64 64 64 63 64 65 65 64 63 63 62 61 61 61 59 57 58 57
85 85 84 84 84 81 76 76 77 76 76 76 75 76 77 76 75 73 72 71 68 65 61 61 62 62 62 62 63 62 64 63 63 63 62 62 60 60 59 59 56 55 55
85 84 85 83 82 78 75 75 76 74 73 73 73 75 75 75 58 62 69 70 68 67 64 63 63 60 59 60 60 60 61 64 62 61 58 56 56 59 60 59 56 55 53
82 83 83 81 80 76 76 76 75 71 70 70 71 73 72 69 58 59 65 73 71 70 68 67 68 68 63 66 62 62 61 61 63 65 59 57 58 57 61 60 57 56 55
75 76 79 78 77 72 75 74 72 70 68 69 70 72 71 65 56 57 63 73 72 72 72 72 70 69 68 71 70 68 66 66 68 71 66 64 62 62 62 61 59 57 55
73 70 71 68 74 70 72 70 73 69 67 68 72 71 70 66 54 55 66 73 71 70 71 70 71 68 56 57 70 67 66 65 58 57 56 56 56 57 61 73 67 62 61
69 69 68 65 69 68 71 69 71 69 69 70 70 70 60 67 51 54 63 75 70 71 69 66 53 61 51 53 70 69 65 66 68 68 68 64 65 62 61 67 72 69 70
65 62 60 59 61 63 64 67 66 68 67 68 64 58 60 60 60 51 54 75 74 71 66 63 60 50 49 50 55 67 63 64 64 69 70 71 71 70 70 69 68 70 70
61 59 57 56 55 56 57 60 63 61 63 64 64 62 60 59 51 49 50 54 60 65 58 60 59 47 46 49 58 50 52 58 73 72 70 69 68 69 68 68 65 66 67
57 56 55 55 54 54 53 55 53 54 53 51 51 49 50 52 52 48 49 52 54 60 65 56 50 47 48 54 52 53 53 72 71 69 67 67 68 67 68 67 66 65 65
56 54 53 53 53 53 53 53 52 52 50 50 50 50 52 54 54 56 58 56 54 57 56 62 58 56 54 61 62 66 69 69 68 67 67 68 70 69 67 70 69 71 70
58 58 56 55 51 48 45 47 49 49 51 53 53 53 51 54 56 51 54 63 60 57 57 66 68 68 67 67 67 68 69 69 67 68 67 67 67 68 66 69 68 69 66
61 61 58 55 53 53 51 49 45 44 43 42 45 50 50 45 42 42 42 43 46 48 64 68 68 69 69 69 67 66 66 64 66 67 66 66 66 66 67 68 68 67 65
63 64 64 64 64 61 58 55 51 46 43 41 41 41 43 43 41 41 41 43 45 48 67 69 68 68 68 68 68 68 66 65 64 66 66 65 66 65 64 66 67 67 66
66 56 70 71 70 70 70 70 70 67 64 61 45 48 41 41 41 41 42 43 63 60 70 68 68 68 67 66 67 67 64 64 65 66 66 66 67 66 66 66 66 64 66
70 71 71 71 71 68 71 71 71 69 68 65 63 53 49 42 41 42 44 63 70 70 70 68 67 67 66 66 65 64 63 63 63 64 65 66 66 65 65 66 64 51 53
69 59 66 71 71 71 72 71 70 68 67 67 67 68 66 60 62 64 65 68 69 70 70 69 67 67 66 65 63 63 61 61 62 63 65 66 66 64 65 64 65 63 64
72 70 59 74 73 73 73 72 72 72 70 70 69 64 46 67 70 68 69 68 68 69 69 68 68 67 65 63 64 63 64 65 65 65 65 64 65 63 64 63 63 64 65
74 74 75 76 74 74 75 75 74 74 74 72 70 64 46 65 69 69 69 69 70 68 69 67 67 69 68 67 65 64 65 65 65 65 64 64 64 63 63 63 63 64 64
75 76 75 76 75 66 71 73 73 72 72 72 72 70 67 67 68 69 69 69 69 69 70 67 66 67 68 68 67 66 66 66 66 66 64 64 63 63 63 62 63 63 63
77 77 76 76 77 75 75 74 74 62 70 72 72 71 71 70 69 67 69 70 69 69 68 68 67 67 68 67 68 68 68 67 67 66 64 63 63 59 61 62 63 62 63
75 74 74 72 74 74 74 74 74 74 73 72 72 72 72 71 70 71 71 70 70 69 68 69 68 68 67 66 67 68 50 42 56 43 65 63 62 61 61 62 62 63 62
75 77 75 73 68 72 69 69 72 72 72 73 71 70 71 70 72 71 70 70 70 70 70 70 70 68 68 68 67 57 39 36 50 37 59 63 61 61 61 61 61 62 61

GFSGL_sfc_temp_021.txt.gz
Temp
87 85 84 85 86 82 83 81 79 78 76 75 75 76 77 78 78 78 77 78 77 76 76 75 76 79 78 78 78 78 75 73 69 70 71 72 67 67 66 66 66 64 63
87 85 85 85 85 80 82 81 77 78 77 76 75 75 75 75 77 76 73 73 72 71 72 73 74 76 76 76 75 75 73 74 71 70 71 65 62 61 61 60 61 62 61
87 86 86 86 85 79 80 80 78 78 78 77 76 74 75 75 74 74 72 70 69 68 68 67 68 71 68 69 70 70 71 71 70 68 65 64 61 61 59 60 59 58 60
89 88 86 86 85 82 81 81 79 79 78 76 76 76 76 75 74 73 72 70 69 67 65 66 67 66 67 67 66 66 67 66 65 63 62 62 62 61 61 59 56 57 56
87 88 86 86 85 82 82 81 79 78 78 77 75 76 78 77 74 74 72 71 69 67 66 63 62 63 62 63 66 65 67 65 64 63 62 60 60 60 59 59 56 56 56
86 85 86 84 83 79 81 78 76 75 75 76 76 74 76 76 60 63 70 72 70 70 69 69 70 68 63 61 62 62 65 66 64 61 60 58 59 60 61 58 56 55 52
81 87 86 83 80 79 81 79 73 72 73 74 74 75 74 71 59 60 65 73 72 71 71 71 72 71 69 69 63 64 63 63 64 66 62 62 61 60 62 60 59 59 56
81 81 81 79 79 79 79 75 73 72 71 72 72 71 72 68 57 57 61 75 73 72 72 72 71 70 65 71 70 67 66 65 68 70 66 66 66 67 64 64 63 60 59
79 77 75 76 76 73 74 72 72 71 71 71 72 71 71 69 56 58 63 75 72 71 69 65 71 69 56 58 70 67 66 65 59 57 58 58 58 58 62 69 69 67 65
74 73 71 69 70 70 70 69 70 69 71 71 71 70 63 69 52 54 60 75 72 72 70 67 54 58 53 55 70 69 67 68 69 68 66 63 66 64 63 69 72 68 65
69 68 65 61 60 65 66 67 67 70 69 70 67 67 65 55 57 52 54 74 71 72 71 67 64 52 50 52 57 69 65 66 64 70 72 72 72 71 70 69 68 70 67
65 63 61 59 57 58 59 60 60 65 66 66 64 67 64 60 50 50 51 53 62 69 66 66 59 49 49 49 60 52 53 57 72 73 71 70 70 70 68 68 66 66 67
62 60 58 57 55 55 55 56 54 55 59 58 51 51 51 51 53 50 50 53 54 66 67 56 51 48 50 56 54 55 54 71 72 71 69 68 68 68 67 67 67 66 66
61 58 56 54 53 53 53 54 53 52 52 50 50 53 52 54 54 57 58 60 55 56 55 60 58 57 53 60 62 66 71 71 70 69 69 70 71 70 68 70 68 69 68
64 62 60 57 53 49 47 49 51 49 51 53 54 55 55 54 53 47 53 60 64 59 58 58 57 69 70 70 70 70 70 70 69 69 69 69 68 68 67 68 67 68 66
65 66 63 62 61 59 56 52 45 45 44 43 44 50 50 46 44 44 44 47 47 49 60 65 70 70 70 70 69 69 69 65 68 68 67 67 66 65 66 67 67 66 64
65 66 66 66 67 65 63 60 54 48 43 41 41 42 44 44 42 42 42 44 48 49 65 71 70 69 69 69 68 68 68 66 63 66 66 65 65 65 61 64 65 65 65
70 59 74 75 75 74 74 73 71 68 64 60 45 51 42 43 42 42 42 45 64 59 66 71 69 69 68 67 67 67 67 65 65 65 65 65 64 64 64 65 65 63 64
74 75 76 76 75 72 75 75 75 72 71 67 63 53 49 43 42 43 44 62 66 72 72 71 69 68 66 67 66 65 63 64 63 63 62 64 65 64 65 65 65 52 55
72 65 69 75 75 76 76 75 73 71 71 71 70 69 67 60 63 65 66 67 70 71 72 70 70 67 67 65 64 64 64 62 62 63 63 65 64 65 64 65 65 64 63
75 74 60 78 77 77 76 75 74 74 74 74 73 63 47 68 71 71 71 71 70 71 71 70 69 69 67 65 64 64 64 65 65 64 65 65 64 64 65 64 65 65 65
76 76 79 78 76 76 76 77 77 76 76 76 73 66 51 68 71 73 72 72 72 72 71 69 69 69 70 67 66 64 64 64 65 65 65 65 65 65 65 64 64 65 65
78 78 77 77 77 66 73 76 77 76 76 76 76 74 70 70 71 72 72 73 72 71 71 69 67 67 69 68 68 67 66 65 67 68 66 65 65 64 64 63 64 64 64
78 78 76 75 71 75 76 76 74 63 74 75 76 75 75 74 74 73 72 72 72 72 70 70 69 69 69 69 69 69 69 68 68 67 66 65 64 62 64 63 63 64 65
73 73 71 70 68 72 70 75 72 73 73 69 70 69 71 72 73 74 74 73 72 71 71 71 70 70 69 68 68 69 54 42 60 44 64 64 63 62 63 64 63 64 64
75 71 73 73 74 74 73 72 71 71 71 73 73 73 73 73 73 73 71 69 70 71 71 70 70 70 70 70 69 59 40 37 53 42 61 63 62 63 63 62 62 62 63

GFSGL_sfc_temp_024.txt.gz
Temp
83 83 82 83 79 80 75 77 76 75 75 74 73 73 73 72 74 73 73 74 73 72 72 72 72 73 72 72 73 72 71 70 67 68 69 66 63 63 63 63 63 62 62
83 83 83 82 80 79 76 77 77 75 75 74 73 74 74 73 72 72 71 71 70 69 68 70 70 71 70 70 71 70 70 70 68 66 67 61 61 62 61 59 60 61 60
83 83 83 82 79 78 77 77 77 74 75 75 74 74 72 71 70 70 70 68 67 67 67 66 66 68 66 67 69 70 70 69 69 67 62 62 60 60 59 59 58 58 60
85 84 83 79 79 79 79 77 77 76 74 75 74 73 73 73 70 70 69 68 67 66 65 64 65 65 66 66 67 66 66 66 65 63 61 61 60 61 60 57 55 57 56
86 85 82 78 77 80 78 77 76 75 75 75 75 75 74 72 69 68 69 68 67 66 66 65 63 63 63 64 66 65 66 65 63 61 59 59 59 59 58 57 55 55 55
85 86 82 77 77 76 77 75 75 73 74 75 74 73 71 70 60 62 67 68 67 66 66 67 66 65 63 63 63 63 64 65 62 61 60 59 59 59 59 57 55 55 53
84 81 77 81 78 75 76 72 73 72 73 73 72 71 69 66 59 60 63 69 68 68 68 68 69 68 66 66 64 64 63 63 64 64 61 61 60 60 60 58 58 58 55
76 77 76 75 77 77 75 72 72 72 71 71 70 70 67 63 58 57 60 69 68 66 65 68 66 63 60 65 63 60 59 59 61 64 61 61 59 63 62 62 60 57 58
74 74 74 70 70 75 69 69 70 70 69 70 70 70 67 63 56 55 62 69 67 66 64 59 66 63 57 57 64 61 59 59 58 58 58 58 59 60 60 63 59 58 58
71 67 67 65 63 69 70 68 69 70 68 70 68 66 61 62 53 53 58 71 67 66 64 61 55 55 54 55 67 65 62 63 63 61 60 59 63 61 62 61 61 59 59
66 65 63 61 59 62 65 65 67 67 67 66 66 64 61 55 57 52 54 65 68 67 65 62 60 52 50 51 56 60 57 60 63 63 62 62 62 61 61 61 59 59 57
63 61 59 58 57 58 59 59 60 63 62 62 62 60 57 56 51 51 51 53 61 64 62 61 57 50 50 51 57 52 54 55 61 63 61 59 59 59 59 60 59 59 59
60 58 57 56 55 55 55 55 55 55 55 54 52 53 51 52 52 51 50 53 56 62 60 54 52 50 50 55 55 56 55 60 62 61 59 59 58 59 60 60 60 60 60
59 58 57 55 54 54 54 53 53 53 52 51 51 51 52 54 57 58 56 56 55 57 56 57 56 56 55 59 58 61 62 60 59 59 59 60 61 59 59 59 58 58 57
62 61 59 59 56 52 49 50 52 50 52 53 53 54 53 54 54 48 51 60 60 56 58 58 55 55 57 61 62 63 62 61 60 60 59 58 58 58 57 58 57 58 56
64 64 64 62 61 60 56 52 46 45 44 43 45 50 49 46 44 44 45 47 48 49 57 58 58 62 63 62 62 61 61 60 59 59 58 57 56 56 55 57 57 56 55
65 65 65 65 64 62 61 59 54 50 43 42 42 42 43 44 43 43 44 44 48 50 57 61 63 62 62 62 61 61 60 58 58 58 57 57 57 57 55 55 56 56 55
69 61 72 72 71 69 67 66 64 61 59 57 46 50 44 44 44 44 44 47 59 54 58 62 63 62 61 61 60 60 60 58 58 57 57 57 57 56 55 55 56 55 53
72 73 73 73 72 70 73 73 72 70 65 61 58 50 48 43 43 44 44 56 60 63 66 65 63 62 61 61 60 58 57 57 55 56 56 56 57 57 55 57 55 52 51
70 66 69 72 73 74 74 73 70 68 68 67 65 64 61 56 59 60 59 61 64 67 67 66 65 62 62 60 59 58 58 57 56 56 56 56 57 57 56 56 57 55 54
73 73 66 76 75 75 73 72 71 72 70 70 66 59 55 64 66 66 66 65 67 68 67 66 67 65 62 61 59 58 59 58 58 57 57 57 57 57 56 57 56 57 57
75 74 76 75 74 74 73 74 73 73 73 72 68 61 52 66 67 68 69 70 70 69 69 66 66 66 66 63 59 58 59 58 57 58 58 58 58 58 57 57 57 56 56
76 76 75 75 75 67 72 72 68 73 71 71 71 66 65 68 68 68 69 71 70 70 69 67 66 65 65 63 63 62 61 60 60 60 59 58 57 57 57 56 56 56 56
77 76 72 66 67 72 70 72 73 64 71 73 72 68 67 66 70 70 70 70 70 70 68 66 66 67 66 65 64 65 63 62 62 61 60 57 57 56 57 56 57 57 57
73 71 70 67 69 68 70 72 70 68 66 72 72 71 68 66 66 69 69 70 68 67 67 68 67 67 67 66 66 66 55 45 58 50 59 58 56 55 57 57 57 57 57
67 68 66 67 67 70 67 67 66 68 70 69 69 66 70 71 72 72 69 67 67 66 64 65 63 61 61 65 60 51 44 40 49 42 59 58 57 56 57 57 57 57 57

GFSGL_sfc_temp_027.txt.gz
Temp
74 73 73 73 73 71 69 69 72 69 71 72 71 71 70 68 68 67 67 67 66 66 68 68 68 68 67 67 67 67 66 66 63 65 65 64 63 62 61 62 62 61 61
76 74 73 73 72 69 69 69 72 72 71 72 69 69 68 69 67 66 65 65 65 64 65 66 66 67 65 65 66 66 65 65 63 62 63 60 60 59 59 59 60 60 60
76 74 75 72 70 69 69 70 73 72 68 68 68 66 65 68 68 68 66 64 64 64 63 63 63 65 63 65 64 64 64 64 64 63 61 61 59 59 57 58 57 58 59
76 75 74 72 71 70 70 69 70 72 68 67 66 66 64 65 68 68 67 64 64 61 60 60 59 60 63 63 62 62 62 62 61 61 60 59 59 60 59 56 54 56 55
78 77 72 72 74 73 69 69 68 71 69 67 66 64 64 64 66 67 67 65 63 61 59 59 59 63 64 63 60 60 61 60 59 58 59 58 58 58 57 56 54 54 55
76 76 72 71 70 68 68 68 68 71 69 66 63 63 61 64 59 62 66 66 65 64 60 59 59 61 62 63 62 62 62 59 58 57 58 57 57 58 57 56 54 54 52
73 72 71 71 70 70 68 68 68 68 69 64 62 61 59 57 58 59 64 63 64 65 64 59 61 62 59 57 59 59 60 61 61 62 56 58 58 59 58 56 57 54 53
68 68 67 67 67 69 68 68 66 67 68 68 63 59 56 56 56 56 62 61 58 57 57 59 56 55 55 57 55 54 53 54 55 58 55 54 55 57 57 56 54 52 52
64 63 63 63 63 66 68 67 66 66 67 67 65 61 55 53 54 54 59 59 57 55 55 54 55 54 56 58 56 54 53 54 57 57 57 58 59 59 58 57 53 51 50
61 61 59 59 61 66 67 67 66 66 65 64 61 57 57 52 52 52 56 59 56 55 54 53 56 53 53 54 56 54 52 52 54 54 54 55 56 56 58 52 50 50 50
59 58 58 58 58 61 63 65 65 64 62 62 59 54 52 52 53 51 52 61 58 55 54 52 51 52 51 51 52 53 51 52 55 53 53 52 51 51 51 51 51 51 48
57 57 56 56 56 58 58 59 61 61 60 59 56 52 52 52 51 51 51 54 58 58 54 55 52 50 49 52 52 53 54 54 50 50 50 49 49 49 50 51 51 51 50
57 55 54 54 54 55 55 56 56 56 55 53 52 50 50 51 53 51 50 52 55 56 56 54 53 52 51 53 55 55 54 52 51 50 48 48 50 50 50 52 52 52 51
56 54 54 53 52 54 53 53 53 53 52 52 51 50 51 52 53 54 54 54 55 56 56 56 55 53 53 54 55 54 52 50 50 49 48 49 49 49 48 48 49 49 48
56 54 52 50 48 48 47 48 50 48 51 52 52 53 52 51 50 47 48 53 54 50 54 55 51 48 48 49 50 50 51 51 50 48 48 48 48 48 49 50 49 47 47
55 54 53 51 50 49 47 46 46 45 44 43 45 50 49 46 45 45 45 46 49 50 50 48 47 47 48 48 48 49 48 50 48 49 47 47 47 47 48 50 50 48 48
55 55 54 54 52 50 49 46 44 44 44 43 42 43 45 45 44 43 43 44 48 48 45 46 48 48 49 49 49 47 47 48 49 48 48 48 49 49 49 50 50 50 49
57 57 56 56 55 53 52 51 48 46 44 43 43 44 43 44 44 43 43 46 47 46 44 46 48 50 49 49 48 48 47 48 47 48 49 50 51 50 50 49 50 49 48
58 57 57 57 56 56 56 55 53 52 48 46 43 44 43 43 43 43 43 45 46 47 49 48 50 50 50 49 48 47 47 47 47 48 48 49 49 49 49 50 49 50 49
59 61 59 59 57 57 57 57 55 52 50 48 47 47 45 44 45 46 46 47 47 49 50 51 50 50 50 49 48 48 47 47 48 48 49 49 49 49 50 49 49 48 47
59 60 61 57 59 59 59 58 56 55 54 53 54 52 48 48 49 49 50 50 50 51 52 53 52 50 50 49 48 48 48 49 48 48 47 48 49 48 49 49 50 50 49
60 60 60 61 61 59 58 58 58 60 57 54 52 51 47 50 52 53 52 54 55 54 54 54 53 52 52 51 50 50 49 48 48 49 49 50 50 50 50 49 49 49 49
61 61 61 61 60 59 59 59 61 62 61 59 58 53 51 52 53 54 55 56 55 55 54 54 54 53 53 53 52 50 50 50 51 51 50 50 49 49 49 48 49 48 48
63 63 62 62 63 63 62 62 62 56 59 59 57 55 55 56 58 57 58 58 57 58 57 57 54 55 54 53 53 53 52 52 51 51 51 49 48 47 47 47 47 48 47
62 61 61 60 61 62 61 58 60 58 59 59 59 58 60 57 57 58 57 59 56 58 56 56 52 49 45 44 43 43 38 35 46 48 49 49 49 48 47 45 46 46 47
60 61 60 60 58 59 59 57 58 58 58 59 58 57 56 56 56 55 54 54 54 52 49 46 42 41 41 40 38 36 34 33 38 35 43 48 47 46 46 47 47 46 46

GFSGL_sfc_temp_030.txt.gz
Temp
70 70 70 68 68 68 66 67 67 67 70 70 69 66 65 65 64 64 64 64 63 63 64 65 65 65 65 66 66 66 65 65 61 62 63 63 61 60 60 61 61 60 61
72 70 70 69 68 67 66 67 71 67 66 68 65 64 65 64 63 65 65 64 62 61 61 62 63 65 63 64 65 64 64 64 63 60 60 60 59 59 59 59 59 60 60
72 71 69 68 67 67 66 67 69 66 65 65 65 63 63 64 63 62 61 61 60 59 59 59 60 62 62 61 62 62 62 62 63 62 59 60 58 58 57 57 58 57 59
74 71 69 69 68 66 67 67 67 66 65 64 63 62 62 63 63 62 61 60 59 58 58 58 59 62 62 60 61 61 60 61 62 60 59 58 58 58 57 55 54 56 54
74 72 71 69 68 66 66 66 66 66 65 63 61 61 60 62 63 62 62 60 59 58 57 59 60 63 63 62 59 59 59 58 59 59 58 59 58 56 56 56 54 54 54
73 71 70 69 68 66 66 66 66 65 63 61 60 59 58 62 59 62 63 63 60 58 57 57 58 59 59 61 61 62 61 57 56 59 58 57 57 57 56 55 53 52 51
70 69 69 68 68 66 66 66 67 65 63 60 59 57 55 55 57 60 62 58 57 58 55 55 58 59 56 55 58 59 59 61 61 59 55 55 57 58 57 55 55 56 53
65 65 65 66 67 66 66 66 66 66 65 59 59 55 54 55 55 58 60 57 55 55 55 54 53 54 55 55 54 53 52 53 54 57 53 56 58 58 56 55 53 50 51
62 62 62 62 63 67 67 65 65 65 66 63 60 56 53 53 52 54 57 55 54 53 53 53 54 53 56 57 55 53 52 52 57 56 57 56 57 56 57 56 52 51 48
59 59 59 61 62 66 66 64 65 65 62 61 58 55 54 52 51 51 57 56 53 52 51 51 56 53 52 55 54 52 51 50 51 52 52 53 53 53 56 51 49 50 53
57 56 57 58 59 62 65 65 63 61 60 58 55 54 52 51 55 50 53 60 59 53 51 50 50 51 50 50 52 52 51 50 52 50 50 49 49 48 49 48 48 49 46
57 57 55 56 56 58 60 62 61 60 57 55 53 51 52 53 51 50 50 55 56 54 54 50 50 49 48 50 53 51 50 51 48 48 47 47 47 46 48 49 48 48 48
55 55 54 54 54 55 56 57 56 56 55 53 51 50 51 52 52 51 50 52 54 56 56 54 52 49 50 53 52 52 51 49 48 47 45 45 46 47 47 49 49 48 48
55 54 54 53 52 53 53 54 54 54 53 52 51 51 51 52 53 54 54 55 54 52 56 55 52 52 51 52 51 50 49 48 48 46 45 45 45 46 46 45 46 47 46
54 53 51 50 50 49 47 49 50 49 52 52 52 53 52 51 50 47 49 53 53 52 53 53 51 47 47 47 47 47 46 47 48 45 45 45 45 45 45 44 45 44 45
50 49 48 47 47 47 48 46 47 45 44 44 47 49 49 47 44 44 44 44 46 48 52 48 45 44 46 45 46 45 45 48 45 45 44 44 44 45 45 45 45 46 47
52 50 49 49 47 46 45 45 44 44 44 43 43 44 46 45 44 43 43 44 46 47 44 43 43 45 45 44 45 45 45 44 43 44 44 45 45 47 47 47 47 48 48
53 52 51 50 49 47 47 45 44 43 43 43 43 42 41 42 43 42 43 45 45 45 43 44 45 45 45 46 45 45 44 44 44 44 44 45 45 45 46 46 46 47 47
54 53 52 52 50 50 49 47 46 45 44 43 41 43 42 42 42 42 42 43 45 45 45 44 45 46 46 46 45 45 44 44 44 43 44 44 45 44 45 45 46 48 47
55 56 54 50 51 50 51 50 49 48 45 44 43 44 43 42 43 44 44 45 45 44 46 47 47 47 47 47 45 44 45 45 44 43 45 45 45 45 45 46 46 45 45
55 55 59 55 54 53 55 51 52 49 48 47 47 47 45 46 47 46 47 47 47 47 48 47 48 48 47 46 45 45 45 46 45 45 45 45 44 45 46 45 46 47 46
56 58 57 55 56 55 55 54 53 52 51 50 48 48 43 46 47 48 48 49 50 50 50 49 49 49 49 49 48 47 46 46 45 45 44 45 45 45 45 46 46 45 46
57 58 60 59 59 56 56 56 54 54 55 54 52 51 50 48 47 48 50 50 52 51 51 52 54 50 48 48 47 46 45 46 47 47 46 46 46 45 45 45 46 45 45
60 60 58 56 57 59 57 58 54 53 55 54 53 52 50 52 51 51 52 54 56 52 49 49 43 41 41 40 40 39 39 36 41 47 47 45 45 45 45 44 45 45 45
57 56 56 55 54 55 57 57 57 53 53 53 54 53 51 50 50 50 50 49 47 44 42 41 41 40 39 38 38 36 34 32 35 35 41 45 45 45 45 44 44 44 43
55 55 53 53 56 56 55 57 56 56 54 54 51 50 49 47 47 47 47 47 46 43 40 39 38 38 38 37 36 35 33 32 34 33 35 40 43 45 47 46 44 45 45

GFSGL_sfc_temp_033.txt.gz
Temp
70 69 67 66 66 66 66 65 65 64 65 64 64 64 63 63 63 62 62 62 62 61 63 63 63 64 64 65 66 66 66 65 62 62 63 62 60 60 60 61 61 60 61
70 70 68 67 66 65 65 65 65 64 64 63 63 63 63 62 62 64 61 60 60 59 60 61 61 64 62 63 63 63 65 65 63 60 60 59 58 59 59 58 59 60 59
69 68 67 67 66 65 65 65 64 64 63 63 62 62 62 61 60 60 59 58 58 58 58 59 60 62 62 61 60 60 60 62 62 60 58 59 58 58 57 57 57 56 58
69 68 67 66 65 65 65 65 64 64 63 61 61 61 61 61 61 60 59 57 57 57 58 60 61 59 58 59 59 59 61 62 61 59 58 57 57 57 57 55 54 55 54
69 68 67 65 66 66 65 65 64 64 62 61 60 59 59 61 61 60 59 57 56 56 56 57 58 62 63 62 59 58 58 60 60 59 58 57 57 56 55 55 53 54 54
71 69 68 66 66 66 65 64 63 62 60 60 58 58 57 60 58 61 61 58 57 56 54 54 56 58 58 61 61 62 60 57 59 59 58 57 57 57 56 54 53 53 52
70 69 68 67 66 65 65 65 64 63 62 59 57 56 55 54 57 59 61 57 56 54 53 54 56 57 55 54 58 58 59 60 60 59 55 57 57 58 56 54 54 55 53
66 66 67 67 66 65 65 65 64 64 62 59 56 56 54 54 55 57 59 55 54 54 53 52 52 53 54 54 53 52 51 52 53 55 56 57 59 59 58 57 56 52 51
62 62 62 64 65 66 65 65 64 63 61 60 58 57 54 53 52 55 56 53 52 51 52 52 53 53 57 56 54 51 50 51 56 56 56 56 56 56 55 53 51 50 50
60 60 61 61 62 65 66 65 64 63 60 59 57 56 55 53 51 51 55 54 52 51 50 51 55 52 53 54 53 51 50 49 50 52 51 51 51 51 55 49 53 52 52
58 58 59 59 60 64 65 64 61 59 57 55 55 54 54 51 54 49 53 59 56 54 50 50 50 51 49 50 52 51 51 50 52 49 48 47 47 47 46 46 45 48 46
56 56 57 58 57 60 63 61 60 57 54 53 53 51 52 52 50 49 50 54 56 56 52 52 51 49 49 50 51 50 50 51 46 46 46 45 45 46 46 46 47 46 46
56 55 56 55 55 56 59 59 57 56 54 53 52 51 51 51 51 50 49 52 54 55 55 53 51 48 49 50 50 50 50 47 46 45 44 44 43 44 45 47 47 47 46
56 56 54 54 53 54 54 55 55 54 53 52 51 51 51 51 53 53 52 54 54 54 55 52 53 52 51 50 49 48 46 45 46 45 43 43 43 43 43 43 44 45 45
55 54 52 52 51 49 48 50 51 50 53 53 52 52 51 50 51 47 49 52 53 52 53 50 53 51 48 46 45 46 45 45 45 43 43 43 43 43 43 42 42 42 43
50 49 49 50 49 50 48 45 47 45 44 46 47 49 49 47 44 44 44 45 46 48 51 45 44 44 45 44 44 43 43 46 43 43 42 42 43 43 43 42 41 42 43
48 47 47 47 46 45 45 45 45 45 44 42 43 44 44 45 43 43 43 44 43 47 49 43 43 43 44 44 43 43 44 42 41 42 42 42 43 43 43 43 43 42 42
50 50 47 47 46 45 45 44 44 44 44 43 43 42 42 42 42 42 42 44 45 45 42 43 44 44 43 43 43 43 43 42 42 41 42 42 42 42 43 43 42 41 41
51 50 49 48 47 47 46 45 44 44 43 42 41 43 42 41 41 41 41 43 44 43 43 43 44 44 44 44 43 43 42 43 42 41 41 41 41 41 42 42 42 46 44
52 54 51 49 48 48 47 46 45 45 43 43 43 43 42 42 43 43 43 43 43 44 44 44 45 45 45 45 44 42 42 43 42 42 42 42 41 41 42 43 42 42 42
53 54 54 51 52 50 50 49 48 47 46 45 46 46 44 45 45 45 45 45 45 45 46 46 45 45 45 44 44 43 43 44 43 43 42 43 42 42 42 42 42 42 42
53 52 55 55 52 50 50 50 51 52 50 50 47 47 42 44 45 45 45 46 47 47 46 47 46 44 45 44 44 43 43 43 43 43 43 42 42 43 42 42 43 42 42
54 57 58 54 54 53 52 51 51 51 52 50 49 48 46 44 45 46 47 48 47 46 45 45 44 41 40 40 39 38 37 36 37 39 41 42 42 43 42 42 43 42 42
59 59 56 54 53 52 52 53 51 49 51 50 49 48 47 47 50 47 45 44 43 42 41 40 39 38 37 36 36 35 34 34 35 36 38 39 40 41 41 41 43 43 41
54 54 53 52 52 51 52 51 50 49 49 53 52 50 49 48 47 45 43 42 40 39 38 38 37 37 37 36 35 34 32 31 34 34 36 38 39 40 40 41 41 43 44
53 53 52 51 52 52 52 54 50 50 52 51 50 49 48 46 45 41 41 41 39 38 37 35 36 36 36 35 35 34 32 31 33 32 35 36 37 37 37 38 40 41 42

GFSGL_sfc_temp_036.txt.gz
Temp
70 69 68 68 67 67 67 67 66 66 66 65 65 65 65 65 65 64 64 64 64 64 65 65 65 66 66 67 69 69 68 67 62 62 62 61 60 60 60 61 62 62 62
70 69 68 68 68 67 67 67 66 65 65 65 65 64 64 64 63 63 62 62 61 62 63 64 63 65 64 65 66 66 68 67 63 60 60 58 58 59 59 58 59 60 59
70 69 68 67 67 67 67 66 66 65 65 65 65 64 63 63 63 62 61 61 61 61 63 63 63 64 63 63 63 63 65 65 65 62 59 59 58 58 57 57 56 56 58
70 69 68 67 67 67 67 66 66 66 64 63 63 64 64 64 63 62 61 61 61 60 60 61 61 62 62 63 62 62 63 62 61 60 58 58 57 58 58 56 53 54 54
70 70 68 67 67 67 67 67 66 65 64 63 62 62 63 64 64 63 62 61 60 60 59 60 62 63 63 63 63 62 63 61 60 59 58 58 56 56 56 56 54 54 55
70 70 68 67 67 66 67 66 65 64 63 62 61 61 61 63 59 61 62 61 60 58 57 58 59 60 60 61 61 61 62 63 61 60 59 58 58 58 56 55 53 53 53
70 69 69 67 67 66 66 65 64 63 63 60 59 60 59 60 58 59 61 60 59 58 58 58 60 60 58 59 59 59 59 59 61 63 60 59 59 59 58 56 56 56 55
68 69 68 68 67 66 65 64 64 64 62 60 58 58 58 57 56 56 58 59 58 57 57 58 58 58 58 58 58 57 57 58 59 62 60 59 61 61 60 60 58 54 55
64 65 65 67 66 66 65 64 64 63 61 60 59 59 58 56 53 54 58 58 57 56 56 58 59 59 56 56 58 57 57 58 58 56 56 55 55 56 58 62 58 58 56
62 62 63 64 65 65 66 65 64 62 59 59 57 57 56 56 50 53 57 59 57 57 56 56 55 56 53 53 59 58 57 57 59 60 58 57 56 56 55 57 60 58 58
60 61 60 61 62 64 65 64 62 59 57 57 56 56 54 53 53 51 53 61 59 58 57 56 56 51 49 49 52 58 57 58 57 58 58 58 58 58 58 57 55 58 58
59 59 59 59 60 62 63 61 58 57 55 54 55 53 54 55 50 49 52 54 57 59 55 56 56 49 47 48 53 48 49 53 57 58 58 57 58 58 58 57 56 56 58
59 58 57 57 56 58 61 59 57 56 54 54 54 52 52 53 53 49 49 51 54 55 56 53 50 48 49 52 49 49 51 56 56 57 57 57 56 55 54 56 57 56 56
57 56 55 55 55 56 56 57 57 56 54 53 53 52 52 53 55 55 55 56 54 55 55 56 54 53 51 52 56 55 56 56 56 56 56 56 55 56 56 55 56 56 58
57 56 54 54 53 50 48 50 53 51 54 54 53 53 51 52 52 48 51 52 53 53 54 54 55 56 57 56 56 55 55 56 56 54 55 55 56 55 55 55 55 55 55
54 53 52 52 52 51 51 49 47 45 44 45 47 51 53 47 44 44 44 45 45 47 54 53 54 55 56 56 56 56 55 54 55 55 54 54 54 54 55 55 55 54 54
53 51 51 51 51 50 50 51 50 49 44 42 42 44 45 45 43 43 43 43 43 47 55 53 54 55 55 55 56 56 56 55 51 54 54 54 54 55 54 55 55 54 55
52 49 51 50 50 50 50 50 51 51 51 50 45 45 41 42 42 42 43 46 55 53 54 55 55 55 55 55 55 55 55 54 55 54 55 54 54 54 54 55 55 53 54
53 52 52 52 51 50 51 51 52 51 51 50 50 47 45 41 42 41 42 53 55 55 54 54 54 54 55 55 55 54 53 54 54 54 54 54 54 54 54 54 55 47 50
55 53 52 53 52 52 52 53 52 52 52 52 52 53 51 50 52 53 52 53 54 55 55 55 56 55 55 54 54 54 54 53 54 54 54 54 54 54 54 54 55 55 55
57 57 55 55 55 55 55 55 55 54 54 54 54 52 45 54 54 54 54 54 54 56 56 56 57 56 55 54 54 54 54 55 54 54 54 54 54 54 55 54 54 55 55
58 57 57 57 57 57 57 57 56 56 56 56 56 53 42 54 55 55 55 55 57 55 56 55 57 55 54 52 51 53 53 52 51 50 51 52 53 54 54 54 55 55 56
56 57 57 57 58 54 56 57 57 57 57 57 56 56 53 54 54 54 54 55 51 50 50 51 50 47 46 45 44 45 46 45 45 46 47 50 51 52 52 53 54 54 54
59 60 60 59 58 58 58 58 58 52 58 58 56 54 54 53 54 51 50 47 48 47 47 46 46 45 44 44 44 44 43 41 44 45 45 48 49 48 50 50 52 52 52
61 60 59 58 57 58 57 57 56 55 56 56 55 53 51 49 48 49 47 46 45 45 44 44 44 43 43 43 42 42 35 32 39 36 46 46 46 45 46 47 48 49 50
58 58 57 57 56 56 56 55 56 53 53 54 52 50 49 48 48 48 47 46 45 44 43 43 43 43 42 42 41 35 32 31 36 32 43 44 43 43 43 44 45 46 47

GFSGL_sfc_temp_039.txt.gz
Temp
71 77 76 77 76 76 75 75 75 74 74 73 73 73 73 72 73 73 72 73 72 72 73 71 70 72 72 74 74 75 69 68 63 62 62 62 61 61 61 64 64 64 64
71 77 77 77 77 76 75 75 75 73 74 73 73 72 72 72 72 72 71 71 71 71 71 69 68 71 68 72 72 69 70 72 66 61 60 59 59 59 60 59 60 62 61
78 79 77 77 76 75 75 74 74 74 73 74 73 72 72 72 71 71 71 71 70 69 70 69 68 72 69 67 68 69 68 68 70 64 60 59 59 59 58 58 57 57 60
79 80 77 77 76 76 75 75 74 74 73 73 73 72 72 72 72 71 71 70 69 69 69 68 67 67 70 69 68 67 66 66 64 61 59 58 58 58 59 57 55 56 54
79 79 78 77 76 75 75 74 74 73 72 72 71 72 72 73 74 72 71 70 69 69 68 70 68 66 63 64 73 70 70 67 63 61 59 58 57 57 57 57 55 56 57
79 78 78 76 75 73 74 73 73 72 72 71 71 72 72 74 60 62 69 70 69 68 67 68 69 68 64 60 61 61 64 70 67 66 62 60 61 59 58 56 55 57 56
77 78 76 75 74 73 73 72 72 71 67 65 69 71 71 70 58 59 64 70 69 68 67 68 70 69 68 70 63 63 62 62 64 69 65 64 63 64 64 59 61 58 57
75 76 75 72 73 73 70 70 69 70 66 64 64 67 69 66 56 57 61 69 68 67 67 68 67 66 64 68 68 68 67 67 68 71 68 67 68 68 67 67 64 58 61
73 70 67 70 72 70 68 69 68 69 68 66 67 65 64 62 54 55 64 69 67 65 66 65 68 67 56 58 68 66 66 67 58 55 55 55 55 55 59 70 69 64 65
68 66 67 68 69 68 69 69 70 66 67 63 60 62 58 60 51 52 62 70 66 67 65 64 54 62 53 55 67 67 66 66 68 68 68 64 64 61 60 66 69 67 68
67 67 68 68 69 68 68 68 67 65 66 61 59 60 62 56 57 51 53 65 67 67 67 65 66 51 50 50 54 67 64 66 63 69 70 70 70 69 70 68 65 68 67
62 63 65 64 66 68 67 64 62 61 60 62 58 57 61 60 50 51 52 55 56 62 61 61 57 48 47 49 59 48 50 57 70 70 71 69 69 69 69 68 65 66 68
62 62 61 60 61 63 62 60 59 60 57 59 57 58 58 56 61 49 50 51 54 61 66 56 50 48 48 54 49 50 55 70 70 69 68 68 68 68 66 68 68 66 65
61 60 61 60 59 59 60 61 59 62 57 57 56 56 55 59 61 61 62 62 55 60 57 62 56 56 53 59 64 66 69 68 67 67 67 68 69 68 68 68 67 68 67
59 59 60 59 57 53 50 53 57 56 59 58 57 59 57 59 58 53 55 61 63 54 59 63 64 67 70 70 69 68 69 68 67 67 67 66 67 67 66 67 66 66 64
60 61 61 59 57 55 53 50 46 46 45 45 48 55 59 50 44 44 44 45 46 48 64 67 67 68 68 68 68 68 68 65 66 66 66 66 65 65 65 66 66 65 63
60 59 59 57 57 57 58 58 55 50 43 42 42 44 46 46 43 43 43 43 45 50 68 68 67 68 68 68 68 68 67 66 64 66 66 65 65 65 64 64 64 64 64
63 53 60 61 65 66 66 66 66 64 63 61 45 48 41 42 42 43 43 46 63 61 69 68 68 68 69 69 69 69 69 68 68 66 66 66 65 64 64 64 64 63 63
64 64 65 66 66 64 66 66 67 66 65 63 61 52 48 42 42 42 44 67 68 68 69 69 69 69 69 69 68 67 65 67 65 65 66 65 65 65 64 65 65 52 55
65 59 61 66 65 65 64 67 66 66 65 65 66 66 63 57 63 64 66 66 68 70 70 70 70 69 69 68 67 67 67 66 66 66 66 66 65 65 64 64 65 64 64
68 65 61 67 68 66 69 67 69 68 68 67 67 65 52 68 68 68 68 67 69 70 70 70 72 71 69 67 67 67 67 68 67 66 66 65 65 64 65 65 65 65 65
68 67 66 65 68 68 69 70 70 70 70 69 69 64 43 66 70 69 68 69 70 69 70 68 70 71 71 68 65 65 63 65 64 61 57 61 63 64 64 64 64 65 64
70 64 68 68 68 64 67 70 70 70 70 71 70 68 59 65 67 68 67 68 66 67 63 62 65 64 59 60 60 60 62 61 59 58 56 54 60 62 62 62 63 62 63
69 67 70 69 68 67 69 70 71 60 70 70 66 63 63 64 67 61 58 56 60 61 61 61 61 60 57 58 58 58 57 54 57 58 55 58 59 57 59 59 60 60 59
65 69 70 70 65 70 71 70 70 70 67 64 66 68 67 65 61 53 51 54 58 58 57 57 57 55 54 53 53 52 36 32 45 35 57 55 55 54 55 56 56 56 57
66 68 68 64 67 69 70 71 65 62 64 57 59 63 61 58 53 54 57 59 59 58 56 57 55 53 52 53 49 36 33 31 40 32 50 55 54 54 53 53 52 54 54

GFSGL_sfc_temp_042.txt.gz
Temp
73 84 83 83 82 81 81 80 80 80 79 79 77 78 78 78 77 77 78 77 74 73 75 75 74 76 77 77 75 76 75 74 66 61 62 62 62 62 64 66 67 67 66
72 83 83 82 83 81 81 80 80 78 79 79 79 79 79 79 79 78 78 77 74 72 73 74 76 79 77 75 76 73 73 74 70 59 60 59 59 60 61 61 63 64 63
80 84 84 83 82 81 80 80 80 79 79 80 79 78 78 78 78 78 77 77 76 73 72 72 71 73 71 72 72 72 71 70 71 63 59 60 59 60 59 59 59 59 62
85 84 82 82 82 82 81 80 80 80 79 79 79 78 78 79 78 78 77 76 76 76 74 74 74 73 71 73 73 73 72 70 65 63 59 58 59 59 59 58 58 61 59
84 84 81 81 81 82 80 80 80 80 79 79 78 79 79 80 79 77 77 76 75 75 75 75 72 67 63 64 78 72 72 72 66 62 59 58 57 57 58 58 58 58 57
85 82 82 80 80 79 79 77 79 79 78 78 78 79 78 79 60 63 72 76 75 74 73 74 75 72 66 62 63 63 65 72 71 70 65 63 62 61 61 64 61 61 60
84 84 81 77 78 79 79 77 77 77 76 75 77 78 76 73 60 62 66 76 75 74 73 74 76 76 74 75 64 65 65 64 66 71 68 68 66 66 68 65 65 64 65
82 84 80 77 78 76 76 76 74 76 74 73 74 76 75 70 58 59 63 75 74 74 74 73 72 71 67 73 74 72 70 69 71 75 71 71 71 71 71 70 68 68 67
81 81 79 78 76 73 72 75 74 74 74 74 75 75 73 70 55 57 65 75 73 73 73 72 73 70 56 58 72 70 70 69 59 57 56 57 57 57 62 75 75 72 67
80 76 73 75 74 71 73 75 73 72 73 77 73 72 63 71 52 54 63 78 69 72 72 70 56 63 54 55 72 71 69 70 72 72 70 64 67 64 64 70 73 71 72
74 75 73 73 72 73 72 72 68 69 72 72 70 68 70 67 66 52 55 69 71 72 70 72 69 53 51 53 55 70 66 68 66 73 75 76 76 75 75 73 70 72 70
69 71 72 71 74 75 69 68 66 66 68 69 70 70 70 70 52 52 52 57 61 65 62 66 63 49 49 51 61 50 53 58 77 77 76 75 74 74 74 73 70 70 72
68 66 67 68 69 70 69 63 61 62 67 64 66 70 67 72 68 50 51 53 56 64 66 58 51 48 50 55 52 53 50 76 76 75 73 72 73 73 71 73 73 71 69
66 65 65 63 62 63 63 62 61 67 66 61 63 68 69 67 69 68 69 65 55 65 58 60 59 57 52 63 63 68 75 74 72 72 72 74 75 73 73 73 71 72 71
64 64 64 63 60 56 53 56 60 59 65 63 65 66 69 70 68 57 60 68 69 62 62 66 70 72 73 75 74 75 75 75 73 73 72 71 72 72 72 73 71 71 69
65 68 70 70 62 58 57 53 46 47 45 47 50 60 65 50 45 45 45 46 48 49 66 71 73 74 75 75 75 73 73 69 72 72 72 71 70 70 69 71 71 70 68
67 67 70 67 65 60 59 57 51 49 44 42 44 45 47 47 43 44 44 45 47 50 71 73 73 73 74 74 75 75 73 71 70 72 71 71 71 71 69 69 70 69 68
67 56 69 68 70 67 66 65 66 66 67 65 47 52 42 42 43 44 44 46 66 61 74 74 73 73 73 74 75 75 74 74 74 72 71 71 71 70 69 69 69 68 67
68 69 68 68 70 69 72 74 76 74 74 71 65 54 48 42 43 44 45 68 73 74 75 75 75 74 73 74 74 73 71 73 70 70 71 71 71 70 69 70 70 57 60
72 61 67 75 73 75 76 76 76 74 73 72 72 72 68 61 66 68 69 72 75 76 76 75 75 74 74 73 73 73 72 71 71 71 72 71 71 71 70 70 70 69 69
76 73 66 77 76 76 77 76 76 75 75 75 75 72 58 73 74 74 74 74 75 76 75 76 77 76 75 73 73 73 73 73 73 72 72 71 70 66 68 70 70 70 70
76 75 75 77 77 76 76 76 76 77 77 76 76 68 48 71 77 76 75 76 76 76 79 76 77 77 78 76 73 72 72 72 71 71 68 68 68 67 66 66 67 69 69
74 74 74 76 76 69 74 78 77 77 77 78 78 76 72 74 77 77 77 77 77 76 76 73 74 78 74 73 73 71 71 71 69 68 66 66 66 67 67 66 67 66 66
69 74 69 75 76 76 77 77 77 67 76 77 78 77 75 74 76 76 76 71 65 68 69 72 72 72 68 69 69 70 67 62 65 67 63 64 64 63 65 64 64 64 64
68 71 76 76 75 73 72 71 75 75 77 77 76 76 76 74 75 76 71 68 59 66 67 69 69 65 64 63 64 59 38 32 49 36 62 62 61 59 62 62 62 62 61
69 73 69 68 76 74 68 73 73 74 77 75 73 67 68 70 65 58 60 59 68 68 68 68 66 64 62 62 58 39 33 32 44 33 51 62 61 61 61 59 59 59 60

GFSGL_sfc_temp_045.txt.gz
Temp
81 79 84 85 84 83 83 83 82 82 82 81 81 81 80 79 79 79 78 76 73 73 75 75 76 78 75 77 77 76 75 74 65 61 62 62 62 62 63 66 69 68 67
82 84 85 85 85 83 83 83 83 81 82 82 82 81 81 81 81 81 80 76 73 72 74 74 75 78 74 75 77 74 74 75 72 59 59 59 59 60 62 63 65 66 67
83 86 86 85 84 82 82 83 82 82 82 82 81 80 81 81 80 80 80 78 75 73 74 74 73 73 72 73 74 73 73 73 73 65 58 59 58 59 58 60 60 62 65
87 88 86 85 82 82 81 82 82 82 82 81 81 81 81 81 80 80 79 78 79 77 75 74 73 72 72 75 73 73 71 67 65 62 59 58 58 59 59 58 60 63 63
86 87 85 84 83 80 80 82 82 82 82 81 81 81 81 82 80 79 79 78 77 77 76 75 72 68 65 66 77 73 73 69 62 59 58 58 57 58 59 63 62 66 64
86 86 84 82 82 80 80 80 81 80 81 81 81 82 81 81 64 65 73 77 77 76 75 76 73 71 66 63 65 64 69 72 70 67 66 65 64 66 67 66 67 64 59
84 86 83 80 80 77 79 77 79 77 78 78 79 80 77 74 63 64 68 78 77 76 75 76 78 78 75 75 66 67 66 65 67 70 66 67 66 66 66 67 67 68 66
79 84 82 80 79 78 77 76 77 77 76 75 77 76 76 71 60 61 64 77 76 76 76 75 73 72 68 73 72 69 68 67 68 73 69 68 68 70 71 72 70 69 70
73 79 81 81 81 77 76 76 76 74 74 74 77 74 74 71 58 58 61 77 75 75 74 70 73 71 57 58 73 69 68 67 60 58 59 58 59 60 64 74 69 72 70
72 76 83 80 81 78 75 77 75 75 75 75 74 75 67 72 56 55 61 78 73 72 73 71 57 64 55 56 73 72 70 71 73 69 68 63 66 66 66 71 72 71 72
72 77 77 71 71 75 76 76 76 75 74 73 74 74 73 70 67 55 56 74 69 72 75 71 64 54 54 55 56 70 67 68 68 72 74 76 76 75 75 73 70 71 69
70 74 73 72 74 73 75 74 73 70 68 69 71 72 75 72 59 54 55 57 65 70 68 72 66 52 51 54 63 54 55 57 76 76 76 74 74 74 74 73 71 71 72
70 69 67 68 68 72 72 69 66 65 65 65 71 74 73 74 71 52 53 55 58 67 70 61 53 50 50 58 57 58 54 73 76 75 73 73 73 73 71 72 73 72 70
68 66 66 66 65 66 68 66 65 65 64 66 71 68 69 74 73 71 70 67 57 66 59 65 61 60 57 63 66 66 75 74 73 72 72 74 75 74 73 73 71 72 71
67 67 66 65 62 58 55 56 62 63 61 69 72 68 72 72 72 59 64 72 72 66 65 64 68 71 72 74 74 75 75 74 73 73 73 72 73 72 72 73 72 71 69
68 69 69 67 62 58 56 54 47 47 46 48 49 61 66 51 47 47 47 48 50 52 67 70 71 74 75 75 74 73 73 70 73 73 73 72 71 71 69 72 72 70 68
67 70 71 66 67 61 61 57 54 52 45 43 44 46 52 47 45 45 46 48 48 50 67 74 75 74 74 75 75 75 73 72 70 73 73 72 71 71 69 70 70 70 69
68 57 72 72 70 67 64 65 69 64 57 59 48 52 42 43 43 44 45 45 64 59 70 76 75 74 74 74 75 74 74 73 73 73 72 72 72 70 70 70 70 69 68
70 73 72 72 72 70 70 68 67 65 67 68 66 55 48 43 44 44 45 67 72 73 75 77 76 75 74 74 74 73 71 73 71 71 72 72 72 71 70 71 71 59 62
69 63 66 74 74 72 73 73 75 75 76 75 71 70 66 59 63 65 65 69 74 77 78 77 77 76 75 74 73 73 72 70 71 72 73 73 72 72 70 70 70 69 69
72 70 68 75 79 79 80 80 80 79 78 77 76 74 59 70 73 73 73 74 76 78 78 78 79 77 76 74 74 73 74 74 74 74 73 73 71 70 70 70 69 69 70
74 70 77 76 80 79 80 80 80 79 78 78 78 69 52 71 79 78 77 77 78 79 80 78 79 79 77 75 72 75 74 74 74 73 72 71 70 70 70 69 69 69 68
71 66 73 74 79 71 78 80 80 80 80 80 79 75 73 75 79 79 79 80 79 79 79 78 77 78 78 76 76 74 73 73 72 71 69 69 68 68 68 67 67 66 66
74 66 69 68 75 69 74 75 79 70 77 79 77 75 75 77 79 79 79 80 79 78 76 75 75 75 76 73 74 73 73 67 68 70 67 66 66 65 66 65 65 65 64
76 67 68 66 64 66 71 74 71 71 74 72 70 69 76 77 75 76 74 77 75 72 71 71 73 72 71 70 71 64 39 33 52 37 62 64 64 63 63 64 63 64 63
73 72 70 69 66 69 74 71 71 69 68 66 71 73 77 79 78 72 73 71 67 68 71 73 73 70 69 68 65 40 34 34 45 34 51 62 63 63 63 62 60 61 61

GFSGL_sfc_temp_048.txt.gz
Temp
79 79 81 81 81 80 80 79 78 79 75 75 76 76 75 77 78 75 74 73 72 72 73 73 73 73 72 72 72 72 71 68 61 60 61 61 61 61 62 64 66 65 62
78 75 75 81 81 80 80 79 80 80 80 79 78 78 78 77 77 76 74 73 72 71 71 71 71 74 71 72 73 71 70 70 63 58 59 58 58 59 60 62 63 64 63
80 75 78 81 80 79 80 79 79 80 80 79 78 77 77 77 77 76 75 73 72 72 70 70 69 71 70 71 71 70 69 68 66 60 57 58 58 58 58 59 60 61 63
82 83 80 80 80 80 80 80 79 80 79 78 78 78 78 77 76 76 75 74 73 71 69 68 68 67 67 71 70 68 66 64 63 60 58 58 58 58 58 58 58 60 60
80 80 81 81 81 80 80 80 80 80 79 79 78 79 79 75 74 69 75 74 72 71 70 69 67 67 66 65 70 68 65 63 61 58 57 57 57 57 58 61 60 60 59
81 80 81 79 77 78 79 78 79 78 78 79 79 78 74 76 64 65 70 73 73 72 70 69 69 69 66 65 65 65 67 65 63 63 61 61 60 61 62 63 62 60 58
81 82 79 78 78 77 78 77 75 77 77 77 75 73 71 69 65 65 65 74 72 72 70 69 72 71 69 69 66 66 64 64 66 66 63 63 62 64 63 62 62 62 60
78 78 76 76 76 73 76 75 74 76 75 75 75 73 71 67 63 61 63 74 72 72 70 69 68 66 60 67 65 63 62 62 64 67 61 61 61 62 63 64 64 64 64
76 76 71 73 74 74 74 73 75 75 74 74 75 73 70 67 60 60 60 73 71 70 68 65 68 66 57 58 66 62 61 61 60 59 59 60 60 61 62 63 62 61 60
76 72 70 70 69 71 72 74 73 73 73 74 74 73 68 69 57 57 60 69 70 69 67 64 58 60 56 56 68 65 62 61 63 62 61 60 61 63 65 62 61 59 59
75 69 69 68 67 69 69 70 72 73 72 71 71 70 72 69 63 57 57 71 70 68 68 65 62 56 56 56 56 63 61 61 65 65 66 65 64 63 64 64 62 60 58
72 70 68 68 68 69 70 69 69 68 69 69 68 69 71 68 60 54 57 59 66 69 66 66 60 53 54 56 60 55 57 57 64 66 66 64 63 62 63 64 64 63 63
71 70 68 68 68 67 68 71 67 67 66 66 64 67 69 69 65 52 54 56 59 65 66 60 54 52 52 54 59 58 56 63 64 64 63 62 63 64 64 63 64 64 63
69 67 67 67 65 66 66 67 67 65 64 63 63 64 69 69 67 65 64 63 57 64 58 60 59 60 58 59 62 62 64 64 63 63 63 64 65 64 63 62 61 61 60
66 65 66 64 63 60 55 53 60 61 60 62 62 64 66 69 69 62 64 67 66 64 62 61 60 61 63 64 64 66 65 64 64 64 64 63 63 63 61 62 62 61 59
67 67 67 65 63 59 55 54 48 46 45 46 48 58 58 51 46 48 48 49 50 53 62 61 61 64 65 67 66 65 64 63 64 65 64 63 62 61 60 61 62 60 59
67 69 68 66 64 62 57 57 54 51 45 44 44 47 53 48 45 46 47 48 49 53 63 65 66 65 67 67 67 67 65 64 64 64 64 63 63 63 59 61 61 61 59
69 58 68 69 68 67 64 61 60 57 58 56 48 50 43 43 44 45 46 49 58 55 64 65 66 67 67 67 67 67 65 63 64 64 64 64 64 63 62 62 62 61 60
71 71 71 71 69 66 66 65 65 64 64 61 56 51 46 44 44 44 45 62 64 65 65 66 66 66 67 67 67 65 64 64 64 63 63 63 64 64 62 63 63 58 58
73 66 64 68 70 69 67 66 68 66 65 64 62 63 59 54 58 58 59 62 64 69 70 71 68 69 68 68 66 65 65 63 64 64 63 64 64 64 63 62 62 61 61
75 71 67 71 71 69 70 71 73 71 69 66 68 69 56 61 64 65 66 65 67 70 71 73 73 71 70 67 67 67 67 68 66 66 65 65 63 63 63 62 62 63 62
74 71 73 67 73 71 70 73 72 72 70 72 74 62 50 66 70 71 70 70 72 73 75 72 74 73 73 71 66 68 67 66 68 67 66 65 64 64 63 62 62 62 61
72 71 74 70 70 66 73 76 73 76 76 72 71 68 65 68 69 72 74 75 75 74 74 73 73 72 69 69 70 69 70 68 66 66 64 64 63 62 62 61 61 60 59
73 72 74 69 68 67 68 67 67 64 68 71 71 71 70 70 71 72 72 74 72 72 73 71 71 73 67 70 69 69 61 57 63 64 64 63 61 60 61 59 59 58 58
75 73 73 70 66 65 65 65 62 65 63 62 66 64 64 65 65 71 73 70 72 71 69 69 70 70 70 70 60 53 38 35 46 40 58 59 59 58 58 58 58 58 58
76 74 73 72 69 64 64 63 64 67 62 61 61 61 61 60 60 60 67 66 67 67 68 66 67 69 70 68 54 39 35 34 43 35 47 54 56 57 58 58 58 56 56

GFSGL_sfc_temp_051.txt.gz
Temp
71 71 72 74 72 72 70 70 70 69 69 73 73 71 70 69 69 67 66 67 67 69 68 66 66 67 67 68 68 67 65 62 59 59 60 60 60 61 62 63 62 60 62
71 72 72 73 72 71 70 71 71 70 72 74 73 70 69 70 68 67 67 70 69 67 68 67 67 70 66 67 68 64 64 61 61 57 58 58 58 59 60 60 60 61 58
72 71 71 71 71 70 70 71 71 71 70 70 70 69 69 69 68 67 67 65 64 63 62 62 62 64 65 65 63 62 61 62 62 59 56 58 57 58 57 58 57 58 59
72 71 70 70 72 71 71 71 71 71 70 69 69 69 68 67 66 68 67 64 63 62 61 61 61 61 62 64 62 60 61 60 61 59 58 57 57 58 57 57 55 59 57
73 72 70 71 72 72 71 71 71 71 70 70 69 68 66 67 68 65 67 65 63 62 61 62 61 66 65 65 63 59 58 58 58 57 56 56 56 56 55 56 54 54 54
72 72 74 72 72 70 71 71 70 70 70 70 68 66 65 69 62 63 66 64 64 63 61 61 62 64 64 64 63 64 61 58 56 55 54 54 54 55 57 55 55 54 52
72 73 72 71 70 70 71 70 69 68 69 67 66 64 62 60 61 60 66 65 63 62 60 61 64 65 62 60 62 62 62 63 62 60 57 57 59 58 58 56 58 57 56
70 70 70 70 70 70 69 69 71 68 68 66 65 63 61 60 61 61 62 65 62 61 61 60 58 56 57 59 57 56 56 56 59 61 57 56 56 56 57 57 58 58 57
71 67 67 68 68 68 68 68 68 68 67 67 66 63 61 58 59 58 61 63 61 60 59 60 59 56 57 59 58 55 54 55 58 58 58 59 60 60 59 58 54 53 52
67 67 67 66 66 66 66 64 66 67 66 67 65 64 62 59 56 57 58 60 60 58 57 56 58 57 55 56 57 56 54 55 56 56 56 57 58 58 60 55 53 51 50
68 66 66 66 65 66 66 67 66 66 66 65 65 65 63 61 56 57 55 61 61 59 58 58 55 56 55 54 56 57 56 55 58 55 54 53 54 55 55 54 54 53 51
66 65 65 65 66 66 66 65 66 66 65 65 64 64 65 62 55 54 56 58 62 59 56 56 58 54 53 54 54 54 56 56 55 54 54 54 53 54 54 55 56 55 54
65 64 63 64 64 65 64 65 66 66 65 64 63 64 63 61 57 53 54 57 59 58 57 57 54 52 51 53 56 56 55 54 53 53 52 54 55 56 55 55 55 55 54
65 64 63 62 61 61 62 64 65 65 64 63 62 62 62 61 56 55 56 55 57 56 56 54 55 54 56 56 55 56 56 54 55 53 53 53 54 54 53 53 53 52 51
64 63 63 62 61 58 53 52 55 57 58 63 63 63 62 61 60 57 56 57 56 55 54 52 51 52 54 53 53 54 55 54 54 53 53 53 53 53 53 52 52 51 50
63 63 63 63 60 56 55 53 48 47 46 46 49 57 56 50 51 50 50 50 50 50 53 51 51 52 52 54 54 54 52 56 54 54 53 54 52 52 52 52 52 51 50
62 63 63 61 61 57 54 55 54 51 45 44 44 47 49 47 45 46 46 47 48 52 54 52 52 52 54 55 57 54 53 54 55 54 53 53 54 53 53 52 52 51 51
60 60 59 61 63 62 60 56 55 56 55 55 48 48 43 43 43 45 46 52 55 53 53 53 53 55 57 60 55 54 54 54 54 54 53 54 54 54 54 52 52 50 49
61 61 60 60 64 62 62 61 59 58 57 57 52 48 44 43 44 45 46 54 52 52 55 53 54 55 59 61 58 54 54 53 54 54 53 53 54 53 52 54 53 52 53
63 63 61 60 60 63 62 61 61 61 59 58 52 52 49 49 52 52 50 50 52 54 58 58 58 58 61 61 59 55 54 54 54 54 54 54 57 56 56 53 52 51 51
64 63 61 61 64 61 64 63 63 63 61 61 58 57 50 52 52 54 53 55 56 57 56 58 59 63 63 60 56 55 56 56 55 55 55 58 58 55 53 53 52 52 51
64 63 61 61 64 60 64 64 63 62 61 60 60 59 46 55 56 59 60 60 60 61 63 62 65 68 65 61 59 59 58 56 57 59 57 55 54 54 53 52 51 50 50
64 64 62 62 65 60 61 65 65 64 65 65 62 59 56 57 61 62 63 64 63 64 63 61 63 62 62 61 61 59 60 57 56 55 54 56 52 52 51 50 50 49 48
64 63 63 62 60 60 62 62 62 57 62 61 62 60 60 60 59 58 60 62 66 67 63 63 63 62 60 61 61 57 57 56 55 55 56 55 51 49 49 48 48 48 47
63 62 62 61 60 59 58 61 60 60 60 61 61 60 61 61 61 59 60 60 63 62 62 60 61 64 63 60 52 45 38 36 48 45 49 49 49 49 48 47 47 47 47
62 61 61 60 58 57 56 60 60 60 60 59 59 56 56 56 56 55 55 55 56 59 60 61 63 64 58 54 50 38 35 35 39 37 45 46 46 45 45 45 47 45 45

GFSGL_sfc_temp_054.txt.gz
Temp
69 69 70 71 69 69 68 67 67 67 68 68 69 68 66 66 66 64 64 65 65 64 64 64 65 66 65 66 66 65 64 62 59 59 60 60 60 60 61 61 59 57 59
69 69 70 69 69 68 68 68 68 67 68 68 68 67 66 66 65 65 65 64 63 62 62 62 63 67 64 64 63 61 60 60 62 58 58 58 58 59 59 59 58 59 57
69 69 69 69 68 68 68 68 68 68 67 67 67 66 65 65 65 64 63 62 60 60 60 61 61 63 61 61 61 59 60 63 62 59 56 58 57 58 57 57 56 57 58
69 68 68 68 68 68 68 68 68 68 67 66 66 66 65 64 65 64 62 60 60 60 60 60 60 62 61 60 59 58 59 61 60 59 58 57 57 58 57 56 55 54 53
69 68 68 68 69 69 68 68 68 68 68 67 65 64 63 65 66 63 62 60 59 59 59 61 61 64 65 63 59 56 57 58 59 58 57 56 56 55 56 56 53 52 53
69 69 69 69 69 68 69 68 68 67 67 66 64 63 62 66 61 63 63 61 60 59 58 59 60 62 62 63 63 62 59 57 55 55 53 53 52 54 55 54 52 51 51
68 69 69 69 68 68 70 68 68 66 66 64 62 61 60 60 59 61 64 61 59 59 59 58 61 62 60 59 61 61 62 62 61 57 54 54 54 56 55 54 54 56 54
68 69 68 67 68 67 67 66 66 66 65 63 62 60 59 60 59 59 62 60 58 58 59 57 56 55 57 57 56 55 55 56 57 60 58 56 56 55 57 57 56 55 55
66 66 66 67 66 67 65 64 64 65 65 64 62 61 60 57 56 57 60 59 58 57 57 57 57 55 57 57 56 54 53 54 57 57 57 57 58 58 56 56 51 52 51
65 65 65 66 65 65 65 64 64 63 65 65 64 62 60 58 55 56 59 59 56 55 54 54 59 57 55 55 56 54 53 53 54 54 54 56 56 56 58 54 52 50 49
65 64 64 64 63 64 65 64 62 64 65 65 64 63 61 59 56 54 55 59 59 56 55 54 54 55 53 52 54 55 55 53 55 53 52 52 53 53 53 51 50 52 49
64 63 62 63 64 65 64 64 63 63 64 64 63 63 63 61 55 54 55 56 58 59 56 55 55 53 52 51 53 53 53 54 53 52 51 52 52 52 53 52 51 52 51
63 62 62 62 62 63 62 63 63 64 64 64 64 63 62 61 58 53 54 55 56 58 57 56 54 50 51 53 53 52 54 53 51 50 49 50 51 53 51 51 51 51 52
64 64 63 61 60 59 59 60 62 64 64 64 63 62 62 60 58 55 57 57 56 57 57 55 55 54 54 54 54 54 53 52 52 51 51 50 50 49 51 50 50 49 49
63 63 63 62 61 58 55 53 54 57 54 61 64 63 62 60 59 54 55 58 55 54 52 52 51 51 52 52 51 51 51 51 52 51 50 50 50 50 50 48 49 47 48
60 59 60 62 60 58 56 55 50 47 45 44 47 57 58 53 51 48 47 47 48 48 52 51 51 51 51 51 51 51 51 54 51 51 50 50 51 51 50 49 48 48 48
58 58 59 59 61 58 55 55 55 52 46 45 44 45 48 50 45 47 46 46 46 48 53 51 51 50 51 51 51 51 52 51 51 52 51 50 50 50 51 50 48 48 48
59 56 57 57 58 58 59 58 56 55 55 55 48 46 42 42 42 43 44 47 51 51 56 52 52 51 51 52 52 52 52 51 50 51 51 51 50 51 50 50 49 48 46
58 58 57 57 57 57 58 60 59 58 57 55 52 47 44 42 42 44 44 57 59 59 58 57 57 55 52 54 54 53 56 56 52 51 50 50 50 50 50 49 50 49 49
60 59 58 58 57 57 57 57 59 56 56 54 53 54 49 46 50 50 50 53 54 54 54 55 58 56 53 53 53 55 57 57 51 51 51 51 51 50 51 51 50 49 48
60 60 59 58 57 57 57 57 58 58 59 58 57 56 48 51 51 51 53 55 56 57 55 56 55 54 55 54 55 58 59 56 54 55 52 51 50 51 52 50 50 50 49
60 60 59 58 58 57 57 57 57 58 59 58 57 54 45 53 55 53 53 55 55 55 57 55 55 56 59 60 59 59 58 56 55 53 51 51 52 51 50 51 50 48 48
58 59 59 58 58 57 57 57 57 57 57 60 59 56 50 52 53 53 54 56 55 55 57 56 59 61 62 62 63 62 62 59 58 56 53 51 51 53 53 52 50 47 46
58 59 59 58 57 57 56 56 56 53 57 58 60 60 52 54 57 55 55 56 58 57 60 57 57 60 59 59 59 58 57 56 55 55 55 55 51 50 53 52 51 51 46
56 57 57 56 56 56 55 56 54 55 58 58 59 57 56 58 59 57 55 55 56 57 57 58 57 62 61 58 53 49 38 37 49 44 52 54 53 52 51 46 49 46 46
54 57 56 56 56 55 55 55 56 56 56 56 54 56 53 57 55 54 52 54 54 54 55 56 57 59 56 52 50 40 37 36 43 41 49 47 49 47 45 45 45 44 44

GFSGL_sfc_temp_057.txt.gz
Temp
68 68 69 68 69 67 66 66 66 66 66 66 66 66 66 65 64 63 63 63 63 63 63 64 64 64 64 65 65 66 64 63 59 59 60 61 60 60 59 60 58 57 59
68 69 69 68 68 68 66 66 66 66 66 66 66 65 65 64 63 63 63 62 62 61 61 62 63 65 62 62 62 63 62 62 62 58 58 58 58 59 59 58 59 58 57
68 68 68 67 67 67 67 66 66 66 66 65 65 65 64 64 63 62 61 60 60 60 60 61 62 62 60 59 59 60 61 63 63 59 56 57 57 58 57 58 57 57 58
68 67 67 66 66 66 67 67 66 66 65 64 64 64 64 64 63 61 60 59 59 59 59 60 61 61 59 58 58 61 62 61 61 59 57 57 57 57 57 56 55 56 54
67 67 67 67 67 67 67 67 67 66 66 64 63 62 62 64 64 60 59 58 58 58 58 60 61 64 63 61 58 57 61 60 60 58 57 56 56 56 56 57 55 54 52
67 66 67 67 67 67 67 68 67 66 64 64 62 62 61 65 61 62 61 58 58 57 57 57 58 62 62 62 62 61 59 57 58 58 56 56 56 57 56 52 51 50 50
67 67 68 68 66 66 67 66 66 65 64 63 62 61 60 60 59 60 62 59 58 57 57 56 59 60 59 59 61 62 61 62 60 56 54 53 53 54 54 52 52 52 53
66 66 68 67 66 66 66 66 66 65 65 63 61 60 59 59 58 58 61 59 58 58 57 56 55 55 55 56 55 54 54 55 57 58 57 56 56 56 56 56 55 54 53
66 66 66 66 65 65 64 64 64 64 65 63 62 61 61 58 56 56 59 57 56 56 56 55 55 55 57 57 55 53 52 52 56 57 57 57 57 57 56 54 52 53 50
64 65 65 64 64 64 63 62 62 64 64 65 63 62 60 62 54 54 58 57 55 54 54 54 58 56 55 55 54 53 52 50 52 53 53 54 53 54 58 51 51 49 48
64 63 63 63 62 63 63 62 61 62 64 63 64 63 61 59 59 52 55 59 58 54 53 53 53 54 52 52 53 54 54 52 54 51 51 50 51 51 50 49 48 50 48
62 62 61 62 62 63 62 62 61 61 61 64 63 62 62 61 56 52 52 56 57 57 55 54 54 52 50 49 51 52 51 54 51 51 51 50 50 50 51 50 49 49 49
61 62 63 61 61 60 61 62 61 60 61 63 63 63 62 62 59 52 51 53 55 58 57 55 53 49 49 50 52 51 51 52 50 49 49 50 51 52 50 50 49 49 50
63 62 62 62 61 60 59 59 59 62 62 63 63 63 63 62 59 55 55 56 55 58 57 55 54 53 53 53 53 52 52 50 49 49 48 48 48 48 49 48 48 47 48
62 62 62 62 61 59 55 56 56 56 55 57 61 63 63 62 61 57 55 57 58 57 53 52 51 51 51 51 50 50 50 49 50 49 50 50 49 48 48 46 46 45 48
59 58 58 58 57 56 56 55 50 49 46 44 43 46 60 53 49 50 48 49 47 48 54 53 53 52 52 52 51 50 50 53 50 50 49 49 49 48 48 46 46 47 48
58 57 57 56 57 56 54 54 56 53 46 45 44 44 44 48 46 45 46 47 44 48 57 54 54 53 55 52 52 50 51 51 50 50 49 49 49 48 48 47 47 47 46
57 55 56 55 55 56 56 55 54 56 56 57 46 44 44 43 43 42 43 46 48 49 56 56 54 55 54 53 52 51 51 49 49 49 48 49 49 50 48 48 47 47 46
57 57 56 56 55 55 56 55 55 56 57 57 55 48 44 41 42 41 43 55 55 54 56 58 57 56 52 53 55 52 52 51 51 49 49 50 50 48 48 48 47 47 47
57 57 56 56 56 55 55 55 55 55 55 54 53 52 47 47 50 50 50 52 55 56 56 55 56 57 57 56 53 52 52 51 53 54 54 52 50 49 49 48 48 48 46
58 58 58 58 57 57 56 55 55 55 56 55 56 58 48 53 53 51 52 54 55 57 57 55 54 54 55 55 55 51 53 54 55 56 55 52 50 48 49 49 50 50 47
56 57 57 57 57 57 57 56 55 55 56 57 58 54 44 50 52 52 53 55 56 56 59 59 57 55 56 57 57 57 55 55 57 56 55 54 52 52 52 50 48 49 48
54 55 56 56 57 56 56 55 55 54 54 55 55 54 47 51 51 53 54 54 53 53 54 53 54 55 57 59 58 58 59 59 58 57 56 56 54 53 51 49 51 51 50
53 54 55 55 55 55 55 55 54 51 54 55 54 55 53 53 53 52 52 53 55 57 54 55 57 58 59 59 61 61 61 62 61 60 59 58 56 52 55 53 53 50 51
51 52 53 54 55 57 56 53 52 54 53 53 54 53 52 51 52 52 54 53 55 55 55 55 55 55 57 58 57 57 49 40 55 48 53 53 53 52 53 53 52 50 50
55 54 53 54 53 54 53 52 51 51 51 50 52 52 52 52 51 52 51 53 53 54 54 54 55 54 53 52 50 40 35 35 43 42 52 51 50 48 48 48 48 45 48

GFSGL_sfc_temp_060.txt.gz
Temp
69 69 69 69 69 68 68 68 69 69 69 69 69 69 68 68 67 67 66 67 66 66 67 67 67 68 68 68 68 68 67 64 60 60 60 61 61 59 60 61 63 65 66
69 69 69 69 69 68 68 69 68 68 69 69 69 68 68 67 66 67 66 66 65 65 65 67 67 68 66 68 69 66 64 64 62 58 59 59 59 59 60 59 62 64 65
69 69 69 69 68 67 68 69 69 69 69 68 68 68 67 67 66 65 65 65 64 64 64 66 65 66 64 64 65 64 63 64 63 60 57 58 58 59 58 60 58 60 65
69 69 68 68 68 68 68 68 68 69 68 67 67 68 67 67 66 65 64 63 63 63 63 65 65 65 64 62 64 64 64 63 63 61 58 57 58 58 59 58 56 59 58
69 68 68 68 69 69 68 68 68 68 68 67 67 66 67 67 67 64 63 63 63 62 63 65 65 65 63 63 64 63 63 62 61 59 57 57 56 56 56 57 56 58 56
68 68 69 68 68 68 68 68 68 67 66 66 65 65 65 68 61 61 63 63 63 62 62 62 63 64 63 62 62 62 63 61 60 60 58 58 57 58 58 57 56 57 56
68 69 69 69 68 67 67 67 66 65 65 64 63 65 64 65 59 60 62 63 63 62 61 62 64 64 63 63 61 62 62 62 63 63 60 59 58 60 58 56 58 59 59
67 68 68 68 68 67 67 66 66 66 65 64 62 62 63 64 58 57 61 63 63 63 62 62 62 61 62 62 62 61 61 62 63 65 64 63 64 63 63 63 61 60 60
67 67 68 68 67 67 67 66 66 66 66 63 63 61 60 62 56 55 60 62 62 62 62 61 62 61 57 56 61 59 58 59 58 56 57 57 57 57 61 63 61 60 58
67 67 67 67 66 65 65 64 65 65 65 65 62 61 59 61 55 52 59 63 61 60 59 60 58 60 55 54 59 58 57 58 60 59 60 58 58 59 58 62 63 62 59
66 65 65 66 65 65 64 64 63 63 64 64 63 62 62 60 61 52 52 62 62 60 61 60 61 54 51 51 53 58 58 57 58 59 60 60 60 60 60 59 60 62 61
64 64 63 63 64 64 65 64 63 63 63 63 64 62 62 61 55 53 51 54 58 61 61 61 60 52 49 49 52 53 51 56 60 60 60 60 61 61 60 60 58 59 60
62 62 63 63 63 63 63 64 63 62 62 63 62 62 62 62 60 52 52 51 53 60 62 60 54 49 48 50 50 50 51 60 60 59 60 60 60 61 59 59 58 58 58
62 64 63 63 63 62 61 61 61 61 62 63 64 63 63 63 62 60 56 56 54 56 58 59 56 54 53 56 56 54 59 59 59 59 60 61 59 58 59 60 60 58 59
64 63 63 62 62 61 59 59 59 59 58 60 59 60 62 63 63 57 56 57 58 57 57 56 54 55 56 56 57 58 57 57 56 57 57 58 58 58 58 56 57 56 58
61 61 60 61 60 60 58 59 52 50 47 45 43 47 56 52 48 47 47 48 50 50 54 54 55 56 56 56 56 56 57 57 57 57 57 57 57 57 57 56 57 57 58
60 60 60 58 60 59 58 58 59 56 46 44 42 42 41 43 43 44 43 45 46 47 57 55 56 54 55 57 57 57 57 57 56 57 57 57 58 57 55 56 57 57 57
61 53 60 60 60 60 60 60 59 59 59 61 47 45 44 42 42 42 41 45 48 47 56 57 55 58 57 57 56 58 58 57 57 57 57 57 57 57 56 56 56 57 58
60 60 60 60 60 58 60 60 60 60 59 60 61 51 46 41 41 41 41 54 54 53 53 54 58 56 55 56 58 58 58 58 58 57 58 57 57 57 57 59 59 52 54
61 57 58 61 61 60 60 60 60 60 59 59 60 61 59 51 56 54 50 52 55 57 56 55 56 54 53 52 52 56 58 57 59 58 59 59 59 59 59 60 59 59 58
59 60 57 60 60 61 61 61 61 60 60 61 61 61 50 59 61 58 56 55 57 57 58 57 57 56 55 54 53 52 54 57 59 60 61 60 58 59 59 59 60 59 61
57 57 58 59 60 60 60 61 61 61 60 60 61 60 44 56 58 59 60 59 59 60 60 59 59 59 60 59 56 56 54 56 61 57 60 58 57 58 61 58 59 58 57
56 56 57 58 59 56 59 60 60 60 61 61 61 60 59 56 56 57 57 59 59 60 61 60 61 61 61 61 62 61 61 62 61 58 58 57 57 57 57 56 57 58 55
54 55 55 56 57 58 59 59 59 53 58 60 60 59 60 60 58 58 58 58 59 59 60 60 59 58 59 60 61 61 61 60 60 59 57 56 56 54 57 56 57 57 57
54 55 56 55 55 56 57 57 56 57 57 58 58 57 58 58 58 57 56 58 58 58 58 59 58 57 58 59 59 60 52 38 51 51 55 54 54 54 54 54 55 55 53
55 55 54 54 53 54 54 53 54 53 52 54 54 54 56 56 55 54 56 58 57 55 55 56 54 53 53 53 50 40 35 34 44 40 54 53 50 49 49 48 47 47 47

GFSGL_sfc_temp_063.txt.gz
Temp
78 78 78 78 79 77 77 77 77 77 76 76 77 77 77 77 76 76 75 75 75 74 74 73 73 73 73 72 75 75 71 66 61 61 62 62 61 63 64 66 71 73 71
79 78 78 78 78 78 77 77 77 76 76 77 77 76 76 76 75 75 74 75 75 74 74 74 74 77 71 72 71 71 70 66 63 59 60 59 59 63 64 64 67 73 73
79 78 78 78 78 77 77 77 77 77 77 77 77 76 75 75 75 75 75 74 74 74 74 75 75 75 70 72 73 70 66 65 63 60 58 59 59 60 61 63 64 63 68
80 79 78 78 78 78 78 77 77 77 77 77 77 76 75 75 75 74 73 73 74 74 73 74 75 75 72 69 72 70 69 66 64 61 58 58 59 59 60 61 62 66 63
79 79 78 79 79 78 77 77 77 77 77 76 73 76 76 76 77 74 74 73 73 73 73 74 73 70 65 69 71 70 69 66 64 59 58 57 57 57 58 61 60 59 62
79 78 78 77 77 77 77 77 76 74 73 73 69 72 75 78 60 62 70 74 72 73 72 72 72 68 65 63 64 65 68 66 64 62 61 59 58 60 61 57 58 58 64
78 78 77 77 76 76 76 75 75 73 72 71 70 67 68 74 60 60 64 74 73 73 72 73 74 73 70 71 63 63 63 63 65 69 66 66 63 64 63 58 61 65 70
77 77 77 77 76 76 75 74 74 74 72 72 65 65 64 67 58 57 61 73 72 72 72 72 72 70 70 71 71 71 70 70 68 70 69 68 68 68 66 67 64 66 70
77 77 77 77 76 75 72 70 71 71 70 69 67 63 60 63 57 55 61 72 71 71 72 70 71 70 59 59 71 69 69 70 59 57 58 59 60 62 68 72 68 69 66
78 77 77 77 75 71 70 69 70 69 70 67 66 68 60 61 54 53 59 74 71 72 70 69 59 66 55 55 71 70 69 69 70 68 67 62 64 63 59 71 72 69 69
77 76 75 75 74 74 73 72 72 71 70 70 68 67 62 60 60 53 52 71 72 71 71 70 72 55 52 51 55 70 69 68 64 69 70 70 70 70 71 70 71 72 72
73 73 73 72 73 73 72 70 70 70 69 68 68 66 65 64 56 52 52 53 61 67 67 69 70 52 49 49 55 56 51 59 71 71 71 70 71 72 72 70 68 70 72
70 68 67 68 68 69 68 66 66 69 70 68 66 70 70 66 65 52 50 52 54 62 69 67 58 49 48 50 51 51 50 68 70 69 70 71 72 74 71 67 67 66 66
67 67 69 69 69 71 72 72 72 66 65 66 65 64 65 67 66 65 59 55 54 59 61 66 63 60 57 62 60 58 67 69 70 70 71 73 73 69 68 70 69 69 69
66 68 69 69 68 70 70 69 69 69 65 66 65 63 62 64 64 57 59 61 61 59 59 64 63 65 65 65 66 67 67 68 66 68 68 69 68 69 68 70 69 69 67
68 70 72 73 73 72 71 72 53 53 48 45 45 51 62 53 47 43 45 45 47 49 57 59 59 63 63 64 63 65 67 64 67 67 67 67 67 67 66 66 65 64 66
68 70 70 68 73 72 72 73 72 64 47 44 43 43 41 46 42 41 41 42 43 48 57 58 57 60 64 60 61 62 62 66 64 65 66 66 66 67 65 67 66 66 66
70 56 73 73 74 74 73 74 75 72 72 73 50 49 43 41 41 41 41 44 52 48 56 57 57 59 61 57 63 60 60 61 59 63 68 69 69 69 68 68 68 67 68
72 74 74 74 74 70 74 74 74 73 72 72 73 56 50 42 43 41 41 59 58 56 54 56 57 57 57 60 60 59 58 55 55 56 61 66 69 69 69 70 70 59 62
72 61 62 73 75 73 74 74 74 73 72 73 73 74 75 65 72 73 67 62 59 59 60 57 57 57 55 54 52 52 52 52 52 54 59 64 69 70 70 69 70 70 68
73 73 59 70 71 73 73 73 72 71 72 73 74 71 46 70 72 73 73 72 69 67 65 62 60 60 60 57 57 54 53 52 52 53 54 58 64 68 69 71 72 71 71
68 69 69 70 72 71 71 72 72 72 72 72 72 70 45 73 72 71 71 71 71 71 71 70 70 69 69 70 66 62 62 61 60 56 54 55 56 60 64 65 67 69 69
66 63 65 66 66 61 69 71 71 71 72 73 72 72 72 72 71 70 69 70 69 69 70 69 68 70 72 72 71 70 70 69 69 67 58 55 56 61 58 56 56 60 65
60 64 64 61 61 66 70 67 68 58 66 67 68 69 69 69 69 67 67 67 68 68 66 67 68 67 67 68 69 70 70 67 68 67 64 59 55 51 53 52 52 55 59
57 57 57 57 57 59 62 65 65 63 65 66 65 64 65 65 65 65 65 66 65 64 56 56 56 57 54 54 55 53 42 34 45 44 58 57 55 54 53 52 52 52 52
56 56 56 58 57 57 57 57 58 58 58 57 59 58 57 57 58 56 57 59 59 59 58 58 56 54 53 50 45 37 34 33 40 35 46 54 53 53 52 51 51 51 51

GFSGL_sfc_temp_066.txt.gz
Temp
85 85 83 84 84 83 83 82 82 82 81 82 82 82 82 82 83 82 81 81 80 80 80 78 79 79 81 74 76 76 77 79 63 62 63 63 64 66 69 71 72 76 72
86 85 84 85 85 84 83 84 83 81 82 82 82 82 82 83 82 81 81 82 79 79 79 79 79 82 78 77 75 74 76 78 65 61 61 61 61 65 68 68 73 77 76
87 86 86 85 84 83 83 84 83 82 82 83 83 82 82 81 81 81 81 81 80 80 79 77 78 78 75 77 74 74 74 75 65 61 59 60 59 63 66 68 68 69 72
88 87 85 85 84 84 84 83 83 83 83 83 82 82 82 81 81 82 81 79 80 80 78 78 79 78 74 72 74 73 73 66 65 61 61 59 59 61 64 66 69 71 66
87 87 85 85 85 84 83 83 83 83 83 83 81 81 79 82 85 80 81 79 79 79 78 81 80 71 66 69 72 72 71 69 66 64 60 59 59 58 61 65 64 69 69
87 86 86 84 84 83 83 83 82 82 82 81 80 79 77 79 63 66 73 80 79 79 78 79 78 69 67 64 65 65 70 70 68 64 61 59 59 60 64 66 70 65 58
86 86 84 83 82 82 83 82 81 81 81 79 78 78 73 71 61 61 65 81 79 79 79 79 81 80 74 76 64 64 64 64 67 67 64 64 62 65 62 61 62 61 66
84 84 84 83 82 82 81 80 80 79 78 77 76 75 66 68 59 58 61 77 78 78 79 79 79 77 76 77 77 74 73 72 70 72 72 72 72 68 66 67 67 63 67
84 83 83 83 82 82 79 78 78 76 75 77 77 74 65 63 56 56 60 76 77 76 77 77 77 76 60 61 76 75 74 74 62 59 60 62 63 64 68 69 67 65 65
84 84 84 83 82 82 81 77 75 74 75 74 74 75 67 64 54 53 58 76 74 77 76 73 62 68 56 57 73 74 73 75 76 73 71 65 66 67 62 72 74 69 66
83 82 82 81 81 81 77 77 77 77 77 74 73 74 72 68 64 52 53 69 75 76 77 76 77 56 53 52 52 75 72 75 69 75 76 76 75 74 75 75 77 77 71
79 79 79 78 80 78 78 77 75 75 72 74 71 71 74 70 59 52 51 52 60 72 75 78 74 52 50 50 56 55 55 60 78 77 77 76 76 76 77 77 75 75 79
72 69 71 74 76 75 75 73 72 74 75 74 72 76 75 75 72 53 50 51 53 61 69 68 56 49 48 51 50 52 51 73 76 75 75 76 77 78 76 72 72 71 71
68 66 68 70 73 74 78 79 77 76 75 70 70 73 74 74 72 71 67 62 55 61 61 66 65 64 60 66 65 62 72 74 74 74 76 78 78 76 72 73 71 70 70
68 67 69 72 71 72 77 78 79 78 71 75 75 74 69 66 64 52 56 69 70 67 65 71 71 70 70 66 71 73 73 73 71 70 72 75 76 75 72 74 73 73 71
70 71 72 74 75 78 79 77 55 52 49 47 46 58 76 55 46 44 43 43 45 47 57 60 62 67 69 71 73 73 75 68 68 66 69 73 74 74 73 73 72 71 69
71 72 78 75 79 78 78 79 78 64 48 46 45 45 44 44 43 42 41 42 43 46 58 59 60 60 60 61 61 62 61 63 61 58 61 67 68 70 72 73 72 69 68
72 60 77 79 78 80 81 81 82 80 79 78 51 52 44 43 42 41 41 45 66 54 61 61 61 62 60 60 61 59 58 58 58 56 54 57 59 61 63 70 71 69 71
68 70 73 76 78 77 82 83 83 81 80 80 81 54 52 43 43 41 41 65 74 72 66 63 62 60 60 60 59 59 56 56 54 53 53 54 55 54 55 60 64 60 64
67 60 62 75 80 80 81 81 82 81 80 80 81 81 71 67 71 69 72 77 76 76 71 66 66 64 62 61 59 56 54 54 53 55 53 53 54 56 57 59 66 68 72
74 78 61 77 79 81 81 81 82 81 80 81 76 69 47 76 80 80 80 79 79 80 79 72 69 73 70 65 64 59 60 60 57 55 54 56 55 57 56 56 60 67 70
75 76 77 77 79 79 79 80 80 80 79 79 74 68 48 75 79 79 78 78 78 78 79 74 74 75 78 77 74 68 67 67 66 63 63 60 57 56 56 57 57 59 58
75 75 75 76 76 68 74 77 78 75 73 75 77 76 75 75 75 76 76 76 75 73 72 70 71 73 74 74 74 73 72 68 68 68 64 60 60 59 55 55 56 54 54
66 67 70 70 70 73 77 76 74 63 74 76 74 70 69 68 69 69 71 72 72 71 71 70 69 66 65 60 58 56 53 56 60 67 64 65 62 56 56 54 54 54 54
60 59 59 59 60 62 67 66 66 66 65 66 66 67 64 66 69 68 68 68 68 64 65 65 65 65 61 54 52 51 41 34 46 39 53 53 54 56 55 54 52 52 52
59 59 59 59 58 58 59 61 63 65 65 62 60 62 66 67 67 68 65 63 65 67 66 66 62 60 61 65 59 41 35 34 44 35 55 60 59 55 50 47 46 47 47

GFSGL_sfc_temp_069.txt.gz
Temp
88 88 86 86 85 86 85 84 84 84 84 84 83 82 82 81 80 83 82 82 81 80 81 81 81 81 79 75 77 72 74 74 71 63 65 65 66 68 70 73 72 73 70
87 88 87 86 84 83 85 86 86 83 84 84 84 84 81 82 84 83 82 84 82 80 80 79 79 80 79 78 76 74 74 75 74 62 62 61 63 68 70 71 72 76 73
86 88 88 84 84 82 86 86 85 84 84 85 84 82 81 82 83 83 82 83 82 82 81 79 79 79 78 79 75 74 73 74 73 64 61 61 61 65 66 71 70 71 74
87 87 89 86 84 86 86 86 84 85 85 85 84 83 84 84 83 83 82 81 81 82 80 80 81 79 77 77 75 75 74 74 72 63 60 59 60 62 65 66 66 71 67
90 89 89 89 88 87 86 86 85 85 85 85 82 82 81 84 83 82 82 81 81 81 82 81 79 72 67 69 74 75 72 72 68 65 60 59 59 59 61 69 70 72 70
90 89 88 87 85 85 84 85 85 81 82 80 82 81 80 80 64 69 71 82 81 81 80 81 79 71 68 66 67 65 71 71 67 66 63 60 61 62 67 65 67 66 63
87 89 88 86 85 82 83 83 82 81 79 79 79 80 79 77 62 63 66 71 80 81 80 80 81 81 74 77 66 65 66 65 69 71 66 65 62 65 67 62 64 68 69
85 88 86 85 84 84 83 82 82 81 79 78 78 78 77 76 60 59 62 68 74 79 80 81 80 79 76 76 78 77 75 74 71 73 70 69 71 70 68 69 65 66 68
86 86 86 85 84 80 80 81 81 80 78 78 78 77 76 73 57 56 59 67 71 75 78 79 79 79 63 64 77 77 74 73 62 60 61 62 65 65 68 66 62 63 61
86 86 86 85 84 83 81 79 80 78 78 82 80 78 70 74 55 54 57 67 66 74 74 75 64 64 60 59 73 75 73 74 76 73 72 66 67 67 63 71 71 66 68
89 87 86 85 83 83 82 79 78 79 81 79 77 77 76 73 70 53 52 63 65 66 71 74 74 57 55 55 54 72 70 68 71 75 75 75 74 72 71 72 71 69 66
87 85 84 83 84 83 79 79 80 79 76 75 75 75 79 77 60 54 52 53 62 66 66 70 69 54 52 52 56 59 57 62 78 76 74 73 72 73 74 75 75 75 74
81 78 79 78 80 79 77 74 76 75 78 79 78 78 80 74 77 54 51 51 53 65 68 58 57 50 50 52 52 54 53 73 76 77 77 77 78 79 78 76 75 73 71
69 69 71 73 75 75 79 78 78 81 77 74 77 76 77 74 76 73 72 70 57 63 65 70 67 61 61 64 65 60 68 72 73 74 76 78 79 76 74 75 72 71 70
74 71 74 77 75 73 77 78 81 76 72 78 79 79 78 77 71 54 55 64 63 61 62 73 72 71 70 70 71 71 68 71 72 74 75 76 75 73 72 72 71 71 69
72 78 79 79 78 78 77 76 54 55 51 49 47 59 75 53 46 45 43 43 43 45 58 60 60 62 64 66 68 73 73 69 72 75 73 67 59 59 60 65 73 72 70
76 77 79 75 79 78 79 80 77 63 48 47 47 47 47 46 43 43 42 43 43 47 60 61 61 61 61 61 61 62 61 64 65 60 59 61 59 59 57 58 62 66 68
73 60 76 80 81 80 80 77 82 81 77 75 51 54 44 44 44 44 43 45 68 57 69 66 64 63 63 63 62 62 61 60 58 59 58 59 59 57 56 55 56 56 56
63 64 67 69 70 68 73 78 80 82 80 82 80 54 51 43 43 43 42 69 76 77 78 75 71 67 65 64 62 61 59 58 56 56 54 55 55 54 54 56 57 52 54
60 59 60 61 63 67 74 75 77 76 78 75 70 66 70 65 73 73 71 76 74 76 77 75 73 71 67 65 64 62 60 59 58 58 56 56 55 56 56 57 59 59 58
61 61 62 63 67 63 63 71 77 76 78 76 68 62 49 77 76 72 75 75 74 71 68 67 75 70 68 67 69 69 70 67 64 62 59 57 55 54 54 54 55 55 55
71 72 70 71 77 78 79 82 82 80 75 71 67 70 52 76 75 70 69 70 68 72 77 75 77 73 71 69 68 66 66 64 62 61 62 63 60 58 57 57 56 55 54
73 74 76 75 77 70 77 80 79 76 77 75 74 65 64 67 68 69 73 71 68 71 72 71 69 69 71 70 68 63 59 55 56 57 56 57 59 58 57 56 56 56 54
67 69 70 70 73 74 70 69 71 64 65 66 68 73 72 72 72 68 70 69 69 68 70 68 69 67 67 67 65 63 55 50 58 60 62 63 59 55 55 54 54 54 54
63 62 62 63 69 68 70 70 69 69 70 70 70 69 70 70 68 68 69 67 69 67 66 69 68 67 66 66 65 63 44 34 51 41 66 64 63 61 61 59 57 56 52
62 61 60 61 63 67 67 67 68 67 66 67 68 68 67 68 65 67 67 68 64 61 63 66 69 65 61 64 60 42 36 34 45 34 52 63 61 61 61 60 59 57 56

GFSGL_sfc_temp_072.txt.gz
Temp
85 81 81 82 82 82 81 81 82 83 82 83 82 82 81 79 77 75 75 75 73 74 75 74 75 75 72 74 73 72 70 69 64 63 65 66 66 66 68 68 69 66 65
85 82 81 81 83 82 82 82 83 81 82 82 82 80 81 80 79 78 77 78 77 76 75 76 75 75 75 73 71 71 70 69 64 61 62 61 63 67 68 67 69 71 66
86 83 81 80 82 80 81 82 82 81 81 82 82 81 78 80 78 79 79 78 78 78 76 75 75 75 73 73 72 71 70 67 65 62 60 61 61 65 65 66 67 67 68
86 84 82 82 81 81 81 82 81 81 81 79 79 79 78 79 81 80 79 78 77 78 77 76 76 74 72 73 73 71 69 68 65 62 60 59 60 62 65 63 63 66 62
84 84 84 81 81 79 81 82 81 80 80 79 78 78 79 78 76 74 79 78 77 76 76 77 73 70 67 67 70 71 70 68 65 62 60 59 59 60 61 64 64 65 63
84 84 85 84 80 79 79 81 81 80 81 81 79 77 78 77 66 69 71 72 72 75 73 75 71 68 66 67 67 65 70 69 66 63 62 59 60 61 63 64 65 64 61
86 86 84 83 81 80 80 80 80 78 79 78 78 77 75 77 64 64 66 69 69 71 73 74 77 77 72 71 66 66 66 66 69 68 64 63 61 63 64 64 62 62 62
85 84 83 82 80 78 79 79 78 78 78 77 77 77 76 69 61 61 62 69 67 69 72 75 74 73 70 73 71 71 69 69 67 71 69 67 66 66 66 64 62 62 63
84 82 81 82 80 79 78 78 78 76 76 76 77 76 76 69 59 58 62 68 66 67 68 70 71 70 64 65 70 69 69 66 61 62 62 63 64 63 66 64 61 59 58
83 81 82 82 80 79 79 78 77 76 75 78 77 77 71 72 56 55 60 67 65 64 66 69 66 67 60 61 67 67 66 68 66 65 64 64 64 64 63 66 65 62 63
82 79 79 80 80 79 78 77 76 76 76 76 75 76 75 73 63 53 53 68 66 65 64 63 65 58 56 55 54 67 63 62 69 69 69 68 68 67 67 67 67 65 62
78 78 75 78 82 80 77 75 76 75 75 74 74 74 75 72 60 53 52 55 62 69 67 63 62 53 54 54 57 58 58 61 68 68 68 68 68 68 68 68 68 69 67
61 61 72 75 77 77 76 74 76 75 76 73 73 73 74 75 69 53 51 51 53 63 69 62 58 52 51 52 53 55 55 66 66 67 68 68 70 71 71 69 69 68 67
61 60 69 71 73 74 71 72 72 74 74 76 74 71 71 73 72 68 67 62 55 60 64 65 63 60 58 62 61 57 62 64 65 65 66 69 70 67 66 66 64 64 63
66 66 68 70 69 70 71 71 76 63 70 74 75 75 73 68 62 54 62 65 62 55 60 68 67 66 66 67 66 67 62 62 62 63 65 68 67 66 64 66 64 63 62
69 68 69 71 69 70 69 67 57 57 51 47 47 64 61 52 45 44 44 44 45 46 62 62 61 61 61 61 61 62 64 64 63 62 63 65 60 59 58 59 61 62 62
68 69 69 66 68 68 69 71 68 61 48 45 46 47 48 48 44 44 44 44 44 48 64 64 61 61 61 62 62 61 60 61 61 60 58 59 59 58 58 58 58 57 57
59 57 64 64 65 64 72 75 69 70 66 68 50 51 44 44 45 44 44 45 60 54 66 68 64 62 62 62 62 61 61 60 59 57 59 58 58 57 56 55 55 55 55
58 57 58 59 61 62 68 71 72 69 71 70 66 53 49 43 44 45 42 64 70 69 66 68 67 67 64 63 62 62 62 60 58 58 57 57 56 55 55 55 55 51 53
59 56 56 57 57 60 63 65 64 64 62 64 67 68 64 58 63 65 63 70 70 70 67 64 66 66 67 66 64 62 63 62 62 60 60 59 59 57 56 56 57 56 56
64 63 59 59 58 58 60 60 61 61 63 63 61 59 49 64 66 67 67 65 68 69 68 66 69 64 64 61 62 63 60 60 60 60 60 59 58 57 57 56 55 55 55
66 66 61 61 64 61 60 61 63 62 64 64 62 61 54 71 70 69 68 68 68 68 69 68 69 68 66 64 62 61 60 59 59 57 56 56 56 57 56 55 55 54 54
70 70 71 72 69 65 69 72 70 71 70 69 69 67 69 69 67 67 69 69 68 68 68 68 67 66 67 64 62 60 58 56 59 60 59 59 59 57 57 55 55 54 53
64 66 68 69 68 69 68 64 65 60 66 69 69 66 66 65 67 67 67 67 66 67 66 67 65 65 64 64 63 60 53 48 57 57 57 59 59 57 57 56 56 55 54
63 63 65 68 66 68 68 66 65 66 67 64 65 65 68 67 66 66 66 65 64 64 65 64 59 60 61 60 57 52 39 34 43 38 54 57 59 58 57 58 55 55 54
63 63 64 67 66 67 66 66 66 65 65 67 67 67 66 66 66 66 63 63 64 64 65 66 64 63 60 56 48 35 32 31 37 32 40 54 57 56 54 55 56 54 53

GFSGL_sfc_temp_075.txt.gz
Temp
75 75 74 74 74 73 73 73 73 73 73 74 74 72 72 71 71 70 69 69 69 69 70 70 70 70 69 68 68 68 68 67 62 63 63 65 65 66 66 65 64 61 63
77 76 76 75 74 73 73 73 74 72 73 73 74 72 72 73 72 73 73 72 70 69 70 70 70 72 69 68 68 68 67 67 63 61 62 62 63 65 65 64 66 65 61
76 77 75 75 75 73 73 74 73 73 73 73 73 72 72 72 73 74 73 72 73 71 73 73 71 69 68 68 68 67 66 66 64 62 61 61 62 64 64 65 65 61 63
78 76 74 74 74 74 74 74 73 73 72 72 73 75 75 74 74 74 73 71 71 71 73 73 70 68 66 67 67 66 65 64 63 62 61 60 60 62 63 61 60 59 57
79 77 76 76 74 73 73 73 73 73 73 75 75 74 74 71 72 71 73 70 69 70 71 69 68 67 67 66 66 67 67 63 62 60 59 59 59 60 61 62 61 58 57
80 79 75 76 75 73 73 73 73 72 72 71 70 71 69 70 66 68 68 67 67 68 67 67 66 66 66 66 66 66 66 65 62 60 59 59 60 61 62 63 61 58 55
80 79 75 76 74 73 73 75 71 71 71 70 70 70 69 66 63 64 66 64 65 66 68 67 68 70 66 64 65 65 65 66 66 64 61 60 60 62 63 62 61 63 58
75 76 76 76 74 73 75 75 71 70 70 70 69 69 68 65 61 61 63 63 63 67 69 69 66 66 65 64 62 63 64 66 66 68 65 63 64 64 65 65 62 61 62
77 77 78 78 75 72 73 71 71 70 70 69 69 69 67 62 58 58 61 61 62 64 67 68 68 65 63 63 66 64 62 61 60 62 63 62 62 62 65 64 60 59 58
78 77 77 76 73 72 73 72 71 70 70 69 69 69 66 64 55 55 59 60 60 61 63 66 65 65 60 60 63 62 62 62 62 61 61 61 61 61 62 65 64 60 60
72 69 64 62 62 69 71 71 70 70 68 68 69 67 67 65 60 52 53 61 60 61 61 60 63 58 57 56 59 62 60 60 62 61 62 61 62 63 65 65 64 64 61
65 63 62 61 64 63 64 68 70 67 67 67 67 68 67 65 60 52 52 54 61 62 60 59 59 53 54 54 55 58 57 59 60 62 62 62 61 62 63 63 64 64 62
63 60 62 61 64 63 63 64 68 69 67 66 66 66 65 64 59 54 52 51 53 60 61 59 54 51 52 53 54 55 55 57 57 58 58 59 62 67 66 63 63 63 63
59 60 61 62 65 60 61 65 67 67 66 65 66 64 66 65 60 57 56 54 55 56 58 57 57 57 56 57 58 55 58 57 57 56 58 60 61 60 61 62 61 62 60
59 60 60 60 62 66 66 65 66 62 63 65 64 65 65 63 60 56 57 60 59 57 58 61 57 56 56 57 59 58 56 56 56 57 57 59 62 61 59 60 58 58 58
64 63 62 62 65 65 62 60 54 56 52 51 53 58 54 51 45 45 45 45 46 48 57 59 57 59 60 60 60 61 61 60 56 56 57 59 58 58 58 58 58 58 57
58 61 63 61 63 62 63 61 60 57 48 45 44 48 49 48 44 44 46 47 47 50 56 59 58 58 58 58 58 60 59 59 60 59 59 59 58 57 57 57 57 57 57
58 54 58 57 60 61 61 62 61 60 60 59 48 48 42 44 44 44 45 47 51 51 56 57 57 59 60 59 58 59 59 58 58 57 57 57 57 57 56 56 55 55 55
57 57 57 58 57 57 59 60 61 62 60 60 56 50 44 44 47 45 43 57 59 57 58 61 59 59 60 60 59 58 58 56 56 56 54 54 53 53 53 54 54 50 52
58 57 56 57 58 59 59 59 59 60 60 60 59 59 54 52 55 57 57 60 59 59 60 59 58 58 60 59 58 57 56 55 54 54 57 57 57 55 54 54 53 51 50
60 59 59 57 58 59 59 59 59 59 60 60 59 56 50 59 60 60 60 59 60 61 60 59 59 57 58 55 55 55 55 54 53 53 53 55 56 55 54 54 54 54 54
59 60 59 58 59 59 59 60 59 59 60 60 59 57 53 63 63 62 61 61 61 62 62 61 60 59 56 54 53 55 54 52 50 50 50 51 51 52 51 51 52 53 52
59 60 61 62 60 59 60 59 60 60 60 60 62 64 64 64 63 62 62 61 61 60 59 59 58 57 56 55 53 50 47 45 47 48 47 50 51 51 51 50 49 48 48
57 60 60 59 60 59 60 60 59 56 61 62 61 61 61 61 62 62 60 57 56 56 56 57 57 55 53 52 49 44 41 42 43 43 45 47 48 48 50 52 50 52 51
56 56 57 57 59 61 60 60 62 61 61 60 59 60 60 60 59 57 55 55 55 54 54 55 54 51 49 46 42 38 31 31 36 34 39 43 46 49 49 50 51 51 49
59 58 59 60 61 60 58 59 60 60 60 60 57 56 56 56 55 54 54 54 54 54 54 53 51 48 45 42 39 35 33 33 36 33 35 41 45 48 49 47 47 45 44

GFSGL_sfc_temp_078.txt.gz
Temp
72 71 72 71 71 70 70 70 70 70 70 70 70 70 70 69 69 68 68 68 67 67 68 68 67 68 68 68 69 68 67 65 62 62 63 65 65 65 65 64 65 63 65
73 72 72 72 72 70 70 71 70 70 70 71 70 70 70 70 69 68 68 70 67 67 67 68 67 69 68 67 67 67 67 66 63 61 63 62 63 65 63 61 64 63 63
73 72 72 71 71 70 70 70 70 70 70 70 70 69 69 69 69 69 70 68 69 68 67 67 68 68 66 66 66 66 65 66 63 62 60 61 62 64 62 62 59 58 62
73 73 72 71 72 72 71 71 70 70 70 70 69 71 70 70 70 71 70 68 68 69 69 68 67 67 66 66 66 65 65 64 63 62 61 61 61 62 64 61 59 59 58
75 73 73 73 73 72 71 70 71 70 71 70 70 73 74 73 71 71 71 68 67 67 68 68 67 67 68 66 65 65 64 63 62 61 60 60 60 61 61 61 59 57 56
76 75 75 73 72 72 70 70 71 70 70 69 71 72 67 69 64 65 67 67 66 66 65 65 65 67 65 65 65 66 65 63 61 60 59 60 61 62 61 62 59 57 55
77 77 75 75 72 72 72 71 71 69 68 68 67 67 67 66 62 63 65 64 65 64 65 64 65 68 64 63 63 64 65 65 65 64 61 61 60 62 63 62 61 59 57
75 75 74 74 70 69 69 67 70 69 68 67 67 67 66 65 60 60 63 62 63 67 67 67 65 64 63 63 62 62 63 65 65 66 63 60 60 65 65 65 62 61 61
74 73 73 71 64 64 64 63 65 66 67 68 68 67 66 64 58 58 60 60 61 65 66 67 67 64 61 60 64 61 61 60 59 61 62 60 60 60 63 62 60 59 58
68 72 69 68 65 63 59 62 62 62 61 68 68 68 65 63 54 55 59 59 59 59 61 63 62 63 58 59 63 61 59 60 61 60 61 60 59 59 61 63 61 61 60
66 65 64 66 67 64 64 63 61 61 61 67 67 66 66 64 58 52 54 59 59 59 60 61 62 57 54 55 56 61 60 60 60 60 59 59 60 59 59 60 60 62 61
63 62 62 63 65 64 63 63 61 62 61 66 66 66 66 64 58 52 51 56 59 60 59 60 60 53 51 51 55 53 54 56 59 59 59 59 59 59 60 61 61 61 61
60 60 59 61 63 63 62 61 61 61 64 66 65 65 64 63 60 52 50 51 54 59 60 57 53 50 51 52 54 54 54 56 55 55 57 57 59 61 61 60 60 60 60
59 58 59 59 59 59 61 60 60 61 61 65 65 64 64 64 61 58 56 54 54 57 57 57 56 55 55 56 56 54 54 54 55 54 53 55 56 57 58 60 59 60 60
59 58 59 59 62 59 59 58 60 63 65 65 66 65 64 63 62 56 56 58 58 55 56 58 56 55 55 55 56 57 55 54 54 53 54 57 59 59 57 56 57 56 59
62 62 61 63 62 63 61 59 52 50 51 51 52 60 60 55 51 51 46 47 47 48 58 59 59 59 59 59 60 60 60 59 56 55 55 55 56 57 57 57 58 57 56
56 58 58 60 60 61 61 60 57 54 48 46 47 48 50 49 45 43 43 44 45 50 56 59 59 58 56 58 59 60 59 59 60 59 58 58 58 58 56 57 57 57 56
58 54 57 57 59 59 61 62 60 59 57 55 44 44 42 42 42 42 43 46 53 53 56 56 56 56 58 56 58 58 57 57 56 56 55 54 54 55 55 55 55 54 54
57 57 58 58 58 57 60 61 61 60 58 53 50 47 45 43 42 42 42 55 56 54 55 57 57 57 57 56 55 55 54 53 55 56 55 54 55 54 53 54 54 50 49
58 57 56 58 58 59 58 59 60 60 58 57 57 54 51 50 56 56 55 58 58 58 58 58 56 57 58 56 55 54 53 53 53 55 56 56 55 55 54 54 54 52 52
55 58 58 57 58 59 59 58 58 60 60 59 59 57 49 58 58 58 58 57 58 57 57 57 55 54 56 54 54 50 51 52 49 48 49 50 51 50 52 53 53 54 53
54 54 56 56 59 58 58 59 59 59 60 59 58 55 49 58 57 58 59 58 59 60 59 56 54 51 50 50 49 48 47 47 48 46 47 48 48 48 48 48 47 48 49
54 55 55 55 56 56 59 58 58 59 59 59 59 57 60 58 58 58 58 58 57 56 55 55 53 50 49 47 46 45 43 42 43 44 45 46 46 46 47 47 48 46 46
54 54 55 54 54 55 56 54 54 53 58 59 59 60 60 60 60 59 59 57 57 55 54 53 51 49 46 44 41 40 39 38 40 40 42 43 44 45 46 46 47 49 49
53 54 58 54 54 54 56 57 57 60 58 59 59 59 58 58 57 57 56 54 54 52 51 49 47 45 43 42 40 38 34 31 37 36 39 41 43 45 45 45 45 44 43
58 58 58 59 59 58 57 58 59 59 58 58 58 57 55 55 52 52 52 52 50 49 47 45 44 43 41 40 40 36 33 32 35 33 40 42 42 41 41 42 43 42 41

GFSGL_sfc_temp_081.txt.gz
Temp
70 70 70 70 70 70 69 69 69 69 69 69 69 69 69 69 68 67 66 67 66 65 65 65 66 67 67 67 67 67 67 65 62 62 63 65 65 65 65 64 65 64 65
71 70 70 71 70 69 69 69 69 68 68 69 69 68 68 68 68 67 67 68 66 65 65 66 66 67 66 65 66 66 66 65 63 61 62 63 63 64 63 62 64 64 64
70 70 70 70 70 69 69 69 69 68 68 68 68 68 68 68 67 67 67 68 67 66 65 65 66 67 65 65 65 65 63 65 63 62 61 62 63 63 61 61 61 60 64
72 71 71 70 70 70 70 69 69 68 68 68 68 68 68 68 68 68 67 66 66 67 67 66 67 67 66 65 65 65 65 64 63 63 61 62 62 62 62 60 58 57 59
72 71 71 72 71 71 69 69 69 68 69 68 67 67 68 68 70 67 69 65 65 65 66 67 68 67 68 66 64 65 64 63 62 62 60 60 60 61 60 61 59 58 57
71 73 72 71 70 70 69 67 67 67 67 68 67 67 68 68 65 65 67 65 65 65 64 65 65 67 65 65 65 66 65 63 61 61 60 60 61 62 61 61 58 57 56
71 75 73 70 69 66 65 65 63 63 65 65 66 67 66 65 62 62 65 64 63 63 63 64 65 67 65 64 63 64 64 64 65 64 61 61 61 62 63 61 60 58 58
71 72 70 69 65 65 65 64 63 63 63 63 63 65 66 66 60 59 62 62 62 63 64 63 63 64 64 64 64 64 62 64 65 65 64 63 62 64 65 64 61 60 60
71 71 70 68 66 65 64 63 64 62 62 63 63 63 66 67 58 57 60 60 60 62 63 64 64 64 61 60 63 62 61 61 59 60 61 60 60 60 62 63 60 59 58
67 69 70 67 66 64 63 63 65 62 61 62 62 62 64 67 56 55 59 59 58 59 61 62 62 63 57 56 63 62 60 60 60 60 60 59 58 58 60 65 63 60 59
65 65 66 66 65 64 63 62 60 62 62 60 60 61 66 67 59 53 55 59 58 58 59 59 60 57 55 54 56 61 60 61 60 59 59 58 59 58 58 59 60 63 61
61 62 62 63 64 64 62 61 60 59 59 59 60 62 66 65 57 52 52 56 58 59 59 59 59 53 51 53 56 54 53 57 59 59 58 57 57 59 58 58 59 59 59
60 58 58 58 59 62 59 58 59 58 58 60 62 64 65 64 60 52 50 52 54 58 59 57 54 50 49 52 54 53 54 55 55 57 57 57 58 59 59 58 59 59 59
60 58 57 57 57 58 58 59 58 58 58 60 63 63 63 63 61 55 54 54 55 58 56 54 54 54 54 55 56 54 54 53 53 53 52 53 54 55 55 58 58 60 60
60 61 58 59 58 62 59 57 60 59 57 59 61 62 63 63 62 56 56 58 58 57 56 56 56 56 55 55 57 58 56 53 53 52 52 53 54 54 54 54 59 59 59
56 57 58 60 63 62 60 54 49 47 47 51 49 55 61 57 51 50 49 48 48 48 57 59 58 56 56 56 57 59 59 59 57 56 56 56 56 57 57 57 56 54 56
55 56 57 57 60 60 60 60 56 50 45 44 47 48 50 50 48 46 45 44 44 50 59 59 59 59 59 59 58 59 58 59 59 58 58 57 58 57 56 56 56 56 55
57 53 56 58 58 58 60 60 59 58 55 51 46 45 43 44 44 44 44 48 55 55 55 56 56 56 56 57 58 57 57 56 55 55 54 53 54 55 54 54 54 54 54
56 55 57 58 58 57 59 60 59 56 53 52 53 48 44 41 41 42 43 57 55 54 55 55 56 56 55 55 54 53 53 55 55 54 53 52 54 54 53 53 52 49 49
53 57 56 57 58 58 59 59 58 57 56 55 54 52 51 53 55 53 54 56 56 56 58 56 56 55 54 53 52 52 52 52 51 54 55 55 55 54 54 54 54 53 52
52 53 56 57 57 58 58 58 59 57 57 57 57 56 48 58 57 56 56 56 57 57 56 54 54 55 53 53 53 49 48 47 47 48 49 48 48 48 48 49 52 52 51
52 52 53 56 58 56 58 59 59 60 58 58 58 53 47 57 56 55 55 55 56 56 55 52 51 53 53 53 51 51 49 45 45 45 46 47 46 46 46 45 45 45 45
52 53 54 53 54 55 56 58 58 59 59 59 57 57 56 56 55 54 54 54 53 53 54 53 50 47 46 46 45 45 44 42 42 43 44 45 44 44 44 44 44 43 43
51 53 54 53 53 53 53 54 56 53 58 58 57 58 58 58 56 56 56 55 55 54 52 50 48 46 44 42 40 39 39 38 40 40 41 43 43 43 44 44 44 45 43
53 56 56 52 52 54 53 53 53 57 58 57 57 56 56 56 53 55 55 54 52 50 47 46 45 44 43 42 40 39 34 31 36 36 40 42 43 43 42 42 42 42 41
57 57 57 57 56 54 54 55 56 54 55 55 55 54 54 53 54 53 50 49 47 45 43 42 42 42 41 40 38 35 33 32 35 35 39 39 39 38 38 38 39 38 38

GFSGL_sfc_temp_084.txt.gz
Temp
71 71 71 71 71 71 70 71 70 71 71 71 71 71 70 70 70 69 69 69 69 69 69 68 68 69 69 68 68 68 67 66 64 63 64 66 67 67 66 67 67 68 68
72 71 72 72 72 71 70 71 71 71 71 71 71 71 71 71 71 70 69 70 69 69 69 69 69 70 69 69 67 67 66 66 64 63 63 63 65 65 64 63 65 66 66
72 71 72 71 71 71 71 71 71 71 71 71 71 71 71 71 71 70 70 70 70 70 69 69 69 69 68 68 68 67 67 67 66 64 62 63 64 63 61 61 61 62 66
72 71 71 71 72 72 71 71 71 71 71 70 71 71 71 71 71 71 71 70 70 70 70 69 69 70 70 69 68 68 67 66 65 63 62 63 63 63 62 60 58 60 62
70 70 69 71 72 71 70 70 70 69 69 69 70 70 70 70 72 70 70 70 69 69 69 70 70 70 68 68 69 68 67 66 64 63 61 61 61 61 61 61 59 59 60
67 67 66 69 70 70 68 68 69 69 69 69 69 69 69 71 65 65 69 70 68 68 67 69 70 69 68 65 65 66 67 67 64 62 61 62 62 63 61 61 59 58 59
66 66 67 66 68 68 68 68 68 68 68 68 69 68 68 69 62 62 64 70 69 68 68 68 68 69 67 69 64 64 64 64 65 67 63 63 64 65 63 61 60 60 60
66 66 65 66 69 67 67 67 68 67 67 67 68 67 69 69 61 60 62 69 68 67 68 68 68 68 67 68 68 67 67 67 66 67 66 67 67 64 64 64 63 61 60
67 66 68 70 67 66 66 65 66 66 66 67 67 66 67 68 59 58 61 66 66 67 68 68 68 68 62 60 67 67 66 66 60 60 61 60 60 60 63 63 60 59 58
65 66 67 70 67 66 66 66 67 65 65 65 65 64 62 65 56 55 60 65 63 63 65 66 61 66 56 56 67 66 64 65 66 65 65 62 62 62 60 68 64 60 60
65 64 65 67 67 67 65 63 63 64 63 62 62 62 63 64 65 53 56 64 64 62 64 63 65 56 52 51 57 66 64 65 62 66 65 65 65 65 66 67 67 65 62
63 63 62 62 64 65 63 63 63 62 61 62 60 60 62 63 58 53 54 57 60 63 63 64 63 52 50 50 58 54 53 59 64 63 62 63 64 63 65 66 66 67 67
62 62 60 61 61 61 62 62 61 60 59 60 60 60 61 65 65 53 53 55 56 62 64 60 54 48 49 53 51 51 55 65 65 63 63 63 64 65 65 65 65 65 65
58 60 61 60 59 61 60 60 61 60 59 60 61 62 64 65 61 58 58 58 56 60 56 58 56 56 55 58 58 59 63 64 64 64 64 65 64 63 63 64 61 61 61
57 57 58 59 61 61 62 57 58 60 57 60 61 63 64 62 60 56 56 59 61 58 57 58 59 60 60 60 62 62 61 60 56 57 62 63 63 62 64 63 62 61 61
57 57 57 58 59 61 62 57 47 46 44 43 46 55 62 53 50 49 48 49 48 49 59 59 58 60 60 60 60 60 60 59 62 61 58 60 58 59 61 60 61 61 61
56 57 56 57 58 58 59 60 59 51 44 42 41 44 50 51 47 46 47 47 46 51 61 61 60 60 60 60 62 61 59 60 60 58 57 58 58 58 57 57 57 57 56
55 52 57 58 59 59 58 60 59 57 57 52 46 44 45 45 44 45 45 47 53 56 61 60 60 60 60 60 60 58 57 57 57 56 55 55 56 56 56 56 55 55 54
54 56 57 58 59 57 59 59 57 55 53 52 53 47 46 44 44 43 46 59 58 58 58 58 59 60 59 58 58 57 58 58 57 56 56 58 58 58 56 56 57 50 53
55 54 54 57 58 58 59 59 57 57 56 55 55 54 54 55 56 55 56 58 58 58 58 58 58 58 58 58 57 56 57 57 58 60 58 59 59 60 58 56 56 55 54
55 55 55 57 58 58 59 59 58 58 58 57 56 54 48 58 56 56 57 57 59 58 56 57 58 58 57 57 57 54 56 56 56 56 57 57 57 56 56 57 55 54 54
55 55 56 57 59 59 60 60 59 59 59 58 56 52 48 57 55 55 55 55 55 54 53 53 54 57 58 57 56 54 53 52 54 56 54 54 55 54 54 55 55 55 56
56 56 57 58 58 56 60 60 60 59 58 58 57 56 56 54 54 53 53 53 52 52 52 53 52 53 54 53 53 54 54 52 52 54 54 53 53 54 54 54 54 54 54
56 56 57 56 57 58 58 58 57 53 57 57 56 56 56 55 54 54 53 52 51 51 52 52 51 51 49 49 49 49 49 49 51 52 53 54 54 52 54 53 52 52 52
58 59 58 56 56 57 58 58 57 57 57 56 55 55 55 54 54 53 54 54 54 52 51 50 50 50 49 48 47 47 37 33 45 41 52 52 52 51 53 53 52 52 51
57 57 58 57 57 56 56 56 56 57 55 55 55 55 54 53 51 53 53 53 52 51 50 49 49 48 48 48 46 37 33 33 42 38 51 52 51 50 50 49 48 49 48

GFSGL_sfc_temp_087.txt.gz
Temp
78 79 79 79 80 80 79 80 80 80 79 80 80 80 79 78 77 75 75 76 75 76 77 77 77 77 80 79 75 71 71 69 66 66 67 69 68 67 68 71 71 74 73
79 78 79 80 80 79 79 80 81 80 80 80 81 80 80 80 79 77 78 78 76 75 76 76 76 78 75 77 79 75 75 75 72 67 65 65 66 67 66 64 64 68 68
77 78 80 80 80 78 79 80 80 80 80 82 80 79 80 80 79 79 79 79 78 78 77 77 76 76 75 76 76 76 77 75 73 70 70 68 67 64 63 62 62 64 66
77 78 76 78 79 79 80 80 80 80 80 80 80 80 81 81 81 81 79 78 78 79 78 78 78 77 76 76 76 76 72 72 71 69 68 66 67 65 63 60 59 61 63
76 76 73 74 78 78 77 79 80 80 80 80 80 80 81 81 83 80 80 80 79 78 78 78 79 77 72 73 79 76 71 72 69 67 65 64 63 62 61 61 60 60 61
73 71 73 72 73 72 73 74 79 78 78 77 78 79 79 81 69 66 75 80 79 78 77 78 79 72 71 66 66 67 73 73 70 70 66 65 64 64 62 61 61 60 59
71 69 71 70 70 69 69 72 73 76 77 77 78 78 78 79 63 62 65 80 79 79 78 78 79 81 73 78 65 63 65 65 67 73 70 71 70 67 66 62 62 64 63
71 69 71 71 70 68 67 68 69 72 75 77 77 78 77 79 62 60 62 78 78 79 79 78 77 77 76 77 76 72 70 71 71 74 74 75 74 73 68 66 64 62 60
72 71 69 69 68 68 67 68 69 71 73 75 74 75 75 77 59 57 63 77 78 77 78 78 78 77 66 61 75 70 70 72 63 61 62 61 61 61 66 64 61 59 58
66 69 71 70 70 70 69 69 69 70 71 71 72 72 68 73 59 55 62 80 77 78 76 76 63 73 57 57 73 75 72 71 73 72 71 65 65 65 61 70 67 62 63
67 70 69 68 68 68 68 67 66 65 66 68 69 71 72 71 71 53 54 76 76 73 72 75 79 57 52 52 57 72 71 73 69 73 75 74 74 72 72 71 70 70 68
65 68 68 68 68 69 66 65 64 64 64 64 64 67 72 71 59 57 52 56 65 71 71 73 75 53 50 50 57 55 53 63 74 75 75 75 73 72 75 74 73 71 71
62 62 65 67 68 69 68 68 69 69 67 67 69 70 72 74 74 54 52 53 56 69 73 66 55 48 48 52 53 51 53 74 74 71 73 74 75 74 73 71 72 71 71
61 61 61 61 61 67 69 69 66 65 64 62 61 62 67 71 71 68 59 56 56 62 59 61 62 61 60 63 63 63 76 76 75 75 73 73 75 74 72 71 68 66 65
66 66 63 61 61 63 64 64 62 64 61 64 64 66 68 67 65 57 56 59 61 59 61 67 68 68 69 70 72 73 73 73 73 74 73 71 74 74 74 75 72 68 70
66 67 64 62 63 62 63 63 49 48 45 44 43 49 65 55 49 47 47 48 49 50 60 62 64 68 69 70 68 68 66 64 67 68 71 70 69 63 64 66 68 70 69
64 65 66 64 65 61 61 61 61 47 44 43 43 42 42 46 44 45 45 45 47 52 61 60 62 65 66 64 64 65 61 62 63 62 60 60 60 61 65 63 61 57 57
65 55 66 68 67 63 61 61 60 59 58 55 48 44 42 42 44 43 43 47 53 57 61 61 61 62 60 61 62 61 62 61 61 60 60 60 61 61 60 60 59 59 58
66 67 66 68 68 62 66 62 64 61 57 57 55 49 44 41 42 42 44 58 59 61 61 61 60 61 61 61 61 62 62 60 61 62 63 65 66 66 64 64 62 54 57
66 59 59 67 68 68 68 61 62 60 59 58 57 57 56 56 56 57 59 59 59 59 59 60 60 61 61 61 62 63 64 63 65 66 66 66 66 68 65 63 63 62 62
68 68 59 69 71 69 69 60 59 59 59 58 58 55 46 57 57 58 58 58 58 58 59 59 60 61 62 62 62 63 64 64 65 65 65 65 66 65 65 62 62 64 64
68 68 69 70 70 71 70 66 61 61 60 60 57 54 47 62 57 56 56 56 56 56 57 55 56 58 62 62 62 63 64 65 65 65 65 66 66 65 65 65 65 65 64
69 68 70 70 70 63 70 71 65 59 59 58 57 56 57 55 55 55 54 54 53 53 53 52 53 55 57 60 62 64 65 65 65 66 65 64 64 64 63 63 63 62 63
69 69 68 69 67 67 62 61 61 54 57 57 56 55 55 55 53 53 51 50 50 50 51 53 54 55 55 57 59 61 62 63 65 65 65 65 63 59 63 62 62 61 62
64 65 66 67 67 67 66 60 58 59 59 56 55 56 57 58 55 56 54 54 58 59 59 58 59 58 58 58 58 58 41 36 57 50 64 63 62 61 63 63 62 62 61
63 63 63 62 60 58 64 63 59 57 58 59 59 56 55 52 52 52 56 58 60 60 60 60 59 58 58 59 58 41 34 34 48 41 62 62 62 62 62 60 59 62 59

GFSGL_sfc_temp_090.txt.gz
Temp
86 86 84 83 84 84 84 85 85 86 85 85 85 86 85 84 84 82 81 82 79 79 81 80 79 78 78 79 80 75 76 74 73 76 75 77 73 73 75 76 72 75 73
86 85 85 83 84 84 84 85 86 85 86 86 86 86 86 86 84 82 81 83 80 79 79 79 80 84 80 81 84 79 78 80 79 72 76 74 73 74 69 68 70 70 71
79 86 84 84 82 84 85 85 86 85 86 87 86 85 86 86 85 84 84 84 83 83 83 81 81 80 78 79 81 77 79 78 77 79 78 78 75 68 65 64 64 65 68
68 78 82 83 84 85 84 85 85 85 86 86 86 86 86 87 87 86 85 84 83 84 84 83 83 82 80 78 78 78 78 78 76 74 74 73 75 69 67 63 61 63 65
65 65 79 83 85 85 85 84 85 85 85 86 86 86 86 87 89 86 86 85 83 83 84 84 84 82 73 76 83 78 77 75 76 73 70 69 65 64 63 63 61 61 62
69 71 75 78 81 81 83 83 83 83 84 83 85 85 85 89 72 70 76 86 84 83 82 83 84 75 74 68 68 69 73 77 77 80 79 75 70 66 64 61 60 59 59
69 72 73 74 78 79 81 81 81 81 83 82 83 84 84 85 67 65 67 83 85 84 83 83 85 89 79 83 67 65 66 66 67 73 72 75 72 73 68 63 62 64 67
71 71 73 73 77 77 75 78 78 80 78 79 78 79 79 83 65 61 64 80 83 84 84 82 81 83 83 82 82 80 80 78 76 80 78 77 76 76 73 69 66 62 63
72 73 73 75 76 78 73 76 76 76 76 80 81 80 79 77 63 58 64 80 81 82 82 83 83 82 71 64 80 77 76 76 66 64 64 64 64 64 70 69 62 60 59
68 71 74 74 74 72 73 72 74 75 77 81 79 74 70 78 63 56 64 81 79 79 79 79 66 77 59 59 78 76 73 74 78 76 74 68 68 68 62 72 68 64 63
67 69 72 74 75 75 75 74 71 71 71 70 71 72 75 74 74 54 54 79 83 82 78 78 78 60 54 54 59 79 74 75 72 76 76 76 75 74 75 71 72 70 68
66 67 68 71 74 76 72 72 71 69 66 66 66 68 71 72 62 59 54 56 70 80 80 82 77 56 51 51 60 57 58 65 81 75 73 76 78 77 79 78 76 77 77
69 68 69 68 69 73 73 73 74 73 69 70 73 73 78 82 80 57 55 53 54 68 82 75 62 52 49 54 54 53 55 78 81 76 79 76 75 79 79 77 76 74 73
68 69 67 67 66 68 67 71 75 76 74 70 71 75 77 79 80 82 79 71 57 64 67 71 61 62 62 71 65 64 79 82 79 80 80 79 77 73 72 73 76 74 72
72 73 73 75 68 68 70 68 65 68 64 66 69 74 73 73 76 63 66 69 71 68 65 63 61 63 67 72 75 75 79 80 80 79 78 76 76 75 71 73 72 76 75
71 75 75 76 77 74 70 66 53 50 46 45 44 48 69 57 49 47 47 48 50 50 62 61 61 63 68 72 70 73 76 74 79 79 79 79 78 77 77 77 77 73 73
69 71 74 73 77 73 73 70 64 58 46 43 42 43 42 43 42 43 43 44 46 51 62 62 63 65 68 70 70 73 72 71 71 71 72 66 69 72 64 66 68 69 65
70 60 73 76 77 76 72 69 71 70 69 66 52 48 47 41 41 41 42 46 53 55 63 62 62 64 64 65 67 66 65 62 67 67 67 69 67 64 59 59 59 61 60
72 74 73 75 77 72 73 71 66 69 66 63 62 54 48 40 40 41 43 59 59 61 61 61 62 62 61 62 61 61 61 62 65 66 66 65 65 65 63 64 63 56 59
74 64 62 73 76 77 77 73 68 66 64 65 63 59 59 54 56 54 57 59 60 60 61 61 61 61 60 60 59 61 60 61 63 64 66 66 67 69 69 67 68 66 65
76 76 66 75 79 79 77 74 74 65 64 66 67 60 45 59 58 59 58 58 59 58 58 58 58 59 59 59 60 62 64 64 64 65 65 66 68 66 66 66 65 66 69
77 77 77 78 78 78 78 74 72 65 63 69 63 64 47 62 58 57 56 57 58 58 59 59 59 59 59 59 59 59 61 61 62 64 66 68 69 70 70 70 71 71 70
73 76 77 78 77 68 74 71 67 68 62 60 60 58 58 62 56 55 56 57 57 57 58 58 59 59 59 59 61 63 64 65 68 69 68 68 68 68 69 69 70 70 70
71 71 75 77 72 75 70 66 69 56 60 57 57 56 55 54 54 53 53 53 53 53 55 59 60 62 61 64 65 67 67 67 68 69 68 68 68 64 69 68 69 68 68
71 71 70 73 72 70 68 65 62 61 60 58 58 59 57 55 54 54 52 52 55 60 62 62 61 61 62 63 64 62 44 37 61 55 69 69 68 68 69 69 68 68 67
74 71 71 71 67 65 66 66 64 63 62 60 62 59 55 54 55 56 58 57 60 63 66 67 68 66 65 66 62 42 35 36 53 42 68 69 68 69 69 68 66 67 65

GFSGL_sfc_temp_093.txt.gz
Temp
83 87 87 87 86 86 85 87 87 88 85 86 87 87 86 84 84 83 83 85 81 81 82 80 79 79 78 76 77 76 75 75 70 73 75 78 76 76 78 78 77 78 75
77 82 81 84 83 83 82 86 85 87 84 84 86 86 87 84 81 83 84 85 82 81 81 82 82 83 79 79 80 77 76 77 73 72 75 73 74 76 74 73 72 69 73
70 71 71 68 79 80 81 84 83 85 85 84 83 85 87 87 82 81 84 84 84 80 80 80 79 79 80 78 80 76 79 77 77 75 75 78 80 74 66 66 65 66 67
69 68 66 65 66 72 82 82 83 85 83 86 83 86 87 88 88 81 83 84 82 81 81 84 81 78 80 79 78 79 79 77 78 74 75 73 75 75 72 65 63 64 65
71 69 67 67 67 69 79 80 83 83 85 83 84 83 83 89 91 82 80 82 81 83 81 85 86 81 76 77 80 79 78 78 79 78 75 72 71 68 67 68 65 63 63
73 71 69 67 68 68 77 78 80 82 83 84 84 83 84 90 77 73 81 87 80 82 80 81 81 76 76 71 70 71 75 77 75 72 72 79 75 72 68 67 63 60 59
72 72 70 69 70 71 77 79 78 80 82 82 84 86 86 87 68 67 70 86 85 80 78 77 79 89 79 83 68 67 68 67 68 75 76 76 76 74 71 65 61 61 62
73 73 74 75 74 76 76 77 78 80 81 83 83 83 85 86 63 63 66 82 83 83 81 78 83 83 83 83 80 78 79 79 76 80 79 79 78 77 74 70 66 64 63
73 73 74 75 74 76 75 74 76 76 80 78 82 81 82 83 63 60 65 82 82 82 84 84 84 82 74 67 82 77 78 78 67 65 63 65 67 69 72 72 63 61 58
71 74 75 74 74 74 75 70 72 76 76 79 80 82 77 82 62 57 64 83 82 83 83 83 70 77 66 62 79 80 76 78 80 77 75 68 67 69 65 74 70 64 62
69 72 74 75 75 76 73 75 74 73 72 74 78 78 79 77 76 55 56 79 83 84 83 84 85 63 57 57 62 80 77 77 74 77 78 78 78 74 75 74 73 72 67
71 69 69 71 73 75 75 74 75 74 72 71 71 74 79 77 63 58 55 57 70 78 82 81 77 58 54 54 58 65 59 65 76 74 77 74 77 77 78 74 75 73 74
72 71 71 71 71 72 71 71 75 78 77 75 75 76 78 82 83 60 55 54 56 69 79 75 60 53 53 55 54 54 56 77 78 74 76 75 73 80 73 73 73 75 74
72 73 73 72 69 71 74 76 76 76 75 76 74 72 78 79 80 83 80 71 59 65 67 73 70 62 61 68 65 63 78 80 77 73 80 77 78 74 73 71 72 74 69
72 75 76 79 76 72 72 73 74 75 69 68 70 72 72 73 71 53 55 68 69 66 69 76 71 67 69 68 74 71 71 72 69 74 75 73 72 72 72 73 72 70 71
72 76 76 78 80 80 74 72 58 55 51 47 45 51 64 56 49 45 43 43 45 48 62 67 65 65 66 67 66 65 66 66 69 73 73 71 70 72 72 71 72 69 68
71 73 75 74 80 79 79 76 71 65 48 45 44 44 42 45 43 43 42 42 43 45 58 63 65 65 67 64 64 65 65 67 70 70 71 69 69 68 68 66 71 72 69
73 64 76 78 79 80 80 77 73 74 71 71 52 50 48 42 41 41 41 42 56 51 60 63 66 65 64 64 63 63 65 65 69 68 69 70 70 68 66 67 67 64 65
76 78 77 77 78 76 78 76 74 74 73 72 74 58 53 42 41 40 40 60 61 60 61 63 64 64 64 63 63 62 62 62 62 63 64 66 68 68 64 62 61 56 59
77 69 64 77 78 79 80 72 74 72 72 72 70 69 64 59 58 56 56 60 60 60 62 61 62 62 61 61 61 60 60 60 61 62 61 61 63 66 63 63 64 63 64
78 80 73 79 81 82 81 77 75 72 71 69 65 65 47 60 58 57 58 59 59 59 60 60 60 60 60 60 59 59 60 60 60 61 62 63 64 65 67 67 67 66 67
78 80 79 81 82 81 79 77 75 70 72 68 70 68 49 58 58 58 57 57 57 58 58 58 58 59 59 60 60 59 59 58 59 60 59 62 64 65 66 66 66 67 68
75 73 74 74 72 67 72 77 72 69 68 69 62 64 62 59 56 54 56 57 58 58 59 58 58 58 59 59 60 60 59 62 61 61 62 65 66 66 67 67 68 68 69
77 70 72 73 74 75 72 69 68 60 64 65 61 58 56 54 55 54 54 54 54 57 58 60 61 60 60 61 62 65 67 66 66 66 67 67 67 62 68 69 70 70 69
79 77 77 74 73 73 69 67 65 60 61 65 62 62 58 55 54 53 53 56 58 65 65 65 64 65 67 67 68 64 44 38 63 58 68 68 67 67 68 69 69 69 68
79 78 78 71 71 76 73 70 67 66 67 66 67 62 58 55 56 56 54 56 60 62 63 64 65 65 67 68 66 43 37 37 52 47 67 68 67 67 68 68 68 69 68

GFSGL_sfc_temp_096.txt.gz
Temp
83 84 83 81 82 82 81 80 81 85 83 81 83 82 81 81 81 78 78 79 77 76 76 76 75 75 74 73 72 72 69 69 67 69 72 72 71 72 74 73 72 71 69
82 81 79 70 78 76 78 79 81 82 83 81 82 82 82 81 79 79 78 81 78 77 77 76 75 77 74 74 73 72 72 71 70 68 71 71 71 72 73 71 70 70 69
70 70 67 67 65 67 70 76 79 80 80 82 82 81 82 82 80 79 79 80 80 78 78 76 76 76 74 72 72 72 72 72 72 70 69 71 71 70 67 68 67 67 67
69 69 67 66 67 68 70 70 75 77 78 79 79 81 82 82 82 79 79 79 78 80 78 77 76 76 75 73 73 72 72 71 71 70 70 70 70 69 67 64 62 65 65
69 67 67 67 67 67 69 72 74 76 77 79 79 80 82 84 87 80 80 79 78 77 78 78 77 77 78 76 74 72 72 71 70 71 70 69 68 67 67 67 65 63 63
71 69 67 68 68 68 70 73 74 76 77 78 79 79 79 85 77 73 79 80 78 78 76 78 78 75 74 72 72 72 74 71 70 70 69 68 68 69 70 68 64 61 59
71 74 70 70 70 69 70 72 73 75 77 77 77 77 77 79 69 68 72 82 80 78 78 77 79 84 75 77 69 69 69 69 69 71 69 70 70 70 69 66 63 62 62
72 73 73 72 71 72 72 72 72 74 74 73 74 73 76 78 65 63 68 79 79 79 79 78 77 77 78 76 75 73 73 73 70 74 71 73 74 73 70 67 65 64 65
73 74 75 74 73 70 69 70 70 71 70 72 75 78 77 75 61 61 65 77 78 78 80 79 78 77 72 66 74 73 73 73 67 65 63 66 67 68 69 69 63 61 59
68 69 74 74 73 73 73 70 70 72 71 71 72 76 73 75 63 58 62 77 76 78 78 78 69 75 67 61 73 73 71 73 72 69 67 65 65 67 65 70 66 63 61
71 70 68 70 71 73 72 72 70 70 70 72 73 74 75 74 75 57 57 74 77 78 79 79 80 64 61 56 61 73 71 71 70 71 72 72 70 71 71 70 68 68 64
72 71 70 68 70 72 71 72 73 73 72 71 70 69 72 74 64 58 54 56 67 74 76 78 76 57 57 56 58 62 58 62 72 70 69 71 71 71 71 71 70 70 69
72 72 72 68 66 70 70 71 72 73 71 70 72 72 72 77 73 59 55 55 56 65 75 70 58 57 52 53 55 58 56 69 71 68 68 69 70 70 71 70 70 70 69
70 71 73 73 68 69 72 72 72 72 72 70 70 70 73 74 70 67 69 69 58 62 65 70 68 62 61 64 63 59 68 72 69 68 70 69 69 68 68 69 67 67 66
70 71 73 76 71 72 72 71 69 71 68 69 70 69 68 68 67 52 53 61 62 56 55 67 67 69 70 68 67 67 66 68 69 69 68 67 67 67 67 68 67 67 65
70 72 72 73 75 74 74 73 59 58 53 49 46 53 66 56 50 45 43 42 43 45 59 65 64 66 66 67 66 66 66 67 68 65 66 65 65 66 66 66 66 65 64
69 70 72 71 74 74 74 73 70 66 51 48 45 44 43 46 43 42 42 42 42 44 57 61 63 65 65 66 66 67 65 66 64 64 63 64 65 64 63 65 64 63 63
71 64 72 75 74 74 75 74 76 71 69 68 49 49 44 42 42 41 41 41 52 48 58 60 61 63 64 65 65 64 65 64 63 63 63 63 65 64 63 63 62 62 61
73 75 76 76 75 73 73 74 75 71 69 71 71 53 52 46 43 42 40 50 60 62 61 60 62 63 64 65 66 63 64 63 62 62 62 62 61 61 60 59 59 56 57
73 70 67 74 76 76 76 74 71 72 69 67 70 68 66 62 59 58 56 57 59 60 61 62 63 63 64 64 63 61 60 61 61 61 61 61 61 61 60 59 59 58 58
74 76 70 77 77 74 75 74 71 72 68 69 65 59 47 60 58 57 58 58 58 58 60 61 61 60 61 61 61 61 61 60 60 60 60 60 60 59 61 61 61 61 61
74 75 75 76 74 75 73 73 73 70 70 67 63 60 49 63 58 56 58 58 58 58 58 58 58 59 59 59 60 60 60 58 59 59 58 58 58 58 58 60 61 61 62
75 73 73 73 72 67 73 72 67 69 67 67 66 65 63 61 57 55 55 56 58 59 58 58 58 58 59 59 59 59 58 58 58 59 58 58 58 58 58 58 60 60 61
74 73 75 69 70 71 71 71 68 59 65 64 65 61 58 58 55 54 54 55 56 58 58 58 58 58 58 59 59 59 59 59 59 59 60 60 59 58 61 61 61 62 59
72 75 76 74 67 69 74 71 67 65 65 64 64 62 61 58 56 54 55 57 59 60 61 61 60 59 59 59 59 57 44 42 57 52 62 63 62 63 63 62 62 61 60
76 77 76 75 75 74 74 69 70 67 64 64 65 63 61 58 56 54 55 55 58 61 64 63 63 59 60 63 56 42 37 38 49 45 63 64 62 61 62 62 62 61 59

GFSGL_sfc_temp_102.txt.gz
Temp
75 75 77 73 68 69 68 67 68 70 73 74 74 73 73 73 72 71 70 70 70 69 69 69 69 69 68 68 67 66 66 66 64 65 67 69 68 68 69 68 69 68 68
75 70 68 67 67 67 66 66 67 67 68 71 72 72 73 74 72 71 71 72 69 68 69 68 68 70 68 68 67 65 65 66 65 63 66 68 67 68 67 67 67 67 65
71 68 67 66 66 66 66 65 67 68 68 68 69 71 72 73 72 72 72 71 70 70 70 68 68 68 67 67 67 67 67 67 66 65 65 66 66 66 66 67 66 66 65
69 67 67 66 65 66 66 67 67 68 68 67 67 71 72 72 72 73 73 71 69 70 70 69 68 68 68 67 67 68 67 67 67 67 65 65 64 65 65 64 63 65 64
67 67 67 67 67 67 66 67 68 68 70 69 68 72 71 71 72 72 72 71 70 69 69 70 70 70 70 68 68 67 66 66 64 64 63 63 63 64 64 63 63 63 64
65 65 65 66 66 66 66 66 67 67 67 68 70 70 70 73 68 67 71 72 71 70 68 69 70 70 69 67 68 68 68 66 65 63 63 62 62 63 63 62 61 61 60
66 65 65 64 64 63 65 65 66 68 69 70 70 69 68 70 65 63 66 71 71 71 70 70 70 75 69 70 67 66 67 67 67 67 64 63 63 64 64 61 60 61 61
65 65 65 64 64 64 65 65 67 68 67 67 68 69 68 69 62 61 63 67 68 69 72 71 70 70 69 69 68 66 67 67 67 68 66 66 66 65 67 65 64 63 63
63 64 65 65 65 64 64 64 65 66 66 67 69 69 69 69 62 59 61 65 66 68 68 68 69 69 66 62 67 65 65 66 64 61 63 63 63 62 64 63 61 61 60
63 65 65 65 65 64 64 65 65 66 66 67 67 67 65 68 60 58 59 66 65 66 68 68 64 67 62 59 66 66 65 67 65 63 62 62 61 62 62 68 64 61 60
63 63 64 63 64 64 64 64 65 65 65 66 67 66 66 66 67 58 55 65 67 67 66 66 67 60 56 55 57 67 68 67 64 65 63 62 63 63 64 63 65 65 59
61 62 62 61 63 64 63 64 64 64 64 64 65 66 67 67 55 57 53 54 59 66 67 67 66 55 54 52 55 57 54 58 67 64 63 62 62 63 65 64 63 64 65
59 58 59 61 62 62 61 61 63 63 63 62 62 61 62 61 59 52 53 55 55 58 63 62 56 54 53 56 53 55 56 62 65 65 64 64 65 66 65 65 63 62 61
57 57 58 59 60 60 61 61 60 63 62 61 59 59 59 61 59 58 57 57 56 57 57 57 59 59 57 62 61 59 60 63 65 65 65 66 65 63 64 65 65 63 63
57 57 56 56 55 56 59 60 60 60 59 59 59 58 58 57 57 50 50 53 53 51 49 54 57 59 61 61 61 61 60 60 62 64 65 64 64 64 64 64 64 64 63
56 56 56 56 56 56 56 58 56 56 50 50 48 53 57 51 48 43 42 42 42 44 51 54 55 58 59 60 60 60 61 61 61 63 64 65 64 64 64 64 64 64 63
55 56 56 56 56 56 56 57 57 58 49 45 45 46 47 48 43 42 41 41 41 42 47 51 54 56 58 60 61 61 61 61 62 62 63 64 65 64 61 63 64 64 63
55 55 55 55 56 56 56 56 56 56 56 58 45 47 43 42 42 42 41 43 53 45 47 51 53 55 58 60 61 61 62 63 63 63 64 64 64 64 63 63 63 63 62
56 56 56 56 55 56 57 56 56 56 57 57 55 49 48 44 43 42 42 52 54 56 57 56 56 57 58 60 61 62 62 62 63 64 64 64 64 64 63 63 63 58 58
56 58 58 56 58 59 62 59 58 59 58 57 56 55 54 52 53 54 56 56 56 56 56 56 57 58 60 60 61 62 63 62 63 63 63 63 63 63 63 63 63 60 61
55 56 58 57 58 58 58 59 60 60 59 58 54 53 46 52 56 55 56 56 56 56 57 57 57 58 59 61 61 61 62 62 62 63 63 62 62 62 62 62 61 61 60
55 56 57 57 58 57 57 57 57 56 56 55 54 53 43 51 54 55 55 55 56 57 58 57 57 58 58 57 58 59 60 61 62 62 61 62 61 61 61 60 60 60 59
56 56 56 56 57 56 56 56 55 56 56 55 55 56 52 54 55 54 54 55 56 56 56 56 56 57 57 58 58 58 57 57 58 60 60 59 59 59 59 59 59 58 58
56 56 56 56 56 55 55 55 55 52 55 55 54 52 52 53 55 54 54 55 56 56 55 53 54 56 56 56 56 57 57 57 58 58 59 57 57 55 57 56 56 56 56
55 55 55 55 56 58 55 55 54 55 55 55 54 53 53 52 52 53 52 54 55 56 56 56 56 55 54 53 55 54 43 38 52 48 57 57 56 56 55 55 54 53 52
55 55 55 55 55 55 54 54 54 55 54 54 55 54 54 52 51 51 52 54 55 55 56 55 54 57 53 53 52 42 38 36 47 42 54 56 54 54 54 54 53 51 50

GFSGL_sfc_temp_105.txt.gz
Temp
69 68 71 68 67 66 67 69 72 73 74 73 72 72 72 71 71 71 70 70 69 68 68 68 67 68 67 67 66 66 65 65 65 64 65 68 68 68 70 69 69 68 69
68 69 66 66 66 65 66 67 67 68 71 72 72 71 72 72 71 71 70 71 69 68 68 67 68 68 67 67 66 65 64 64 63 61 63 66 67 68 68 67 67 67 66
68 67 65 65 63 64 65 67 67 67 68 68 69 70 70 71 71 72 72 70 69 69 68 68 68 67 66 66 66 65 65 65 64 63 62 65 65 65 66 67 67 66 66
68 66 65 65 65 65 64 66 66 68 68 68 68 68 69 70 71 70 71 70 69 70 69 68 68 67 67 67 66 66 66 67 66 65 65 64 64 66 66 65 64 65 65
67 66 65 65 65 65 65 66 67 68 68 68 68 68 69 70 72 70 71 71 69 68 68 68 68 69 69 68 68 66 66 65 65 65 64 62 64 64 64 64 64 64 64
66 65 66 66 64 64 66 66 65 66 65 66 66 68 68 71 66 65 69 70 69 69 68 68 69 69 69 66 67 67 67 65 64 63 62 62 62 65 65 63 63 62 61
65 65 65 65 66 66 66 66 66 66 66 66 66 67 68 69 64 62 65 69 69 68 68 68 69 73 68 68 65 65 65 66 68 66 63 63 63 63 63 62 63 62 62
66 65 64 63 63 63 63 64 65 65 65 67 68 67 67 69 61 61 62 66 67 67 68 68 68 70 68 68 67 66 65 65 65 66 67 67 66 65 65 64 64 63 62
63 63 63 64 63 62 62 62 65 65 65 66 68 68 68 69 58 58 61 65 65 67 67 67 68 67 65 62 67 66 65 64 63 62 63 62 62 61 64 63 61 61 61
62 63 63 63 63 63 62 62 63 66 66 67 66 67 65 68 58 57 61 67 66 65 65 67 62 66 60 58 65 65 65 65 64 64 62 60 60 61 61 66 63 63 60
61 61 61 61 62 62 63 63 64 64 64 64 65 66 66 65 65 56 55 65 66 66 67 66 67 58 56 54 55 66 66 67 64 64 64 63 62 63 62 64 65 66 59
58 58 59 60 61 61 61 62 63 63 63 63 63 63 64 61 56 54 55 55 57 65 66 66 65 56 53 51 53 56 54 56 64 63 62 62 62 63 64 64 65 65 65
57 56 56 59 59 59 59 59 59 61 62 61 60 60 60 61 60 53 51 54 56 60 62 61 56 53 51 54 53 53 53 60 63 64 64 64 64 66 64 65 63 62 61
56 55 56 56 55 55 58 59 58 58 58 61 61 59 59 59 59 59 58 56 55 56 56 55 56 54 54 58 60 57 60 61 63 64 65 66 63 62 63 65 64 63 63
55 55 54 54 54 54 55 57 58 58 58 58 59 60 58 56 57 50 50 52 52 50 48 53 54 56 58 60 62 63 63 62 62 63 64 65 64 65 64 64 65 64 63
54 54 53 53 53 54 54 56 55 52 47 46 46 52 56 51 44 42 41 41 42 43 51 53 55 55 55 57 59 60 61 61 61 62 63 64 64 64 64 64 64 63 62
53 53 53 53 53 53 54 54 55 56 47 44 44 45 46 44 42 43 43 42 42 43 49 51 52 54 55 56 57 59 60 60 61 61 61 62 63 64 62 63 63 62 62
53 53 52 52 53 54 54 53 53 54 55 56 45 46 43 41 42 42 42 44 52 47 49 52 53 54 55 56 57 58 60 61 61 61 61 62 63 63 63 62 63 63 63
53 54 54 54 54 54 55 55 54 53 53 54 53 46 45 41 42 43 42 54 54 55 56 56 56 57 57 57 58 59 60 61 61 61 62 63 63 63 63 63 63 57 59
53 56 55 54 54 55 56 56 57 57 57 58 58 56 53 51 52 51 52 54 56 55 56 56 57 57 57 58 59 60 60 60 61 62 62 63 64 64 63 63 63 63 62
53 53 56 54 55 54 55 55 56 56 55 55 54 52 45 52 54 55 55 55 55 56 56 56 56 56 57 57 57 58 59 60 61 62 62 63 63 62 63 64 63 63 63
53 52 53 53 54 54 54 54 54 54 55 54 53 52 44 51 52 55 55 55 55 56 56 56 55 55 57 57 57 57 56 57 59 61 61 62 62 62 62 62 62 62 62
54 54 54 53 53 54 53 53 54 53 54 54 54 52 51 51 51 54 54 55 55 56 54 54 52 53 56 56 56 56 56 56 57 58 59 61 61 61 61 61 61 60 60
54 54 53 52 52 53 52 53 52 50 52 54 53 52 51 51 51 52 54 52 52 53 53 54 53 53 53 53 54 54 53 50 56 57 57 57 56 55 56 57 59 60 59
52 52 52 51 51 52 52 52 51 52 53 53 53 53 52 51 51 51 52 51 53 55 56 55 55 55 54 53 52 51 44 36 47 43 56 56 56 56 55 54 54 54 54
53 53 52 50 50 51 52 52 51 52 52 54 54 54 53 52 50 50 50 50 51 55 53 54 56 56 56 53 50 42 38 36 45 38 53 55 54 54 54 54 54 53 52

GFSGL_sfc_temp_108.txt.gz
Temp
67 68 68 66 68 68 70 71 72 74 74 74 74 73 73 73 73 72 72 72 71 71 71 71 71 71 71 71 70 70 68 68 66 68 68 72 72 71 72 74 73 73 74
67 66 66 66 67 66 66 67 68 68 71 73 73 73 73 73 73 72 72 73 71 70 71 71 71 71 70 71 70 68 69 68 67 66 68 69 70 69 71 70 70 71 70
67 65 66 65 66 66 65 66 67 68 69 71 72 72 72 72 72 72 72 72 72 72 72 71 71 71 70 70 69 69 69 69 68 66 66 68 69 69 68 68 68 68 68
67 65 64 65 65 66 66 66 67 68 68 68 70 71 71 71 71 72 72 72 72 72 72 72 72 71 71 70 70 69 69 68 67 66 66 66 68 70 68 67 67 68 68
68 65 65 65 65 65 65 65 66 67 69 69 69 70 71 71 71 71 71 71 71 72 71 72 72 72 70 71 72 70 69 67 66 66 66 65 65 66 66 67 67 67 68
66 66 66 65 65 64 65 65 66 67 67 67 67 68 68 70 65 64 68 70 70 71 70 70 73 70 69 66 67 67 70 68 66 66 66 65 66 68 69 68 67 64 63
65 65 65 65 65 65 66 66 66 66 66 66 66 66 68 69 63 63 64 69 69 70 70 70 70 75 70 72 66 65 65 65 68 70 68 68 68 68 70 66 65 65 65
65 66 65 65 65 65 65 65 66 66 66 66 67 67 66 68 63 60 61 67 68 70 70 70 70 72 72 71 72 70 70 71 69 70 72 72 72 71 71 70 69 69 67
63 64 65 65 65 64 64 64 64 65 65 66 68 67 67 68 59 57 62 66 66 66 68 68 70 70 65 61 71 70 70 71 65 62 64 64 62 62 67 69 65 64 63
62 63 64 64 64 64 65 64 65 66 67 67 67 69 65 69 55 55 63 67 65 65 66 67 62 66 60 58 67 69 68 71 69 69 67 63 62 65 61 71 70 66 66
60 62 62 62 63 63 64 65 66 66 66 66 66 66 67 66 61 55 55 66 66 65 65 66 66 59 54 54 56 67 68 71 68 70 71 70 69 68 68 69 71 72 69
59 59 61 61 62 63 62 63 65 65 65 65 64 62 61 61 56 53 54 55 58 63 64 65 65 54 50 51 54 55 55 57 67 67 67 68 67 69 70 70 69 70 74
59 58 58 59 59 61 62 62 63 63 63 62 62 61 61 61 60 52 52 54 55 60 61 57 54 52 50 53 54 54 54 61 64 65 66 68 69 70 69 67 68 69 69
58 57 58 58 58 58 60 62 62 62 62 63 63 61 62 62 61 59 57 57 55 57 55 56 56 54 53 55 56 59 60 62 63 64 66 69 68 67 66 67 64 64 63
58 57 57 58 58 59 59 59 62 62 60 62 62 62 61 61 58 50 52 55 53 51 50 57 57 58 58 59 61 63 64 64 62 63 64 65 66 65 65 66 65 64 63
57 57 57 57 59 59 59 60 52 50 47 46 47 55 57 48 43 43 43 43 42 43 54 56 56 57 57 57 57 58 60 62 63 63 64 64 64 64 65 64 64 64 63
56 56 57 56 58 58 59 59 61 58 46 45 45 46 44 45 42 43 42 42 42 45 56 57 56 57 58 57 57 57 57 60 63 64 63 63 64 65 64 64 64 63 63
56 53 57 58 59 59 60 60 60 59 60 61 48 47 43 41 46 45 42 45 57 53 55 58 58 58 58 58 58 57 58 59 60 61 61 63 64 63 63 63 64 63 63
57 57 57 59 59 59 60 61 61 60 60 59 59 52 46 41 41 42 42 58 59 58 58 59 58 57 57 58 58 58 59 59 60 61 62 62 63 62 62 63 64 57 59
58 56 56 58 59 60 61 61 61 60 60 61 61 60 56 52 57 57 57 57 58 58 58 59 57 57 57 57 58 57 58 58 60 60 61 61 62 63 62 63 63 62 62
58 58 56 59 60 60 61 61 60 60 59 59 59 58 48 58 58 58 58 58 57 57 58 59 57 57 57 57 57 57 57 57 58 58 60 62 63 62 63 63 64 63 63
59 59 60 60 59 59 60 60 59 59 59 60 60 58 43 52 57 58 58 59 58 58 58 58 57 57 57 58 57 57 56 56 57 57 57 58 61 62 62 62 63 63 63
60 60 59 59 58 55 59 60 59 59 59 60 61 60 57 56 57 57 58 60 59 59 58 58 58 58 59 59 60 58 56 55 55 57 57 57 57 57 59 61 61 61 62
59 59 59 58 58 58 58 59 59 51 56 59 61 60 59 59 58 57 58 58 58 58 59 59 59 59 59 59 59 59 57 53 53 56 58 57 57 55 56 55 55 58 61
59 59 59 58 58 57 57 58 57 58 57 58 60 60 61 59 58 58 58 58 58 59 60 60 59 59 59 59 57 58 50 35 44 40 57 59 56 56 55 55 55 55 54
59 58 58 57 57 57 57 57 58 57 56 56 57 59 60 60 59 59 57 57 58 59 59 61 61 60 60 58 57 48 38 35 43 35 52 59 56 54 54 54 54 53 53

GFSGL_sfc_temp_111.txt.gz
Temp
73 73 74 73 73 75 73 77 77 81 80 79 81 81 81 81 81 80 79 80 78 78 79 77 77 78 76 80 81 77 74 74 69 76 79 81 79 80 80 80 79 82 83
76 74 73 74 75 75 76 76 76 78 80 80 79 80 81 81 81 80 79 81 79 78 79 77 77 80 78 78 77 73 74 73 70 70 75 78 77 79 76 74 76 77 77
71 73 74 73 73 73 75 75 75 77 78 78 78 78 79 80 80 80 79 80 80 79 80 78 78 79 77 78 77 76 74 73 72 72 76 77 79 80 77 70 70 70 73
70 72 72 73 73 72 73 73 73 74 75 76 77 76 77 78 81 80 79 80 79 80 79 79 79 79 78 78 78 78 77 73 72 71 70 69 74 78 77 73 69 72 73
67 72 72 74 71 72 72 72 72 71 69 72 72 74 74 75 75 76 78 78 77 76 77 79 80 78 74 76 81 79 77 72 71 69 68 69 71 71 70 73 73 75 73
67 71 71 71 69 69 71 71 70 71 71 71 71 73 72 73 65 64 71 78 78 76 76 75 80 73 73 67 68 70 76 75 71 71 69 68 70 74 78 73 73 68 68
66 69 70 69 68 69 70 70 70 71 70 69 70 70 72 73 63 62 64 73 71 70 71 71 74 80 73 80 67 65 67 67 71 76 74 76 76 78 77 75 73 74 75
65 65 66 66 67 67 66 67 66 67 67 67 69 70 67 67 61 60 62 70 71 70 70 71 72 75 77 78 80 78 78 78 76 79 79 79 79 79 78 78 77 75 74
63 65 67 67 67 68 69 70 68 66 66 66 67 70 69 68 59 58 62 71 68 68 69 69 70 72 66 60 75 76 78 80 71 64 66 65 64 64 71 80 77 72 66
66 67 68 70 68 68 68 70 70 69 69 71 71 70 66 69 60 57 60 69 67 67 67 69 62 69 60 58 69 72 75 79 79 79 74 69 65 71 62 76 80 76 76
67 70 70 71 70 70 71 72 71 69 69 69 69 68 67 68 67 54 55 71 69 66 66 66 68 57 55 53 55 69 70 68 73 75 76 76 80 80 80 77 79 81 80
68 68 68 69 71 71 71 71 71 72 71 70 65 64 63 62 56 55 55 57 60 67 66 67 64 52 51 51 54 55 54 56 67 70 68 70 70 76 83 82 78 80 83
68 67 67 69 69 70 70 70 73 72 72 67 64 64 65 65 61 53 52 53 55 64 65 58 53 51 50 53 52 52 52 63 63 65 66 68 71 80 74 74 78 76 76
66 66 67 68 68 68 72 73 73 73 72 72 71 69 69 71 67 65 64 62 58 62 60 61 58 55 52 56 59 60 62 63 64 64 65 69 70 70 70 71 68 67 66
67 67 68 71 70 71 70 71 74 71 69 73 72 73 72 71 67 55 59 70 69 58 59 65 65 64 66 67 67 66 66 67 64 65 65 66 67 67 67 68 67 67 64
67 68 67 70 72 72 72 71 51 51 47 46 46 59 66 50 44 44 44 44 44 44 66 68 65 64 64 63 63 63 63 63 64 64 64 65 65 66 65 66 66 65 63
65 66 69 68 71 71 71 71 72 61 46 45 45 45 45 48 43 43 42 43 43 47 70 70 69 69 67 65 65 63 62 64 63 62 62 62 63 65 64 65 65 65 64
66 54 70 70 71 72 72 72 73 72 72 73 50 49 42 42 42 42 41 44 65 61 68 68 69 67 64 61 61 61 61 61 61 62 62 62 63 62 63 64 64 64 64
68 69 69 71 72 67 72 72 73 73 73 73 74 56 47 41 42 42 43 66 69 69 69 64 65 61 60 60 60 60 60 59 60 61 61 61 62 62 62 63 63 58 60
69 58 61 70 71 71 73 73 73 73 72 73 73 74 72 60 68 70 68 67 65 64 66 63 63 61 60 64 62 60 59 59 59 59 59 60 62 62 61 62 63 63 63
71 71 58 73 72 71 71 71 72 72 73 73 72 71 47 68 70 70 69 69 68 68 67 64 64 60 60 60 62 62 61 59 62 63 60 59 59 58 61 62 62 63 63
71 73 73 73 72 72 72 73 72 73 72 73 74 72 44 65 71 71 71 70 70 69 69 65 62 61 61 64 65 62 61 59 60 60 59 61 61 61 59 58 60 62 65
75 74 74 73 72 65 72 73 73 72 72 73 74 75 73 70 71 71 71 72 71 70 70 65 62 61 66 68 69 67 66 63 61 60 59 59 59 60 61 59 58 57 57
73 72 72 71 71 70 71 70 71 63 68 71 72 74 75 75 75 74 73 73 71 71 70 69 66 65 67 68 68 68 68 65 61 62 62 61 65 62 59 56 57 58 57
71 69 69 69 69 68 69 69 69 70 70 70 70 71 73 73 73 73 73 72 71 71 71 71 71 66 66 67 62 64 57 38 50 47 62 65 65 64 62 55 55 56 59
70 68 69 68 67 67 67 67 67 68 68 67 67 68 68 69 70 71 71 71 71 72 72 73 72 70 69 69 68 55 43 37 47 37 58 64 65 66 63 60 56 54 54

GFSGL_sfc_temp_114.txt.gz
Temp
82 82 80 79 73 76 76 76 81 83 79 80 86 86 86 86 86 84 84 85 85 84 85 82 82 83 82 80 79 80 78 77 73 85 90 87 82 80 85 87 87 86 81
83 81 79 80 80 78 78 79 80 80 77 79 79 80 84 86 86 85 84 87 85 84 84 83 84 86 81 80 79 79 77 80 81 78 83 86 82 84 83 82 84 86 82
80 80 79 77 78 78 78 79 80 80 81 82 84 82 82 82 85 84 85 86 86 86 85 84 84 82 81 81 81 78 80 80 80 79 82 87 86 87 83 81 79 77 73
79 79 78 78 76 75 77 77 77 79 79 80 82 79 80 83 81 84 85 85 85 85 86 85 86 85 82 82 81 79 80 82 81 79 83 81 78 84 83 83 79 81 82
78 77 75 76 74 77 78 79 79 80 80 80 80 79 80 81 82 82 83 84 84 84 85 85 86 82 76 80 85 82 82 80 77 75 80 77 73 76 78 84 81 79 79
75 74 75 77 73 76 77 78 78 77 78 79 77 79 79 82 70 66 72 80 80 80 81 84 85 74 73 69 69 70 78 79 75 79 80 79 77 79 81 82 81 78 74
68 69 75 75 75 74 74 75 77 76 76 75 76 78 78 79 63 62 64 79 80 82 81 83 84 86 74 82 67 66 68 67 70 78 78 80 80 81 81 79 79 79 80
71 68 70 70 70 71 73 72 73 75 75 73 73 75 75 77 62 59 61 71 76 78 77 80 80 78 78 73 73 72 77 79 78 83 81 81 82 83 81 81 78 76 80
67 66 67 70 68 70 71 71 73 72 71 68 70 71 70 76 59 58 60 68 72 75 77 77 75 69 64 60 68 70 71 77 71 65 67 65 62 62 71 80 77 73 76
64 66 68 70 70 72 73 74 75 76 74 74 74 70 68 73 59 56 59 69 70 71 75 70 64 67 60 59 66 68 68 73 80 82 80 73 69 75 62 77 80 75 78
68 68 70 73 73 73 73 74 74 75 74 72 67 66 66 61 66 54 54 73 72 71 72 67 67 58 55 54 54 67 67 71 71 79 82 80 81 79 80 80 82 80 77
74 73 71 74 75 77 75 73 74 74 72 70 67 64 63 62 54 52 53 56 61 73 69 72 69 53 52 51 53 57 55 58 72 78 76 78 74 75 74 72 76 80 80
73 73 73 73 74 76 75 76 80 77 77 72 68 67 68 70 67 52 52 54 57 64 63 56 55 51 50 54 51 53 52 62 65 66 70 74 73 72 74 70 71 73 79
71 72 73 74 73 75 81 82 81 80 79 79 79 77 77 76 75 77 74 70 58 67 59 66 59 59 55 62 61 60 62 65 67 69 70 70 71 69 69 70 70 72 70
73 74 75 77 76 77 76 75 78 72 66 78 79 80 78 77 69 55 61 75 75 62 65 74 72 72 75 73 76 76 75 74 70 70 68 67 67 71 75 76 73 73 69
74 75 74 79 79 79 79 76 50 50 47 45 46 60 70 51 46 46 45 45 45 46 71 77 77 77 76 75 70 69 74 70 72 71 70 68 66 66 67 70 68 66 66
71 73 77 75 78 78 78 79 77 62 47 46 46 46 47 50 44 45 44 44 47 50 77 79 77 77 77 77 76 74 69 68 67 69 66 66 70 65 63 66 68 66 64
72 55 76 77 78 79 78 79 80 79 79 76 51 52 45 43 43 43 43 47 72 64 79 75 75 77 74 72 70 69 67 66 63 65 67 66 64 69 64 63 65 67 66
74 73 75 76 77 73 79 80 80 79 78 78 76 55 51 43 42 43 43 67 75 77 78 78 75 74 70 69 69 69 70 70 67 65 63 62 64 64 64 68 63 56 59
75 60 66 77 78 77 77 78 78 77 77 79 79 79 75 62 70 73 70 75 73 74 77 76 75 67 65 66 67 70 70 70 70 68 68 69 69 66 62 63 64 64 63
79 78 65 79 78 77 77 76 76 77 78 78 78 77 48 75 77 78 78 78 77 77 77 77 77 76 68 67 71 72 73 71 72 73 73 70 66 66 68 70 67 62 61
80 79 79 78 77 77 76 77 77 77 78 78 79 78 46 76 79 79 79 79 79 78 78 76 75 76 73 70 72 74 72 72 72 72 72 70 69 71 71 71 69 67 67
79 80 79 79 79 71 77 78 78 77 77 78 79 80 81 80 80 80 80 81 80 79 79 78 75 73 74 72 72 70 70 69 71 71 69 69 71 71 72 68 68 63 60
70 76 76 77 78 76 77 76 76 67 74 77 78 78 79 80 81 81 82 82 81 81 80 79 79 78 74 73 70 71 70 68 70 69 69 68 70 67 70 70 68 66 64
78 76 76 76 76 76 75 76 76 76 76 76 76 76 77 77 78 79 78 79 80 80 79 80 80 79 78 75 75 76 66 41 60 51 69 69 69 69 68 67 67 66 66
76 75 75 75 75 74 73 73 73 74 73 71 71 71 73 74 75 74 74 74 74 74 75 77 76 77 78 78 77 63 46 37 53 37 63 68 67 68 69 67 68 69 67

GFSGL_sfc_temp_120.txt.gz
Temp
84 83 81 81 82 81 78 77 78 79 78 78 78 78 79 75 76 77 78 78 78 78 79 78 77 78 76 77 78 77 76 74 73 76 78 80 79 78 80 81 81 79 78
83 82 81 81 80 80 80 79 78 77 77 78 73 70 69 68 71 72 76 78 78 78 78 78 78 81 77 76 75 74 76 77 74 72 74 75 76 77 78 78 78 81 77
75 73 78 77 76 77 78 79 79 77 76 76 73 71 69 69 69 69 72 76 78 78 79 78 78 78 77 78 77 77 77 77 76 74 73 74 76 78 77 77 77 76 78
74 73 74 74 75 77 77 78 78 79 77 76 73 71 69 70 70 70 71 73 75 78 79 79 79 78 78 77 77 76 75 75 75 74 74 75 75 76 76 74 73 75 74
71 71 73 75 76 76 76 76 77 77 78 79 78 74 72 71 69 69 72 72 69 76 79 80 80 80 77 78 79 77 75 75 74 73 74 74 74 73 73 74 72 73 73
69 71 73 73 74 74 76 76 76 76 76 77 78 76 73 72 69 66 68 71 70 65 75 78 80 76 75 72 73 74 75 74 73 73 74 74 73 73 73 73 71 70 69
68 69 71 71 72 74 75 75 74 74 76 76 78 78 76 76 67 66 67 69 68 72 74 76 78 83 74 78 69 68 68 69 70 73 73 73 72 73 74 71 71 70 70
67 68 67 67 68 71 71 72 72 73 74 75 76 76 75 73 62 61 64 72 73 75 76 76 76 76 76 76 76 72 73 73 72 72 75 75 74 74 73 71 70 72 73
64 66 67 65 67 66 66 68 70 73 72 72 74 74 75 72 58 58 64 73 73 74 75 76 75 74 67 62 74 73 73 71 67 64 65 65 64 64 65 69 68 68 68
63 64 65 65 65 67 67 71 69 71 70 72 72 73 64 71 57 56 62 74 71 73 74 72 64 68 60 59 70 69 67 68 68 69 72 67 63 65 62 68 69 68 69
64 65 65 65 64 65 66 67 67 68 69 67 67 68 69 62 62 54 55 71 70 71 71 69 68 58 57 57 59 67 66 66 67 68 68 67 68 69 70 68 69 69 67
66 66 68 67 67 67 65 65 65 65 66 68 68 65 65 65 55 55 54 56 62 68 68 69 66 55 54 54 58 57 56 59 66 65 65 66 66 67 67 69 70 70 70
67 68 70 70 69 69 67 67 65 65 66 66 66 69 70 68 65 54 54 57 58 67 67 60 54 51 51 55 53 54 54 66 67 65 67 69 68 69 70 69 71 70 70
67 69 70 70 70 70 73 69 68 66 69 67 67 66 70 70 68 69 68 65 59 62 59 62 60 59 58 61 61 58 64 67 68 68 67 68 69 69 70 71 69 69 67
68 70 73 75 74 70 68 66 67 59 60 67 69 67 70 66 60 49 55 64 64 56 62 67 66 66 66 66 68 70 69 69 67 68 69 69 69 69 68 69 68 67 66
66 73 73 75 77 74 72 69 50 50 46 45 48 62 59 50 46 46 45 45 45 46 64 68 69 71 71 70 69 70 71 69 70 68 68 68 67 67 67 68 68 67 65
66 71 73 74 73 73 74 68 67 59 48 46 44 45 53 49 45 46 46 46 46 49 67 72 72 72 71 72 71 70 69 67 67 67 67 66 66 66 65 66 66 66 65
72 64 73 76 76 76 75 75 75 70 69 67 51 51 44 44 44 44 46 48 67 58 66 70 71 70 69 69 69 69 68 67 67 66 66 67 66 65 65 63 65 65 64
73 73 74 77 78 74 76 75 76 74 73 72 64 53 48 45 47 46 45 62 69 71 72 72 69 71 69 69 68 67 67 67 65 66 66 66 66 65 63 64 65 57 59
73 68 67 75 78 77 77 75 75 73 72 73 72 71 67 56 61 63 62 67 69 72 73 72 72 69 68 67 67 67 67 66 66 66 67 66 66 67 65 64 65 65 64
73 71 68 74 78 78 77 75 74 75 74 73 73 70 60 72 72 72 72 71 72 74 73 72 74 70 68 67 66 67 66 67 67 65 67 66 66 65 65 65 64 64 64
72 74 75 74 78 73 72 76 74 73 75 71 74 69 53 71 73 73 71 70 70 70 73 71 72 73 73 70 70 71 69 69 69 66 65 67 67 68 68 67 66 66 65
74 75 74 70 76 71 76 76 74 75 75 76 74 69 70 69 67 68 68 69 70 69 67 68 68 68 66 69 71 70 70 69 70 70 69 67 66 65 64 64 65 65 64
71 68 75 76 70 75 72 76 76 69 71 71 74 71 70 70 71 69 69 69 69 70 71 71 68 67 62 57 54 58 54 52 56 67 69 68 67 63 64 63 62 64 64
75 73 73 74 74 74 73 74 74 74 75 74 72 71 72 70 68 67 69 67 67 68 70 71 65 67 54 53 51 47 39 35 42 42 56 62 65 65 64 65 65 64 63
74 73 72 72 71 71 70 71 71 72 70 71 70 69 67 68 67 65 64 65 64 65 67 67 68 68 67 56 48 38 35 34 37 35 42 54 60 62 64 64 65 64 63

GFSGL_sfc_temp_123.txt.gz
Temp
73 72 73 74 73 74 74 74 74 74 74 74 78 77 76 75 75 74 74 74 73 73 74 74 74 75 75 73 73 73 71 69 69 71 72 73 73 73 76 75 76 75 73
73 69 69 69 72 74 72 73 74 73 74 74 75 75 70 69 67 66 67 70 73 72 73 74 74 76 74 73 71 72 75 74 73 70 69 70 71 73 73 73 74 76 73
68 68 68 68 69 70 71 72 72 73 73 73 72 72 69 68 67 67 67 68 69 72 72 74 74 73 74 75 73 74 73 74 72 70 70 70 71 71 71 72 72 72 74
65 65 66 68 68 70 71 72 72 71 70 72 70 70 70 67 66 64 65 66 69 72 74 73 74 74 75 75 74 74 72 71 70 70 69 70 70 72 71 69 69 71 71
63 63 65 66 67 69 70 70 70 71 71 72 71 70 70 67 67 67 68 66 67 70 70 68 69 74 73 74 76 75 73 72 71 70 69 68 69 68 68 69 69 69 70
63 64 65 65 67 67 68 70 70 69 70 71 71 70 69 70 67 66 68 68 69 68 67 67 66 68 71 69 70 73 74 72 71 71 70 69 69 67 68 68 69 66 65
63 64 65 65 64 65 66 68 69 68 69 69 70 69 70 71 64 64 66 68 68 67 66 66 68 71 68 70 70 68 69 69 72 72 70 69 68 67 68 68 67 65 66
63 63 64 64 63 64 65 65 66 66 66 67 68 68 68 70 65 62 65 68 67 66 67 66 66 67 68 70 72 70 69 68 68 69 71 70 70 69 69 69 68 67 68
61 61 63 64 63 64 63 63 65 65 66 66 67 66 66 67 58 59 62 67 67 68 69 71 70 70 68 65 70 68 68 68 66 63 64 64 65 64 68 68 66 64 64
62 62 63 64 63 64 64 63 64 66 66 67 67 66 63 66 57 58 61 66 66 66 67 68 62 67 61 59 68 69 68 67 68 67 67 65 65 66 62 68 67 65 65
63 63 64 64 63 63 62 62 61 63 65 65 64 65 63 62 61 56 55 66 65 65 66 66 65 59 57 57 58 66 65 66 65 66 66 67 67 67 66 65 67 66 65
63 64 64 64 65 64 62 62 64 64 64 64 63 63 63 62 57 56 55 57 62 65 65 66 62 53 52 54 59 55 57 61 65 64 64 64 65 65 67 68 68 68 68
62 64 65 65 65 63 62 60 61 62 63 63 64 63 63 63 61 54 55 56 58 64 63 59 54 51 52 56 54 55 57 62 63 62 62 63 65 67 67 67 68 68 68
61 62 65 66 65 63 65 63 63 64 61 63 62 62 62 61 58 60 63 63 60 61 59 61 59 59 58 60 58 57 62 63 63 63 63 64 65 64 64 65 64 63 63
63 63 68 66 67 62 56 53 57 52 51 63 61 61 61 58 55 47 51 56 57 52 57 61 61 61 61 61 62 62 62 63 62 62 62 62 63 63 63 64 63 63 61
63 67 69 67 66 66 62 59 49 48 46 45 49 58 52 48 46 46 45 45 45 47 61 60 60 61 61 61 61 63 63 64 61 60 59 59 59 59 59 60 61 61 60
62 67 66 65 68 63 66 63 62 57 48 45 44 43 48 48 45 45 45 44 46 51 59 63 64 64 66 66 65 64 60 61 61 61 58 58 58 60 62 59 58 59 61
65 61 63 61 63 63 66 63 62 61 63 59 51 49 44 44 45 44 45 49 59 57 59 63 63 62 64 61 61 60 59 59 59 59 59 62 63 62 61 59 58 61 61
64 64 64 64 64 63 63 63 62 61 60 61 60 54 48 45 47 46 45 55 58 60 62 64 65 62 60 61 59 59 59 59 58 58 57 58 58 57 57 57 56 54 54
66 64 63 64 65 64 63 63 62 61 61 59 59 59 54 51 55 56 56 58 58 60 65 64 64 64 62 62 59 59 59 59 59 58 58 58 58 59 57 57 56 55 56
67 67 66 68 67 66 66 63 65 65 65 66 64 60 54 58 60 63 63 63 63 64 63 62 64 62 60 59 59 59 59 59 58 59 61 62 61 60 62 61 61 60 57
63 63 64 66 63 63 64 63 66 66 66 63 62 59 55 60 59 60 61 63 64 64 65 64 63 61 59 59 60 61 61 57 58 59 58 59 60 59 59 59 57 57 56
63 63 63 66 66 65 66 65 62 66 62 62 62 61 62 64 63 60 59 61 63 64 63 61 60 59 55 54 53 52 52 49 51 54 56 57 58 57 57 56 56 55 55
64 65 65 63 65 65 64 62 62 60 65 63 60 59 57 57 57 58 58 58 59 61 63 62 58 53 51 50 48 48 46 45 48 47 50 54 55 55 57 56 56 56 55
64 65 61 61 60 59 59 60 60 59 60 59 58 58 57 56 55 55 54 54 55 56 57 59 58 53 49 46 46 42 37 34 39 39 46 48 53 56 58 58 58 58 56
62 60 60 58 56 56 55 55 55 55 56 56 56 55 55 55 53 53 52 52 52 52 53 54 55 50 47 44 40 35 33 33 37 34 41 48 51 53 55 56 56 56 55